     2.11           OBSERVATION DATA    G (GPS)             RINEX VERSION / TYPE
teqc 2010Oct21 OPUS Account 20111027 15:22:05UTC            PGM / RUN BY / DATE
K 1524                                                      MARKER NAME
1214                                                        MARKER NUMBER
CSMIDDLETON NGS                                             OBSERVER / AGENCY
0220390632 TRIMBLE R7 2.28                                  REC # / TYPE / VERS
11909788 TRM41249.00 NONE                                   ANT # / TYPE
  -758409.3132 -5529377.4743  3077113.1122                  APPROX POSITION XYZ
        1.9990        0.0000        0.0000                  ANTENNA: DELTA H/E/N
     1     1                                                WAVELENGTH FACT L1/2
     5    L1    L2    C1    P1    P2                        # / TYPES OF OBSERV
    15                                                      LEAP SECONDS
  2011     8    15     0     0   30.0000000     GPS         TIME OF FIRST OBS
                                                            END OF HEADER
 11  8 15  0  0 30.0000000  0  8G10G17G12G28G09G05G04G02
 -13563769.69956 -10555218.21954  21426816.6334                   21426814.5164
  -3836545.48856  -2961663.78153  22557294.0944                   22557292.3094
  -8799730.51656  -6842108.75453  22678979.2504                   22678976.7544
                                  23970694.367
  -3391958.71556  -2625299.25853  22751461.6564                   22751460.1254
  -4880081.57855  -3742911.55153  23682719.8444                   23682720.3204
 -14815717.82456 -11432112.66454  20747967.5554                   20747965.0634
 -15871566.90256 -12339428.75055  20940525.9774                   20940521.7194
 11  8 15  0  1  0.0000000  0  8G10G17G12G28G09G05G04G02
 -13592042.62946 -10577249.03544  21421436.2814                   21421434.4184
  -3773078.30146  -2912208.87543  22569371.1174                   22569369.6844
  -8864835.49646  -6892839.90243  22666589.9534                   22666587.0554
   5610756.55915                  23993078.703
  -3316152.60946  -2566229.59843  22765886.7814                   22765885.6644
  -4964367.09045  -3808588.43443  23666681.5784                   23666680.9844
 -14737111.14146 -11370860.73044  20762925.2424                   20762924.0474
 -15878309.08646 -12344682.37945  20939242.9924                   20939238.7734
 11  8 15  0  1 30.0000000  0  8G10G17G12G28G09G05G04G02
 -13619755.93046 -10598843.78544  21416162.5314                   21416160.8164
  -3709457.73446  -2862634.42243  22581478.2114                   22581476.1484
  -8929666.51246  -6943357.57043  22654253.7504                   22654250.5474
   5728665.051 5                  24015517.969
  -3239872.79745  -2506790.83243  22780402.2424                   22780401.6564
  -5048547.28545  -3874183.25443  23650662.7814                   23650662.3874
 -14658135.59046 -11309321.36344  20777953.9454                   20777952.0234
 -15884647.27046 -12349621.19145  20938037.5164                   20938032.8134
 11  8 15  0  2  0.0000000  0  8G10G17G12G28G09G05G04G02
 -13646915.95346 -10620007.41844  21410994.3594                   21410992.0474
  -3645691.89146  -2812946.75443  22593613.9144                   22593610.4224
  -8994229.62946  -6993666.47343  22641966.8134                   22641964.6604
   5846844.910 5                  24038004.180
  -3163130.68446  -2446991.84043  22795006.4384                   22795004.6334
  -5132628.11345  -3939700.65243  23634663.3594                   23634661.6844
 -14578802.39546 -11247503.31244  20793049.9304                   20793048.9804
 -15890590.60546 -12354252.34045  20936905.6564                   20936901.4414
 11  8 15  0  2 30.0000000  0  8G10G17G12G28G09G05G04G02
 -13673524.81246 -10640741.55544  21405931.7034                   21405928.7424
  -3581784.60546  -2763148.89143  22605773.9384                   22605771.1644
  -9058526.81646  -7043768.14543  22629731.3914                   22629729.7154
   5965289.363 5                  24060544.664
  -3085933.83645  -2386838.47743  22809696.2274                   22809694.9804
  -5216610.82445  -4005141.57443  23618680.2814                   23618680.0044
 -14499118.44546 -11185411.94144  20808213.2814                   20808212.3834
 -15896143.95346 -12358579.59445  20935849.1564                   20935844.8874
 11  8 15  0  3  0.0000000  0  8G10G17G12G28G09G05G04G02
 -13699577.09446 -10661042.00844  21400973.1724                   21400971.1254
  -3517732.28546  -2713237.98843  22617962.7194                   22617960.4264
  -9122552.27346  -7093658.09843  22617548.7584                   22617545.7194
   6083999.49615                  24083133.289
  -3008282.77345  -2326331.22743  22824472.5634                   22824471.9384
  -5300489.76245  -4070501.63743  23602718.9064                   23602718.1764
 -14419083.10246 -11123046.75844  20823443.6024                   20823442.2274
 -15901305.00446 -12362601.17245  20934866.6484                   20934862.5664
 11  8 15  0  3 30.0000000  0  8G10G17G12G28G09G05G04G02
 -15300488.01246 -11908505.03544  21096329.0704                   21096327.2464
  -5028949.14146  -3890809.59843  22330387.9774                   22330385.6604
 -10761722.45746  -8370933.53143  22305624.8524                   22305622.3594
   4627560.832 5                  23805983.688
  -4505594.58645  -3493067.75043  22539542.6094                   22539542.3134
  -6959681.53145  -5363378.21942  23286984.6254                   23286984.1294
 -15914112.95746 -12288005.10544  20538949.2344                   20538947.6374
 -17481491.32046 -13593915.15244  20634167.3204                   20634162.7504
 11  8 15  0  4  0.0000000  0  8G10G17G12G28G09G05G04G02
 -15325414.19546 -11927928.01244  21091586.9304                   21091584.1724
  -4964599.90246  -3840667.33643  22342633.5474                   22342631.5164
 -10825191.73846  -8420390.09043  22293546.7194                   22293544.0864
   4746802.39515                  23828674.250
  -4427038.21146  -3431854.99643  22554492.5004                   22554491.3244
  -7043338.82445  -5428565.54742  23271065.3914                   23271064.5394
 -15833376.54746 -12225093.64144  20554313.4384                   20554311.2734
 -17485863.60246 -13597322.10244  20633335.5554                   20633331.1294
 11  8 15  0  4 30.0000000  0  8G10G17G12G28G09G05G04G02
 -15349768.55546 -11946905.40644  21086952.1724                   21086950.0474
  -4900095.79346  -3790404.44543  22354907.2504                   22354906.0354
 -10888373.41046  -8469622.53544  22281523.7274                   22281521.4144
                                  23851414.375
  -4348028.15646  -3370288.79743  22569528.0394                   22569526.1254
  -7126874.99245  -5493658.55543  23255169.8204                   23255168.0124
 -15752287.66846 -12161907.51644  20569743.5474                   20569741.9344
 -17489836.61046 -13600417.92445  20632580.0314                   20632575.1054
 11  8 15  0  5  0.0000000  0  8G10G17G12G28G09G05G04G02
 -15373551.71946 -11965437.71544  21082426.3524                   21082424.2464
  -4835438.85946  -3740022.42243  22367212.6254                   22367209.6724
 -10951267.76646  -8518631.08643  22269555.3984                   22269553.3164
   4986086.53914                  23874210.000
  -4268570.73445  -3308373.93743  22584647.5554                   22584647.5634
  -7210290.44545  -5558657.41443  23239295.8984                   23239294.5704
 -15670851.62546 -12098450.87144  20585240.8754                   20585239.2304
 -17493413.91446 -13603205.40245  20631898.6334                   20631894.3954
 11  8 15  0  5 30.0000000  0  8G10G17G12G28G09G05G04G02
 -15396758.99646 -11983521.28544  21078010.1724                   21078008.1054
  -4770626.46146  -3689519.29344  22379545.3834                   22379543.0004
 -11013869.73446  -8567411.80544  22257643.6174                   22257640.0314
   5106124.37514                  23897052.063
  -4188666.40245  -3246110.87143  22599853.6174                   22599852.6564
  -7293579.92245  -5623558.21943  23223446.0634                   23223445.5784
 -15589068.18046 -12034723.54344  20600803.4384                   20600801.3284
 -17496593.51647 -13605683.01245  20631293.6484                   20631289.3524
 11  8 15  0  6  0.0000000  0  8G10G17G12G28G09G05G04G02
 -15419391.81246 -12001157.21144  21073703.1024                   21073700.7664
  -4705661.65246  -3638897.39843  22391907.0314                   22391905.7074
 -11076180.76246  -8615965.79344  22245784.5234                   22245782.1214
                                  23919942.789
  -4108322.01245  -3183504.87143  22615141.9694                   22615141.6094
  -7376743.50445  -5688360.87543  23207619.9614                   23207620.0044
 -15506943.33646 -11970730.16044  20616431.5004                   20616429.7194
 -17499379.89146 -13607854.18445  20630763.3134                   20630759.0434
 11  8 15  0  6 30.0000000  0  8G10G17G12G28G09G05G04G02
 -15441440.86346 -12018338.29744  21069506.6334                   21069504.9184
  -4640536.21546  -3588150.33243  22404300.4454                   22404298.0944
 -11138190.89146  -8664285.35244  22233984.7114                   22233982.2234
                                  23942884.844
  -4027533.50446  -3120552.83243  22630515.6094                   22630515.3554
  -7459772.13745  -5753058.42243  23191819.9304                   23191819.9304
 -15424472.52746 -11906467.22745  20632125.0234                   20632123.1454
 -17501766.01246 -13609713.48845  20630309.3364                   20630304.7814
 11  8 15  0  7  0.0000000  0  8G10G17G12G28G09G05G04G02
 -15462906.63746 -12035064.83244  21065421.9844                   21065420.2584
  -4575253.10946  -3537280.40643  22416722.9384                   22416721.1524
 -11199900.44946  -8712370.66443  22222242.1644                   22222239.1764
                                  23965876.141
  -3946306.70345  -3057259.29743  22645972.0864                   22645971.7664
  -7542664.92645  -5817650.07443  23176046.5634                   23176046.4064
 -15341660.99646 -11841938.75044  20647883.7814                   20647881.6484
 -17503755.78546 -13611263.93045  20629930.5554                   20629925.9804
 11  8 15  0  7 30.0000000  0  8G10G17G12G28G09G05G04G02
 -15483789.55547 -12051337.24644  21061448.8984                   21061446.4384
  -4509814.18446  -3486289.09044  22429176.0164                   22429173.8634
 -11261309.31646  -8760221.71544  22210555.2584                   22210553.9414
   5588874.605 5                  23988914.297
  -3864647.59046  -2993628.84843  22661510.8524                   22661510.6764
  -7625421.36746  -5882135.49243  23160298.0164                   23160297.8164
 -15258513.48447 -11777148.53145  20663705.8444                   20663704.0984
 -17505352.09447 -13612507.81645  20629627.0004                   20629622.0944
 11  8 15  0  8  0.0000000  0  8G10G17G12G28G09G05G04G02
 -15504091.98047 -12067157.29344  21057584.7344                   21057583.2154
  -4444223.17246  -3435179.25444  22441657.6024                   22441655.2854
 -11322419.66446  -8807840.13344  22198927.0704                   22198924.6374
   5710196.375 5                  24012002.102
  -3782563.75046  -2929667.43743  22677131.3204                   22677131.6414
  -7708043.91046  -5946516.59043  23144575.3444                   23144575.3874
 -15175037.06247 -11712101.98045  20679590.7274                   20679589.5124
 -17506560.28947 -13613449.24645  20629396.6024                   20629392.6804
 11  8 15  0  8 30.0000000  0  8G10G17G12G28G09G05G04G02
 -15523810.93046 -12082522.68444  21053832.2424                   21053830.1564
  -4378479.03946  -3383950.11344  22454168.5394                   22454166.2194
 -11383227.80146  -8855223.04744  22187355.8674                   22187353.3754
   5831764.758 5                  24035136.055
  -3700057.40246  -2865376.83643  22692832.4224                   22692831.6564
  -7790528.37546  -6010790.09043  23128878.5474                   23128878.6884
 -15091233.27347 -11646800.34045  20695538.1484                   20695536.8364
 -17507380.10547 -13614088.05145  20629241.0234                   20629236.5004
 11  8 15  0  9  0.0000000  0  8G10G17G12G28G09G05G04G02
 -15542943.25446 -12097430.96144  21050191.6724                   21050189.7854
  -4312579.44546  -3332599.81643  22466708.6174                   22466706.5274
 -11443730.06646  -8902367.63344  22175842.6414                   22175839.8244
   5953579.121 5                  24058315.984
  -3617130.40246  -2800758.44543  22708613.2584                   22708612.2424
  -7872870.26646  -6074952.50443  23113210.0634                   23113210.2154
 -15007103.28147 -11581244.51645  20711547.9144                   20711546.0944
 -17507810.64146 -13614423.52045  20629160.2274                   20629154.9654
 11  8 15  0  9 30.0000000  0  8G10G17G12G28G09G05G04G02
 -15561475.50446 -12111871.66444  21046664.2664                   21046663.3834
  -4246512.77046  -3281119.34444  22479280.2274                   22479278.9654
 -11503912.69146  -8949263.14844  22164389.6804                   22164387.5124
   6075649.000 5                  24081545.102
  -3533774.85946  -2735806.11343  22724474.9774                   22724474.3444
  -7955055.82446  -6138993.11343  23097570.3984                   23097569.7234
 -14922637.98047 -11515427.41445  20727621.0554                   20727619.2194
 -17507841.49647 -13614447.55145  20629153.0474                   20629148.4184
 11  8 15  0 10  0.0000000  0  8G10G17G12G28G09G05G04G02
 -15579415.53146 -12125850.87544  21043251.3984                   21043249.4184
  -4180288.21146  -3229515.84443  22491882.8914                   22491880.9534
 -11563782.66846  -8995915.04344  22152997.3524                   22152994.1884
   6197962.551 5                  24104821.586
  -3450003.87146  -2670530.09043  22740416.1804                   22740415.6174
  -8037091.55946  -6202916.91043  23081959.1884                   23081959.0004
 -14837849.63346 -11449358.58645  20743755.8364                   20743754.2624
 -17507483.01647 -13614168.20745  20629221.6334                   20629216.6954
 11  8 15  0 10 30.0000000  0  8G10G17G12G28G09G05G04G02
 -15596761.75846 -12139367.39544  21039950.6024                   21039948.6174
  -4113905.81246  -3177789.34043  22504515.3284                   22504512.6054
 -11623338.35946  -9042322.04744  22141663.4844                   22141661.8874
   6320517.133 5                  24128142.375
  -3365820.80145  -2604932.92243  22756436.1334                   22756435.2704
  -8118975.30546  -6266722.33643  23066377.8134                   23066377.0864
 -14752741.20746 -11383040.35244  20759951.1644                   20759949.8284
 -17506736.53546 -13613586.51645  20629362.9924                   20629359.1374
 11  8 15  0 11  0.0000000  0  8G10G17G12G28G09G05G04G02
 -15613510.21946 -12152418.11744  21036763.4144                   21036761.8444
  -4047362.84846  -3125937.73843  22517178.2344                   22517176.1054
 -11682575.24646  -9088480.62944  22130391.3594                   22130389.0354
   6443312.48815                  24151509.516
  -3281227.47746  -2539016.09843  22772532.4454                   22772532.2274
  -8200702.23446  -6330405.55143  23050825.5554                   23050825.0204
 -14667313.39147 -11316473.23844  20776207.6484                   20776205.9774
 -17505600.90247 -13612701.60245  20629579.5084                   20629575.0084
 11  8 15  0 11 30.0000000  0  8G10G17G12G28G09G05G04G02
 -15629661.74646 -12165003.69144  21033689.6024                   21033688.0474
  -3980661.76646  -3073962.91443  22529871.1024                   22529868.9264
 -11741493.09446  -9134390.60944  22119179.6564                   22119177.9104
   6566344.25414                  24174923.086
  -3196229.62946  -2472784.07043  22788708.3674                   22788707.2194
  -8282272.11745  -6393966.38743  23035302.7194                   23035302.9414
 -14581570.99646 -11249661.00844  20792523.8134                   20792522.2114
 -17504079.35546 -13611515.96545  20629869.2664                   20629864.8404
 11  8 15  0 12  0.0000000  0  8G10G17G12G28G09G05G04G02
 -15645211.44546 -12177120.32044  21030730.7734                   21030729.0434
  -3913799.37146  -3021862.39143  22542594.1094                   22542592.0434
 -11800086.89146  -9180048.08244  22108029.2424                   22108027.3404
                                  24198380.602
  -3110827.72345  -2406237.17243  22804959.4224                   22804958.6994
  -8363679.12946  -6457400.31243  23019812.4144                   23019810.8674
 -14495513.47346 -11182603.20744  20808900.3984                   20808898.6254
 -17502169.76646 -13610027.94945  20630232.2034                   20630228.3164
 11  8 15  0 12 30.0000000  0  7G10G17G12G09G05G04G02
 -15660157.63346 -12188766.67644  21027886.4844                   21027884.3484
  -3846774.50446  -2969635.25843  22555349.1724                   22555346.3914
 -11858353.48846  -9225450.60544  22096941.8364                   22096939.6484
  -3025024.93445  -2339377.93742  22821287.1024                   22821286.9884
  -8444920.19145  -6520704.93743  23004352.8984                   23004351.0864
 -14409142.97346 -11115301.53544  20825335.5944                   20825334.4104
 -17499872.57046 -13608237.90645  20630670.2734                   20630665.3094
 11  8 15  0 13  0.0000000  0  7G10G17G12G09G05G04G02
 -15674497.70746 -12199940.75044  21025157.4144                   21025156.0554
  -3779586.00846  -2917280.64143  22568133.6804                   22568132.1024
 -11916289.75846  -9270595.75044  22085917.1804                   22085914.4534
  -2938823.69545  -2272208.19943  22837690.0314                   22837690.0124
  -8525991.34846  -6583877.13743  22988924.2504                   22988923.5164
 -14322461.53946 -11047757.59444  20841830.3984                   20841829.3834
 -17497187.88746 -13606145.93045  20631180.6334                   20631176.1454
 11  8 15  0 13 30.0000000  0  7G10G17G12G09G05G04G02
 -15688222.30546 -12210635.22744  21022545.8054                   21022543.9224
  -3712226.20346  -2864792.52343  22580952.4454                   22580950.6884
 -11973886.41446  -9315476.23044  22074956.9144                   22074954.1604
  -2852220.35245  -2204725.12543  22854170.7114                   22854170.2544
  -8606882.84445  -6646909.35943  22973531.5944                   22973530.0164
 -14235464.41046 -10979967.62144  20858386.1804                   20858384.4734
 -17494109.65646 -13603747.28145  20631766.3914                   20631761.7974
 11  8 15  0 14  0.0000000  0  7G10G17G12G09G05G04G02
 -15701336.00846 -12220853.67244  21020050.7974                   21020049.2464
  -3644700.84445  -2812175.38743  22593802.6954                   22593799.9774
 -12031146.93746  -9360094.81644  22064059.9614                   22064057.7034
  -2765224.35245  -2136936.10243  22870725.6484                   22870725.3834
  -8687598.25045  -6709804.41043  22958172.5944                   22958170.2074
 -14148160.15246 -10911938.34844  20874999.5314                   20874997.4414
 -17490644.62946 -13601047.25044  20632425.7114                   20632420.7544
 11  8 15  0 14 30.0000000  0  7G10G17G12G09G05G04G02
 -15713836.77746 -12230594.49244  21017671.5234                   21017669.5354
  -3577009.30145  -2759428.76243  22606683.8364                   22606681.0164
 -12088068.34046  -9404449.11343  22053228.3984                   22053226.0824
  -2677838.77345  -2068843.53542  22887355.3204                   22887354.2344
  -8768134.30945  -6772559.66843  22942846.7814                   22942844.9884
 -14060550.90646 -10843671.41844  20891670.9614                   20891668.6414
 -17486793.32046 -13598046.19144  20633158.5394                   20633153.8484
 11  8 15  0 15  0.0000000  0  7G10G17G12G09G05G04G02
 -15725719.22346 -12239853.53544  21015410.0234                   21015408.3984
  -3509146.91846  -2706549.04343  22619597.2034                   22619595.5124
 -12144644.71946  -9448534.61344  22042462.4144                   22042460.1024
  -2590063.50045  -2000447.26642  22904057.7814                   22904057.5704
  -8848484.25045  -6835169.91443  22927556.0784                   22927554.8444
 -13972635.48046 -10775165.91044  20908400.6644                   20908398.5984
 -17482552.96946 -13594742.02745  20633965.8914                   20633960.9574
 11  8 15  0 15 30.0000000  0  7G10G17G12G09G05G04G02
 -15736987.85246 -12248634.27044  21013265.9614                   21013264.1724
  -3441120.08245  -2653541.13743  22632542.4844                   22632540.3984
 -12200879.56246  -9492353.95344  22031761.2274                   22031758.8054
  -2501908.11745  -1931754.84843  22920833.2274                   22920833.0904
  -8928651.66045  -6897637.91843  22912300.6254                   22912299.9064
 -13884422.50846 -10706428.55944  20925187.6564                   20925185.2934
 -17477930.44146 -13591140.02745  20634844.9924                   20634840.1454
 11  8 15  0 16  0.0000000  0  7G10G17G12G09G05G04G02
 -15747635.00046 -12256930.73044  21011239.9774                   21011238.2854
  -3372921.51245  -2600399.43443  22645519.7664                   22645518.5234
 -12256764.71546  -9535900.83244  22021127.3754                   22021124.2464
  -2413369.72345  -1862763.97743  22937681.7584                   22937681.2934
  -9008627.31245  -6959956.52743  22897082.3524                   22897080.8834
 -13795908.17646 -10637456.36744  20942031.0554                   20942028.7624
 -17472920.68746 -13587236.30144  20635798.2424                   20635793.4804
 11  8 15  0 16 30.0000000  0  7G10G17G12G09G05G04G02
 -15757664.04346 -12264745.58244  21009331.6254                   21009329.8284
  -3304556.59446  -2547128.11343  22658528.9224                   22658527.2934
 -12312302.66846  -9579177.16844  22010558.3674                   22010556.1994
  -2324457.11746  -1793481.48443  22954600.5864                   22954600.9304
  -9088413.72746  -7022127.68744  22881898.7504                   22881897.7424
 -13707100.38747 -10568255.53945  20958929.8984                   20958928.3094
 -17467529.89847 -13583035.69945  20636824.1724                   20636819.6334
 11  8 15  0 17  0.0000000  0  7G10G17G12G09G05G04G02
 -15767072.55946 -12272076.85944  21007541.4924                   21007539.1724
  -3236023.52045  -2493725.73443  22671571.1644                   22671569.0164
 -12367489.96946  -9622180.22744  22000056.8134                   22000054.7384
  -2235172.59445  -1723909.17243  22971589.0944                   22971591.1994
  -9168007.11745  -7084148.42243  22866751.9384                   22866752.3984
 -13618000.37946 -10498826.94544  20975885.7504                   20975883.6174
 -17461757.82446 -13578537.94145  20637922.7344                   20637918.0044
 11  8 15  0 17 30.0000000  0  7G10G17G12G09G05G04G02
 -15775866.16046 -12278928.99644  21005867.6334                   21005865.8054
  -3167329.16445  -2440197.68743  22684642.4224                   22684641.2274
 -12422331.13346  -9664913.59444  21989620.8134                   21989618.0164
  -2145526.86745  -1654055.44142  22988650.5554                   22988650.1094
  -9247411.60945  -7146021.93043  22851643.0784                   22851641.4104
 -13528618.00846 -10429178.35544  20992893.3594                   20992892.7424
 -17455612.69546 -13573749.51244  20639092.0554                   20639087.6644
 11  8 15  0 18  0.0000000  0  7G10G17G12G09G05G04G02
 -15784036.46546 -12285295.43743  21004312.6024                   21004311.0204
  -3098466.09045  -2386538.18043  22697747.2034                   22697745.8634
 -12476817.51646  -9707370.48044  21979252.8914                   21979249.2544
  -2055516.53145  -1583917.57042  23005778.6254                   23005778.6374
  -9326617.91445  -7207741.02043  22836569.4224                   22836568.4964
 -13438948.78546 -10359306.23844  21009958.7424                   21009956.1454
 -17449088.51246 -13568665.70744  20640333.1334                   20640328.7234
 11  8 15  0 18 30.0000000  0  7G10G17G12G09G05G04G02
 -15791590.13346 -12291181.39144  21002875.4614                   21002873.8094
  -3029442.08645  -2332753.21943  22710883.2114                   22710880.3284
 -12530954.32046  -9749554.98044  21968950.1884                   21968947.9774
  -1965153.43045  -1513504.83242  23022974.5784                   23022974.3984
  -9405630.80945  -7269309.43043  22821534.8914                   22821532.8914
 -13349003.34846 -10289218.89544  21027073.9454                   21027072.6884
 -17442194.55946 -13563293.77345  20641646.0474                   20641640.5354
 11  8 15  0 19  0.0000000  0  7G10G17G12G09G05G04G02
 -15798521.00846 -12296582.06644  21001556.2974                   21001554.6374
  -2960251.81645  -2278838.79343  22724048.9694                   22724046.6884
 -12584734.57446  -9791461.68744  21958716.9304                   21958713.8754
  -1874436.18745  -1442816.12942  23040238.3054                   23040237.4414
  -9484443.20745  -7330721.59843  22806536.9224                   22806535.6954
 -13258779.16046 -10218914.35544  21044243.1644                   21044241.1294
 -17434926.71546 -13557630.52345  20643028.6094                   20643023.6214
 11  8 15  0 19 30.0000000  0  7G10G17G12G09G05G04G02
 -15804826.11346 -12301495.13744  21000356.7974                   21000355.1604
  -2890893.41046  -2224793.31643  22737247.4064                   22737245.4734
 -12638154.16046  -9833087.31644  21948551.6884                   21948547.5514
  -1783366.74645  -1371853.03143  23057568.1334                   23057566.4104
  -9563050.50846  -7391973.98443  22791578.1884                   22791576.6804
 -13168277.58246 -10148393.65644  21061464.9304                   21061463.1254
 -17427284.41046 -13551675.47745  20644483.1094                   20644478.0084
 11  8 15  0 20  0.0000000  0  7G10G17G12G09G05G04G02
 -15810510.14146 -12305924.19544  20999275.3594                   20999273.4534
  -2821372.36345  -2170621.07443  22750476.6334                   22750474.5004
 -12691216.73046  -9874434.73444  21938453.4694                   21938450.6174
  -1691954.71545  -1300622.89142  23074963.4694                   23074962.0944
  -9641455.70745  -7453068.84443  22776658.4774                   22776656.6024
 -13077506.79746 -10077663.17244  21078738.0004                   21078736.4774
 -17419275.49646 -13545434.73445  20646007.0704                   20646002.1484
 11  8 15  0 20 30.0000000  0  7G10G17G12G09G05G04G02
 -15815571.78146 -12309868.32044  20998312.1564                   20998310.4534
  -2751688.41045  -2116321.93043  22763737.3284                   22763735.5354
 -12743920.19946  -9915502.36744  21928423.7114                   21928421.3754
  -1600203.57045  -1229128.55143  23092421.8204                   23092422.4344
  -9719656.35545  -7514004.33243  22761776.7584                   22761775.1414
 -12986469.47346 -10006724.99644  21096061.8984                   21096060.3204
 -17410900.07046 -13538908.42645  20647600.7114                   20647595.9064
 11  8 15  0 21  0.0000000  0  7G10G17G12G09G05G04G02
 -15820009.46146 -12313326.21144  20997468.1174                   20997465.1454
  -2681840.94545  -2061895.36743  22777029.2034                   22777026.6294
 -12796261.75046  -9956287.95744  21918463.8364                   21918461.4344
  -1508116.62545  -1157372.52342  23109945.5864                   23109945.3014
  -9797649.30545  -7574777.95343  22746934.7344                   22746933.7504
 -12895167.81246  -9935580.84844  21113435.6724                   21113434.2544
 -17402159.03946 -13532097.21544  20649263.7504                   20649258.6724
 11  8 15  0 21 30.0000000  0  7G10G17G12G09G05G04G02
 -15823818.34846 -12316294.16844  20996742.9384                   20996740.6484
  -2611826.39845  -2007338.64143  22790351.9924                   22790349.9024
 -12848235.52346  -9996787.01244  21908573.9924                   21908570.8674
  -1415694.09045  -1085355.07842  23127534.4694                   23127533.1724
  -9875428.75446  -7635385.26643  22732134.1644                   22732132.5164
 -12803600.91446  -9864230.03144  21130861.2424                   21130859.4304
 -17393050.04346 -13524999.30945  20650997.4774                   20650992.3954
 11  8 15  0 22  0.0000000  0  7G10G17G12G09G05G04G02
 -15826997.23046 -12318771.17644  20996137.9694                   20996135.5124
  -2541643.68045  -1952650.82443  22803706.9774                   22803705.1414
 -12899839.13746 -10036997.58643  21898754.7894                   21898750.8914
  -1322938.83245  -1013078.27342  23145184.8674                   23145183.9614
  -9952991.36345  -7695823.57443  22717374.5474                   22717373.3284
 -12711771.00846  -9792674.25844  21148335.5704                   21148333.2974
 -17383574.36346 -13517615.64844  20652800.6884                   20652795.2304
 11  8 15  0 22 30.0000000  0  7G10G17G12G09G05G04G02
 -15829548.61346 -12320759.27344  20995652.0944                   20995650.4224
  -2471296.55145  -1897834.93443  22817093.6024                   22817092.3484
 -12951074.40246 -10076921.16044  21889003.8674                   21889001.4224
  -1229859.00845   -940548.59042  23162896.5474                   23162896.7154
 -10030338.46545  -7756093.94943  22702655.5554                   22702654.5124
 -12619684.77746  -9720918.75443  21165858.2194                   21165857.2384
 -17373736.82446 -13509950.02744  20654672.5394                   20654667.9144
 11  8 15  0 23  0.0000000  0  7G10G17G12G09G05G04G02
 -15831471.66846 -12322257.70744  20995287.1484                   20995284.5314
  -2400785.34045  -1842891.16043  22830512.5004                   22830510.3714
 -13001939.03946 -10116555.90243  21879324.8364                   21879322.0204
  -1136458.53945   -867769.07042  23180670.3054                   23180669.9964
 -10107467.47745  -7816194.39543  22687978.2584                   22687976.8284
 -12527345.09846  -9648965.75843  21183430.2344                   21183428.6374
 -17363539.04746 -13502003.69944  20656612.6884                   20656607.9264
 11  8 15  0 23 30.0000000  0  7G10G17G12G09G05G04G02
 -15832766.50846 -12323266.68744  20995040.5634                   20995038.1374
  -2330110.09445  -1787819.59043  22843961.3984                   22843959.1134
 -13052431.56646 -10155900.73444  21869716.3444                   21869713.8164
  -1042742.11345   -794743.32443  23198504.5394                   23198503.7274
 -10184376.86345  -7876123.73043  22673343.3204                   22673341.4924
 -12434755.12546  -9576817.75844  21201050.0084                   21201047.6954
 -17352983.04746 -13493778.27045  20658621.1564                   20658616.7734
 11  8 15  0 24  0.0000000  0  7G10G17G12G09G05G04G02
 -15833430.04346 -12323783.69544  20994913.9844                   20994911.6764
  -2259269.09445  -1732618.85943  22857442.0944                   22857439.1764
 -13102548.36346 -10194952.73443  21860180.0554                   21860176.8284
   -948711.28945   -721472.56243  23216398.3134                   23216396.6844
 -10261061.60246  -7935877.98043  22658750.1804                   22658748.8444
 -12341915.76646  -9504475.39144  21218716.4534                   21218714.8594
 -17342067.90246 -13485272.94944  20660698.1724                   20660693.8634
 11  8 15  0 24 30.0000000  0  7G10G17G12G09G05G04G02
 -15833464.68746 -12323810.70344  20994906.6804                   20994905.3794
  -2188265.15646  -1677291.19143  22870954.2664                   22870950.9224
 -13152289.98846 -10233712.46944  21850714.1564                   21850711.3984
   -854372.94945   -647962.34842  23234349.4774                   23234348.5514
 -10337522.69546  -7995458.01644  22644200.1564                   22644198.8754
 -12248832.79346  -9431943.24644  21236429.2194                   21236427.9884
 -17330798.34846 -13476491.50845  20662843.6334                   20662838.7624
 11  8 15  0 25  0.0000000  0  7G10G17G12G09G05G04G02
 -15832866.66847 -12323344.74645  20995020.5864                   20995018.9024
  -2117095.59846  -1621834.45343  22884496.3914                   22884494.8284
 -13201652.39147 -10272176.69944  21841320.1724                   21841317.7704
   -759728.62546   -574213.59043  23252359.5084                   23252359.3404
 -10413755.23846  -8054859.94944  22629693.0234                   22629692.4104
 -12155506.34047  -9359221.38344  21254189.2584                   21254187.0984
 -17319173.08247 -13467432.90645  20665055.5234                   20665050.6804
 11  8 15  0 25 30.0000000  0  7G10G17G12G09G05G04G02
 -15831640.53947 -12322389.28545  20995253.8524                   20995251.6024
  -2045765.28546  -1566252.41843  22898070.0864                   22898068.4734
 -13250638.05546 -10310347.31244  21831998.4844                   21831996.5784
   -664787.22746   -500233.36743  23270426.5314                   23270426.2074
 -10489761.62146  -8114085.62144  22615230.4304                   22615228.7074
 -12061944.19947  -9286315.83244  21271993.2344                   21271991.4734
 -17307198.71947 -13458102.19945  20667333.5864                   20667329.4494
 11  8 15  0 26  0.0000000  0  7G10G17G12G09G05G04G02
 -15829790.83647 -12320947.96145  20995606.4844                   20995604.5314
  -1974279.53946  -1510549.27043  22911674.0394                   22911671.9414
 -13299250.37946 -10348227.02345  21822747.9224                   21822746.4024
   -569558.15246   -426028.94543  23288548.1484                   23288548.4384
 -10565544.43446  -8173137.08644  22600809.0634                   22600807.8954
 -11968154.59447  -9213233.03144  21289840.9694                   21289838.8754
 -17294881.98047 -13448504.74245  20669677.9774                   20669673.1764
 11  8 15  0 26 30.0000000  0  7G10G17G12G09G05G04G02
 -15827315.22747 -12319018.89544  20996076.9304                   20996075.0824
  -1902636.53546  -1454723.59443  22925306.8204                   22925304.7154
 -13347485.66447 -10385812.93744  21813569.1644                   21813566.8714
   -474043.37145   -351601.89143  23306723.9614                   23306724.4384
 -10641099.83246  -8232011.35244  22586430.4924                   22586429.9844
 -11874138.38746  -9139973.67244  21307731.7664                   21307729.9774
 -17282222.30547 -13438640.05145  20672087.1254                   20672082.3244
 11  8 15  0 27  0.0000000  0  8G10G17G12G25G09G05G04G02
 -15824204.75846 -12316595.13344  20996669.2974                   20996666.9534
  -1830827.71546  -1398768.70343  22938972.1254                   22938968.9694
 -13395333.35946 -10423096.84444  21804464.0704                   21804461.6994
  -1692442.14115                  24694763.242
   -378238.39145   -276948.73043  23324955.2814                   23324955.2974
 -10716416.60946  -8290699.69544  22572098.6884                   22572097.7304
 -11779889.78146  -9066533.21544  21325665.9224                   21325664.6844
 -17269212.72747 -13428502.71945  20674562.3284                   20674558.0084
 11  8 15  0 27 30.0000000  0  8G10G17G12G25G09G05G04G02
 -15820454.90646 -12313673.16844  20997382.3594                   20997380.6134
  -1758849.31646  -1342681.65643  22952668.4304                   22952666.5084
 -13442787.98846 -10460074.44944  21795434.3444                   21795431.2814
  -1773000.516 5                  24679431.602
   -282142.98845   -202069.27043  23343242.0234                   23343242.3134
 -10791488.84046  -8349197.46143  22557812.8284                   22557811.7734
 -11685407.93046  -8992911.02044  21343645.5234                   21343644.6414
 -17255851.14147 -13418091.08245  20677104.8524                   20677100.3594
 11  8 15  0 28  0.0000000  0  8G10G17G12G25G09G05G04G02
 -15816075.12946 -12310260.34044  20998216.9774                   20998214.4614
  -1686711.63345  -1286470.50843  22966396.7424                   22966394.0044
 -13489857.78546 -10496752.19944  21786476.6174                   21786474.3714
  -1853433.871 5                  24664126.563
   -185771.88345   -126974.96142  23361580.6564                   23361580.6954
 -10866324.11746  -8407510.60544  22543572.0314                   22543571.3164
 -11590705.81246  -8919117.18044  21361666.7034                   21361665.2384
 -17242149.19547 -13407414.22745  20679712.6174                   20679708.0124
 11  8 15  0 28 30.0000000  0  8G10G17G12G25G09G05G04G02
 -15811059.27746 -12306351.87144  20999170.3834                   20999168.7424
  -1614408.78145  -1230130.67243  22980154.9924                   22980151.9734
 -13536535.04746 -10533124.08244  21777595.0554                   21777592.1024
  -1933734.703 5                  24648846.086
    -89123.08245    -51664.26643  23379972.1254                   23379972.2074
 -10940914.40246  -8465632.83643  22529378.4694                   22529376.8594
 -11495780.68446  -8845149.56244  21379730.6024                   21379729.1334
 -17228102.81647 -13396468.99645  20682386.1174                   20682380.7704
 11  8 15  0 29  0.0000000  0  8G10G17G12G25G09G05G04G02
 -15805407.98446 -12301948.27744  21000246.2344                   21000244.3984
  -1541941.82046  -1173662.91843  22993945.2814                   22993943.3634
 -13582818.77046 -10569189.30144  21768787.7034                   21768784.6884
  -2013902.187 5                  24633590.680
      7798.07845     23858.67643  23398415.3054                   23398416.0204
 -11015258.44146  -8523563.18743  22515231.3524                   22515229.5204
 -11400636.12546  -8771010.97344  21397836.2974                   21397834.4924
 -17213714.72746 -13385257.49245  20685123.1414                   20685118.5044
 11  8 15  0 29 30.0000000  0  8G10G17G12G25G09G05G04G02
 -15799118.67646 -12297047.49644  21001443.0864                   21001440.8094
  -1469308.48845  -1117065.56243  23007767.2114                   23007764.4064
 -13628705.03546 -10604944.84044  21760055.4924                   21760052.4574
  -2093932.375 5                  24618361.430
    104989.82045     99592.41042  23416910.1954                   23416911.0864
 -11089351.51646  -8581297.99643  22501132.2814                   22501130.1764
 -11305272.89546  -8696702.00044  21415983.5944                   21415981.5984
 -17198984.05146 -13373779.03545  20687926.3984                   20687922.3714
 11  8 15  0 30  0.0000000  0  8G10G17G12G25G09G05G04G02
 -15792195.02346 -12291652.40644  21002759.9844                   21002758.6334
  -1396513.11345  -1060341.92643  23021619.4454                   23021617.3014
 -13674195.87146 -10640392.19144  21751398.3134                   21751395.8284
  -2173827.160 5                  24603158.617
    202444.31645    175530.93842  23435455.3914                   23435455.8054
 -11163195.43745  -8638838.64143  22487080.2814                   22487077.8164
 -11209697.59446  -8622227.74244  21434170.9924                   21434169.0004
 -17183916.57446 -13362038.10545  20690793.3364                   20690789.3754
 11  8 15  0 30 30.0000000  0  8G10G17G12G25G09G05G04G02
 -15784626.92246 -12285755.18044  21004201.0784                   21004198.4414
  -1323546.18045  -1003484.60543  23035504.6484                   23035502.8204
 -13719280.03946 -10675522.71144  21742819.5554                   21742816.5904
  -2253575.43015                  24587982.883
    300166.78545    251678.22742  23454051.8984                   23454051.5474
 -11236778.42245  -8696175.95743  22473077.6024                   22473075.4884
 -11113903.84446  -8547583.28144  21452400.2274                   21452397.7344
 -17168504.47746 -13350028.66445  20693726.6484                   20693722.1884
 11  8 15  0 31  0.0000000  0  8G10G17G12G25G09G05G04G02
 -15776417.49446 -12279358.21444  21005762.4774                   21005760.7194
  -1250411.08245   -946496.24643  23049420.5314                   23049419.4574
 -13763958.89546 -10710337.39544  21734317.3204                   21734314.4774
  -2333178.445 5                  24572834.344
    398149.86745    328028.65242  23472698.8914                   23472697.7734
 -11310101.34846  -8753310.64543  22459124.6094                   22459122.5004
 -11017897.67646  -8472773.30943  21470669.6804                   21470667.2854
 -17152752.45346 -13337754.33244  20696723.6804                   20696719.3324
 11  8 15  0 31 30.0000000  0  8G10G17G12G25G09G05G04G02
 -15767572.56647 -12272466.09045  21007445.5634                   21007443.7384
  -1177113.67646   -889381.49243  23063369.3054                   23063367.3404
 -13808236.60947 -10744839.53945  21725891.5234                   21725888.7734
  -2412640.34016                  24557712.125
    496383.56646    404574.28543  23491390.6724                   23491390.3014
 -11383167.78546  -8810245.53144  22445219.2894                   22445218.4844
 -10921687.59847  -8397804.49645  21488977.4924                   21488975.4104
 -17136667.84447 -13325220.91445  20699784.9224                   20699780.0864
 11  8 15  0 32  0.0000000  0  8G10G17G12G25G09G05G04G02
 -15758082.87547 -12265071.52045  21009251.4224                   21009249.4414
  -1103645.13346   -832133.33243  23077350.2034                   23077348.3554
 -13852102.39547 -10779020.66845  21717544.3204                   21717541.2664
  -2491950.35246  -1932745.96152  24542620.2034                   24542621.5634
    594872.78145    481319.04343  23510132.7814                   23510132.7274
 -11455966.53146  -8866971.77044  22431366.5314                   22431365.8794
 -10825267.82446  -8322672.24644  21507325.1804                   21507324.0594
 -17120243.72747 -13312422.89545  20702910.1804                   20702905.8594
 11  8 15  0 32 30.0000000  0  8G10G17G12G25G09G05G04G02
 -15747952.05546 -12257177.31644  21011179.7584                   21011177.8204
  -1030009.53145   -774754.94143  23091362.0164                   23091361.3244
 -13895558.32846 -10812882.38744  21709274.4064                   21709271.8484
  -2571110.52345  -1994429.11742  24527557.6564                   24527557.8094
    693609.86745    558257.04742  23528921.3524                   23528921.9144
 -11528499.25046  -8923490.68043  22417564.0944                   22417562.7274
 -10728644.88346  -8247381.62544  21525711.8054                   21525710.2894
 -17103485.58246 -13299364.55544  20706098.9774                   20706094.7194
 11  8 15  0 33  0.0000000  0  8G10G17G12G25G09G05G04G02
 -15737180.63746 -12248783.98844  21013228.2114                   21013227.1724
   -956207.18445   -717246.67643  23105406.0784                   23105404.9264
 -13938603.37946 -10846423.97344  21701082.8364                   21701080.4224
  -2650119.60545  -2055994.64142  24512522.1174                   24512522.7154
    792590.08245    635384.41042  23547758.3524                   23547757.2074
 -11600764.16846  -8979800.94543  22403813.6414                   22403811.4304
 -10631822.20746  -8171935.43444  21544135.9224                   21544135.4844
 -17086395.77746 -13286047.81245  20709351.5084                   20709346.9184
 11  8 15  0 33 30.0000000  0  8G10G17G12G25G09G05G04G02
 -15725760.75446 -12239885.37544  21015401.7584                   21015400.4224
   -882230.79745   -659602.74643  23119484.8674                   23119482.7814
 -13981228.09046 -10879638.03944  21692971.8054                   21692969.5984
  -2728968.19545  -2117434.99242  24497517.0164                   24497517.9264
    891816.83645    712703.87942  23566640.4144                   23566639.3244
 -11672751.41446  -9035894.84043  22390113.7504                   22390112.1214
 -10534794.84446  -8096329.72343  21562601.4064                   21562599.2584
 -17068968.64846 -13272468.22744  20712667.8754                   20712663.3914
 11  8 15  0 34  0.0000000  0  8G10G17G12G25G09G05G04G02
 -15713697.87147 -12230485.75845  21017697.0234                   21017695.5554
   -808086.26246   -601827.93043  23133592.9614                   23133592.0824
 -14023435.82447 -10912527.20745  21684940.1414                   21684937.8134
  -2807660.08656  -2178753.37153  24482542.7814                   24482543.7974
    991279.97346    790207.56343  23585565.8134                   23585566.5434
 -11744464.23846  -9091774.94944  22376466.9694                   22376466.1524
 -10437571.44547  -8020571.32444  21581101.1884                   21581099.8404
 -17051211.00047 -13258631.12945  20716046.7974                   20716041.9964
 11  8 15  0 34 30.0000000  0  8G10G17G12G25G09G05G04G02
 -15700990.97747 -12220584.26245  21020115.4774                   21020113.9964
   -733772.94546   -543921.47343  23147734.3754                   23147732.4064
 -14065224.49647 -10945089.79745  21676988.4144                   21676985.6214
  -2886192.54745  -2239947.46143  24467598.2584                   24467600.0864
   1090976.59446    867893.17643  23604538.1644                   23604538.6374
 -11815899.82046  -9147438.96944  22362873.5004                   22362871.9614
 -10340154.04747  -7944661.69544  21599639.4304                   21599637.9384
 -17033123.92647 -13244537.30145  20719488.6564                   20719483.9534
 11  8 15  0 35  0.0000000  0  8G10G17G12G25G09G05G04G02
 -15687649.55147 -12210188.34445  21022654.3284                   21022652.6884
   -659299.97346   -485890.66843  23161905.6094                   23161904.9734
 -14106601.98847 -10977331.98045  21669114.0944                   21669111.8984
  -2964572.98445  -2301023.06643  24452682.6254                   24452684.4494
   1190893.35546    945750.31643  23623551.6644                   23623552.7624
 -11887064.84046  -9202892.18444  22349330.8594                   22349329.6884
 -10242554.71547  -7868610.30544  21618212.1724                   21618210.8484
 -17014718.39547 -13230195.32845  20722990.5704                   20722986.7854
 11  8 15  0 35 30.0000000  0  8G10G17G12G25G09G05G04G02
 -15673665.35947 -12199291.55945  21025315.1024                   21025313.7344
   -584659.34046   -427729.18443  23176110.5164                   23176108.4224
 -14147558.02747 -11009245.76645  21661320.6884                   21661318.0234
  -3042791.44145  -2361972.47742  24437799.4064                   24437800.2464
   1291034.16846   1023782.07442  23642608.3054                   23642608.8594
 -11957949.18046  -9258126.67644  22335841.8674                   22335840.8554
 -10144767.85947  -7792412.80144  21636820.4454                   21636819.1134
 -16995987.86347 -13215600.09845  20726555.4144                   20726550.6174
 11  8 15  0 36  0.0000000  0  8G10G17G12G25G09G05G04G02
 -15659039.12147 -12187894.47745  21028098.3674                   21028096.8364
   -509852.06246   -369437.84043  23190345.3834                   23190344.2234
 -14188091.69147 -11040830.43045  21653607.7734                   21653604.4414
  -3120846.92245  -2422794.90242  24422944.7114                   24422946.1254
   1391394.05546   1101984.53943  23661705.3834                   23661706.6994
 -12028551.28146  -9313141.23844  22322406.8444                   22322405.6954
 -10046797.29347  -7716072.14844  21655463.5084                   21655462.0744
 -16976935.29347 -13200753.93745  20730181.1254                   20730176.0944
 11  8 15  0 36 30.0000000  0  8G10G17G12G25G09G05G04G02
 -15643767.14847 -12175994.21945  21031004.6564                   21031003.0664
   -434874.23846   -311013.60543  23204613.7584                   23204611.7704
 -14228197.31247 -11072081.54745  21645975.1954                   21645973.3484
  -3198733.41045  -2483485.66842  24408124.6414                   24408124.5984
   1491973.01646   1180357.68442  23680846.1254                   23680846.1604
 -12098864.85246  -9367930.98044  22309027.1414                   22309025.4654
  -9948641.98446  -7639587.52044  21674141.3444                   21674140.4304
 -16957558.19147 -13185654.89545  20733868.6414                   20733864.1294
 11  8 15  0 37  0.0000000  0  8G10G17G12G25G09G05G04G02
 -15627847.19146 -12163589.03144  21034034.2114                   21034032.3444
   -359723.93045   -252454.94143  23218913.3984                   23218912.5164
 -14267870.90646 -11102995.98044  21638425.1954                   21638423.4304
  -3276446.85545  -2544041.57042  24393337.5554                   24393335.7624
   1592769.21545   1258900.15642  23700026.6174                   23700027.5634
 -12168885.68746  -9422492.58244  22295703.1484                   22295700.4344
  -9850301.98046  -7562958.96143  21692855.8284                   21692854.3094
 -16937855.96146 -13170302.47745  20737617.7894                   20737612.7774
 11  8 15  0 37 30.0000000  0  8G10G17G12G25G09G05G04G02
 -15611273.46146 -12150674.43744  21037188.5864                   21037186.6024
   -284395.16445   -193757.28943  23233248.7504                   23233246.9454
 -14307104.81646 -11133567.84844  21630959.4844                   21630957.3094
                                  24378582.9144                   24378581.0124
   1693784.14545   1337613.03542  23719249.8284                   23719249.3364
 -12238605.25446  -9476819.47344  22282434.8204                   22282433.5634
  -9751774.43746  -7486184.30543  21711604.7344                   21711603.3244
 -16917824.39846 -13154693.47745  20741429.1414                   20741424.6884
 11  8 15  0 38  0.0000000  0  8G10G17G12G25G09G05G04G02
 -15594045.42246 -12137249.98044  21040466.2734                   21040464.7814
   -208887.35245   -134920.07843  23247617.1414                   23247615.5664
 -14345896.94146 -11163795.46944  21623577.7974                   21623575.5434
  -3431328.82845  -2664728.84842  24363862.4534                   24363861.4964
   1795014.72345   1416493.94142  23738512.8284                   23738513.1414
 -12308021.01646  -9530909.61344  22269225.8134                   22269224.3834
  -9653061.58246  -7409265.24244  21730388.9304                   21730387.6214
 -16897464.95346 -13138828.97745  20745303.5394                   20745298.8984
 11  8 15  0 38 30.0000000  0  8G10G17G12G25G09G05G04G02
 -15576158.13346 -12123311.80544  21043870.8914                   21043868.6094
   -133195.96145    -75939.80142  23262020.7424                   23262019.2194
 -14384240.51646 -11193673.52744  21616281.7194                   21616278.5554
  -3508487.93045  -2724852.78942  24349180.7114                   24349179.3164
   1896461.73445   1495543.48042  23757816.9694                   23757817.2584
 -12377125.58246  -9584757.26244  22256075.7584                   22256074.1334
  -9554160.95346  -7332199.82843  21749209.8834                   21749208.0864
 -16876774.16846 -13122706.25044  20749240.5004                   20749236.0634
 11  8 15  0 39  0.0000000  0  8G10G17G12G25G09G05G04G02
 -17133042.57846 -13336468.48844  20747605.5864                   20747603.4574
  -1632749.52745  -1244423.14143  22976666.1484                   22976663.6604
 -15997566.45346 -12450810.59444  21309275.5784                   21309272.9734
  -5160888.77045  -4012437.80142  24034738.1414                   24034738.0514
    422693.14845    347152.35542  23477369.0864                   23477369.5744
 -14021350.43046 -10865971.36344  21943189.3204                   21943187.9734
 -11030503.32446  -8482596.50043  21468270.7194                   21468269.0514
 -18431184.36346 -14333934.96944  20453446.2424                   20453441.6804
 11  8 15  0 39 30.0000000  0  8G10G17G12G25G09G05G04G02
 -17113849.54746 -13321512.88744  20751257.9384                   20751255.3674
  -1556702.57845  -1185165.82043  22991136.4384                   22991134.4494
 -16035019.50846 -12479994.78544  21302148.7274                   21302146.0204
  -5237673.53945  -4072270.11742  24020127.1954                   24020127.4574
    524548.81345    426520.27742  23496751.7894                   23496751.4384
 -14089837.72346 -10919338.04743  21930156.7584                   21930155.2304
 -10931247.32446  -8405254.23843  21487159.4534                   21487157.1564
 -18409847.85246 -14317309.13344  20457507.7894                   20457502.3484
 11  8 15  0 40  0.0000000  0  8G10G17G12G25G09G05G04G02
 -17094002.16846 -13306047.38744  20755035.0634                   20755032.5354
  -1480476.40245  -1125768.87942  23005642.6644                   23005640.2854
 -16072023.05146 -12508828.68044  21295106.8364                   21295104.3404
  -5314266.44945  -4131952.78542  24005552.2894                   24005552.4844
    626604.41845    506044.03942  23516173.4924                   23516172.2624
 -14158011.17646 -10972460.14543  21917183.6644                   21917182.5204
 -10831816.02746  -8327775.32043  21506079.0704                   21506078.3634
 -18388189.56246 -14300432.52344  20461628.4694                   20461623.7774
 11  8 15  0 40 30.0000000  0  8G10G17G12G25G09G05G04G02
 -17073503.65246 -13290074.49244  20758935.6724                   20758933.1334
  -1404073.93045  -1066234.53142  23020181.6724                   23020178.8674
 -16108578.08246 -12537313.10244  21288151.3364                   21288148.0164
  -5390668.40645  -4191486.73842  23991013.0474                   23991012.5044
    728853.03945    585718.25842  23535628.9844                   23535628.9924
 -14225871.64846 -11025338.36343  21904270.5164                   21904269.0944
 -10732214.85946  -8250164.02343  21525034.1094                   21525031.7974
 -18366213.92646 -14283308.63344  20465810.2814                   20465805.1334
 11  8 15  0 41  0.0000000  0  8G10G17G12G25G09G05G04G02
 -17052350.88347 -13273591.85544  20762960.7504                   20762958.4414
  -1327492.02746  -1006560.40643  23034754.7344                   23034752.2154
 -16144680.33646 -12565444.75445  21281280.7974                   21281277.9844
  -5466874.40645  -4250868.05943  23976510.5164                   23976511.6804
    831293.83245    665542.08643  23555122.4304                   23555123.4454
 -14293413.57846 -11077968.44544  21891417.5004                   21891415.9064
 -10632443.31646  -8172420.07044  21544019.2034                   21544017.9144
 -18343919.52347 -14265936.44545  20470052.8054                   20470047.9774
 11  8 15  0 41 30.0000000  0  8G10G17G12G25G09G05G04G02
 -17030549.84847 -13256604.04344  20767108.8594                   20767107.1454
  -1250736.43746   -946750.91843  23049361.5084                   23049358.6374
 -16180332.99246 -12593226.01645  21274496.3134                   21274493.6844
  -5542887.91445  -4310099.28943  23962045.3134                   23962047.1564
    933917.32445    745508.35942  23574652.2194                   23574652.5314
 -14360640.08646 -11130352.68444  21878624.6804                   21878623.3204
 -10532509.72346  -8094549.76244  21563035.8134                   21563034.2814
 -18321313.64547 -14248321.46945  20474354.2974                   20474349.6134
 11  8 15  0 42  0.0000000  0  8G10G17G12G25G09G05G04G02
 -17008095.91446 -13239107.45344  20771382.2504                   20771379.7814
  -1173802.27345   -886802.23443  23063999.8754                   23063999.1884
 -16215529.76646 -12620652.05944  21267799.1094                   21267795.5204
  -5618701.90645  -4369175.06643  23947619.1724                   23947620.3164
   1036724.57045    825617.81342  23594214.9774                   23594215.3404
 -14427544.19546 -11182485.68744  21865893.7274                   21865891.6914
 -10432411.39146  -8016551.08244  21582083.7274                   21582082.9224
 -18298392.85946 -14230461.11745  20478715.9694                   20478711.6604
 11  8 15  0 42 30.0000000  0  8G10G17G12G25G09G05G04G02
 -16984992.32846 -13221104.66844  20775778.6644                   20775776.6994
  -1096692.62545   -826716.87143  23078674.6024                   23078672.5394
 -16250271.89846 -12647723.82444  21261187.4844                   21261184.1954
  -5694317.42245  -4428096.15243  23933230.3834                   23933231.3954
   1139708.42645    905864.90642  23613813.2194                   23613812.5004
 -14494126.44146 -11234367.91444  21853223.5474                   21853221.4064
 -10332154.11746  -7938428.56244  21601162.4924                   21601160.9964
 -18275161.93446 -14212359.09445  20483136.9774                   20483132.2034
 11  8 15  0 43  0.0000000  0  8G10G17G12G25G09G05G04G02
 -16961235.50446 -13202592.84044  20780299.6644                   20780297.3554
  -1019403.21145   -766491.35243  23093381.9774                   23093380.8164
 -16284553.92246 -12674437.07044  21254663.1484                   21254660.8364
  -5769728.74645  -4486858.15643  23918880.2194                   23918880.6684
   1242868.57045    986249.30142  23633443.6024                   23633443.3674
 -14560380.99646 -11285994.79744  21840615.5164                   21840613.7304
 -10231736.85946  -7860181.37544  21620270.5704                   21620269.4774
 -18251618.82446 -14194013.81245  20487616.0474                   20487612.1454
 11  8 15  0 43 30.0000000  0  8G10G17G12G25G09G05G04G02
 -16936827.13746 -13183573.32444  20784943.7114                   20784941.5784
   -941935.95345   -706127.30543  23108122.5164                   23108122.0744
 -16318375.39146 -12700791.45745  21248227.4454                   21248225.0474
  -5844935.02745  -4545460.45343  23904568.2504                   23904569.1884
   1346199.96145   1066767.23442  23653106.7814                   23653107.9144
 -14626306.66446 -11337365.37144  21828070.5944                   21828068.0004
 -10131163.08646  -7781812.21944  21639410.0704                   21639408.4654
 -18227766.64146 -14175427.69545  20492155.3524                   20492150.7114
 11  8 15  0 44  0.0000000  0  8G10G17G12G25G09G05G04G02
 -16911761.19946 -13164041.43044  20789713.9144                   20789711.7194
   -864284.72745   -645619.86343  23122900.0164                   23122898.2154
 -16351728.23046 -12726780.66444  21241881.3444                   21241878.4264
  -5919927.84445  -4603896.30942  23890297.9304                   23890298.0314
   1449705.11345   1147420.46142  23672803.1174                   23672804.1764
 -14691894.76246 -11388472.95344  21815589.0474                   21815587.2034
 -10030429.37946  -7703318.46143  21658579.7974                   21658576.7344
 -18203600.62946 -14156597.02345  20496754.1254                   20496749.7774
 11  8 15  0 44 30.0000000  0  8G10G17G12G25G09G05G04G02
 -16886030.02746 -13143991.14844  20794610.7504                   20794608.1994
   -786440.91845   -584962.40243  23137713.3524                   23137712.1454
 -16384602.55546 -12752397.00444  21235625.5474                   21235622.0594
  -5994696.98445  -4662157.97342  23876070.1484                   23876069.5474
   1553387.77355   1228212.09052  23692534.1024                   23692534.0744
 -14757134.93046 -11439309.39144  21803174.5234                   21803172.8054
  -9929530.02346  -7624695.59043  21677779.5234                   21677777.6604
 -18179114.22346 -14137516.69945  20501413.5944                   20501409.3444
 11  8 15  0 45  0.0000000  0  8G10G17G12G25G09G05G04G02
 -16859641.80946 -13123428.94544  20799632.2034                   20799630.2234
   -708412.33246   -524160.99243  23152561.0164                   23152559.9064
 -16417004.03546 -12777644.96545  21229459.3754                   21229456.8244
  -6069247.90645  -4720249.53142  23861882.0784                   23861882.4144
   1657236.68455   1309133.19552  23712296.2424                   23712296.5394
 -14822032.04346 -11489878.56644  21790824.4694                   21790822.7504
  -9828474.59846  -7545951.16444  21697009.1884                   21697007.8204
 -18154316.71147 -14118194.01245  20506132.6954                   20506128.1374
 11  8 15  0 45 30.0000000  0  8G10G17G12G25G09G05G04G02
 -16832599.88346 -13102357.25844  20804776.9224                   20804775.6294
   -630202.09045   -463217.96143  23167445.1414                   23167442.3714
 -16448934.49646 -12802525.80144  21223383.0394                   21223380.1724
  -6143581.67245  -4778171.87142  23847738.9304                   23847737.3524
   1761244.78945   1390178.49242  23732087.2274                   23732088.4224
 -14886587.14846 -11540181.16044  21778539.6484                   21778539.5124
  -9727269.16446  -7467089.77343  21716269.2344                   21716266.9534
 -18129212.58646 -14098632.31245  20510910.2194                   20510905.5474
 11  8 15  0 46  0.0000000  0  8G10G17G12G25G09G05G04G02
 -16804903.80546 -13080775.90644  20810047.2814                   20810046.1174
   -551808.87945   -402132.37942  23182361.9534                   23182360.7774
 -16480391.17646 -12827037.50444  21217396.3984                   21217394.0864
  -6217695.04345  -4835922.55942  23833634.1724                   23833633.9144
   1865409.41445   1471345.59842  23751909.8524                   23751910.6134
 -14950797.26646 -11590214.97344  21766321.3594                   21766319.5904
  -9625915.16046  -7388112.64843  21735555.2344                   21735553.8054
 -18103802.91846 -14078832.57445  20515745.5944                   20515740.6724
 11  8 15  0 46 30.0000000  0  8G10G17G12G25G09G05G04G02
 -16776552.59446 -13058684.03944  20815443.2114                   20815441.3444
   -473231.46145   -340903.23842  23197314.6484                   23197313.6954
 -16511370.61346 -12851177.32444  21211501.6024                   21211498.6844
  -6291584.47345  -4893498.66042  23819574.2664                   23819573.7624
   1969727.82845   1552632.62142  23771760.7894                   23771761.7504
 -15014658.21946 -11639976.68444  21754169.1174                   21754167.5944
  -9524413.42246  -7309020.38343  21754870.8444                   21754869.3404
 -18078087.78946 -14058794.80145  20520638.0554                   20520634.3834
 11  8 15  0 47  0.0000000  0  8G10G17G12G25G09G05G04G02
 -16747544.36346 -13036080.21544  20820963.8674                   20820961.2894
   -394467.78545   -279528.98443  23212304.0314                   23212301.3634
 -16541868.82046 -12874942.16844  21205698.5634                   21205694.8984
  -6365245.69945  -4950896.93042  23805557.1804                   23805556.8134
   2074198.41845   1634038.23442  23791640.5164                   23791641.6564
 -15078165.79746 -11689463.04744  21742083.4774                   21742082.3164
  -9422764.25846  -7229813.27343  21774213.2814                   21774212.5864
 -18052066.66846 -14038518.60244  20525590.0944                   20525585.9104
 11  8 15  0 47 30.0000000  0  8G10G17G12G25G09G05G04G02
 -16717882.92246 -13012967.43444  20826607.6564                   20826605.3524
   -315520.94945   -218012.02742  23227326.7114                   23227324.3874
 -16571887.93446 -12898333.71545  21199986.9064                   21199982.7384
  -6438679.87545  -5008118.35942  23791582.7814                   23791582.4264
   2178814.11745   1715556.85542  23811548.4384                   23811548.7464
 -15141320.73846 -11738674.67644  21730066.4064                   21730064.6524
  -9320973.35246  -7150495.73044  21793584.1254                   21793582.9414
 -18025744.35246 -14018007.73045  20530598.9534                   20530594.7504
 11  8 15  0 48  0.0000000  0  8G10G17G12G25G09G05G04G02
 -16687565.73846 -12989343.65644  20832377.2424                   20832375.0044
   -236388.03945   -156350.10942  23242384.7584                   23242383.1254
 -16601423.25446 -12921348.26644  21194365.8754                   21194362.3914
  -6511881.59845  -5065158.64142  23777652.2034                   23777652.1524
   2283574.08645   1797187.94942  23831483.0084                   23831484.0594
 -15204117.69146 -11787607.32044  21718115.9614                   21718114.7504
  -9219039.94946  -7071067.15643  21812981.8204                   21812980.0204
 -17999119.33246 -13997260.95745  20535666.0084                   20535661.2074
 11  8 15  0 48 30.0000000  0  8G10G17G12G25G09G05G04G02
 -16656594.50046 -12965210.22344  20838270.5704                   20838268.2664
   -157070.21545    -94544.05543  23257478.5704                   23257476.9024
 -16630473.76646 -12943985.03545  21188837.5394                   21188834.4574
  -6584850.02046  -5122017.11343  23763766.8284                   23763766.7974
   2388473.39145   1878927.61742  23851445.0394                   23851445.8444
 -15266555.59846 -11836260.19144  21706234.6254                   21706232.6484
  -9116967.49246  -6991530.19543  21832404.3284                   21832403.5004
 -17972194.49646 -13976280.56645  20540789.5944                   20540785.2304
 11  8 15  0 49  0.0000000  0  8G10G17G12G25G09G05G04G02
 -16624967.87946 -12940566.10244  20844288.5234                   20844287.0004
    -77565.40245    -32592.31642  23272607.9534                   23272606.4224
 -16659035.78946 -12966241.17245  21183402.1884                   21183399.3834
  -6657580.71146  -5178690.36342  23749926.2974                   23749926.6724
   2493510.33645   1960774.55142  23871433.3134                   23871434.3164
 -15328629.78546 -11884629.63744  21694422.1644                   21694420.3674
  -9014756.40246  -6911885.20744  21851855.4384                   21851853.5984
 -17944969.26646 -13955066.09845  20545970.0394                   20545965.7774
 11  8 15  0 49 30.0000000  0  8G10G17G12G25G09G05G04G02
 -16592691.69946 -12915415.82444  20850430.8594                   20850428.8094
      2121.73445     29501.49242  23287770.2424                   23287770.0664
 -16687113.14546 -12988119.64544  21178059.1564                   21178056.4694
  -6730076.97746  -5235180.91843  23736131.0394                   23736131.2814
   2598675.44945   2042721.34842  23891445.8134                   23891446.3984
 -15390343.80446 -11932718.42444  21682678.4454                   21682676.2304
  -8912414.32846  -6832138.18744  21871330.2274                   21871329.2344
 -17917450.62546 -13933623.00445  20551207.0084                   20551202.4264
 11  8 15  0 50  0.0000000  0  8G10G17G12G25G09G05G04G02
 -16559764.68446 -12889758.42644  20856696.5394                   20856694.1684
     81992.34445     91738.29343  23302970.6254                   23302968.3794
 -16714702.08646 -13009617.51645  21172809.5864                   21172806.1414
  -6802334.46546  -5291485.41043  23722380.9224                   23722380.7274
   2703967.35245   2124766.96942  23911481.7194                   23911482.4304
 -15451692.61346 -11980522.64844  21671003.2584                   21671002.5904
  -8809941.59046  -6752289.33643  21890830.3594                   21890829.1414
 -17889638.36747 -13911951.11745  20556499.1724                   20556494.8444
 11  8 15  0 50 30.0000000  0  8G10G17G12G25G09G05G04G02
 -16526187.33246 -12863594.24644  20863085.8834                   20863083.3914
    162046.75845    154118.33643  23318203.9064                   23318203.5234
 -16741800.89546 -13030733.47345  21167653.0234                   21167650.2774
  -6874350.91445  -5347602.09443  23708677.0474                   23708677.0704
   2809382.33645   2206908.43442  23931541.7424                   23931542.5394
 -15512673.87146 -12028040.46544  21659399.7034                   21659398.0394
  -8707340.18246  -6672340.22743  21910354.6024                   21910353.3284
 -17861533.69946 -13890051.37545  20561846.6804                   20561843.0164
 11  8 15  0 51  0.0000000  0  8G10G17G12G25G09G05G04G02
 -16491959.96146 -12836923.57044  20869598.9534                   20869597.0944
    242285.71545    216642.11343  23333473.2894                   23333472.0664
 -16768407.44546 -13051465.84845  21162589.2034                   21162586.8594
  -6946123.65645  -5403528.84443  23695017.8444                   23695019.0164
   2914916.90245   2289143.14842  23951624.0234                   23951624.6724
 -15573285.30146 -12075270.09844  21647865.7584                   21647864.3324
  -8604612.19946  -6592292.44943  21929902.8444                   21929901.4414
 -17833138.07446 -13867924.91445  20567250.9774                   20567246.6994
 11  8 15  0 51 30.0000000  0  8G10G17G12G25G09G05G04G02
 -16457080.55146 -12809744.80144  20876236.8364                   20876235.1684
    322711.51245    279311.53943  23348779.4384                   23348776.6254
 -16794517.96946 -13071811.68044  21157620.5314                   21157618.2234
  -7017648.32445  -5459262.32842  23681408.1644                   23681407.5554
   3020569.48445   2371469.75842  23971730.1414                   23971730.1764
 -15633522.33646 -12122207.98444  21636403.0084                   21636401.0664
  -8501757.67646  -6512146.11343  21949476.3834                   21949474.5124
 -17804450.64846 -13845571.07045  20572709.6094                   20572705.7194
 11  8 15  0 52  0.0000000  0  8G10G17G12G25G09G05G04G02
 -16421546.85546 -12782056.21544  20882998.6334                   20882996.6564
    403327.37945    342129.05942  23364118.3284                   23364116.8014
 -16820127.36746 -13091767.05544  21152747.2584                   21152744.5944
  -7088919.28945  -5514798.09043  23667845.9534                   23667846.1684
   3126339.65245   2453887.96542  23991857.3594                   23991857.0434
 -15693379.15646 -12168849.62544  21625011.1094                   21625010.3324
  -8398775.52746  -6431900.30543  21969073.1174                   21969071.2114
 -17775469.86346 -13822988.64145  20578224.5704                   20578220.4804
 11  8 15  0 52 30.0000000  0  8G10G17G12G25G09G05G04G02
 -16385357.82046 -12753856.97744  20889884.7504                   20889883.2074
    484134.62145    405095.69143  23379496.1174                   23379494.3164
 -16845232.51246 -13111329.50444  21147969.9694                   21147967.4734
  -7159932.63345  -5570133.11743  23654331.6644                   23654332.6174
   3232225.58255   2536396.43852  24012006.8984                   24012006.8364
 -15752851.74246 -12215191.85544  21613694.5084                   21613693.4224
  -8295666.14846  -6351555.38743  21988693.8754                   21988692.4104
 -17746195.53946 -13800177.48445  20583796.2114                   20583791.2234
 11  8 15  0 53  0.0000000  0  8G10G17G12G25G09G05G04G02
 -16348524.94546 -12725156.02744  20896893.7974                   20896892.4104
    565123.17645    468203.60243  23394906.9844                   23394906.2934
 -16869842.30946 -13130505.95345  21143287.7194                   21143284.3244
  -7230696.87545  -5625274.04743  23640866.6564                   23640866.4534
   3338212.43045   2618983.46942  24032176.2114                   24032175.5784
 -15811948.88746 -12261241.53544  21602448.8914                   21602447.5984
  -8192442.65246  -6271121.53143  22008336.7274                   22008335.5824
 -17716640.12146 -13777147.29345  20589419.2974                   20589415.3594
 11  8 15  0 53 30.0000000  0  8G10G17G12G25G09G05G04G02
 -16311045.72746 -12695951.46144  20904026.4614                   20904024.3364
    646296.10945    531455.19943  23410354.1254                   23410353.1644
 -16893951.96546 -13149292.69545  21138699.1804                   21138696.3444
  -7301206.22745  -5680216.36343  23627448.1254                   23627449.0664
   3444299.88745   2701648.96542  24052363.1174                   24052363.9694
 -15870664.36746 -12306993.82444  21591275.8364                   21591274.0864
  -8089103.73846  -6190597.72343  22028001.3984                   22028000.0554
 -17686801.89846 -13753896.72345  20595098.2424                   20595093.6024
 11  8 15  0 54  0.0000000  0  8G10G17G12G25G09G05G04G02
 -16272917.69546 -12666241.30944  20911281.3134                   20911279.7854
    727656.90645    594853.19543  23425836.2504                   23425835.3524
 -16917556.46946 -13167685.81644  21134206.6564                   21134204.4924
  -7371455.20745  -5734955.82043  23614080.0554                   23614080.8134
   3550487.61745   2784392.53142  24072569.9614                   24072570.6564
 -15928992.76646 -12352444.46144  21580175.8134                   21580174.6484
  -7985648.37146  -6109983.19143  22047688.2424                   22047687.1214
 -17656678.77046 -13730424.16045  20600830.2034                   20600825.8164
 11  8 15  0 54 30.0000000  0  8G10G17G12G25G09G05G04G02
 -16234141.43746 -12636026.04344  20918660.7034                   20918658.6684
    809206.11346    658397.96943  23441355.6094                   23441353.8164
 -16940654.08646 -13185683.95745  21129811.9844                   21129809.5704
  -7441441.31645  -5789490.43742  23600763.2894                   23600762.9774
   3656772.02345   2867211.46142  24092795.8914                   24092795.4774
 -15986931.62146 -12397591.58644  21569150.7974                   21569149.3484
  -7882078.53146  -6029279.45344  22067396.7424                   22067396.4224
 -17626272.27047 -13706730.79745  20606615.5634                   20606611.9064
 11  8 15  0 55  0.0000000  0  8G10G17G12G25G09G05G04G02
 -16194726.20746 -12605312.87544  20926160.9614                   20926159.1644
    890934.80945    722082.61343  23456907.5554                   23456906.6764
 -16963251.78147 -13203292.53545  21125511.7894                   21125509.1174
  -7511170.89546  -5843825.15243  23587493.0944                   23587493.7234
   3763141.21545   2950096.45742  24113035.5634                   24113037.6334
 -16044487.28946 -12442440.11744  21558197.9924                   21558196.9494
  -7778405.03146  -5948494.94943  22087125.3914                   22087124.2504
 -17595592.41847 -13682824.42245  20612454.6724                   20612449.7934
 11  8 15  0 55 30.0000000  0  8G10G17G12G25G09G05G04G02
 -16154663.50046 -12574095.17644  20933784.6174                   20933782.5744
    972852.37145    785914.46143  23472495.8524                   23472494.7074
 -16985338.62147 -13220503.05545  21121307.9844                   21121306.0824
  -7580632.21946  -5897950.85543  23574275.2814                   23574275.7234
   3869600.80545   3033051.88342  24133295.2424                   24133296.5944
 -16101647.96146 -12486980.85945  21547320.8834                   21547319.5514
  -7674620.30946  -5867623.77043  22106874.7274                   22106873.8484
 -17564631.60247 -13658699.11345  20618345.9534                   20618341.6024
 11  8 15  0 56  0.0000000  0  8G10G17G12G25G09G05G04G02
 -16113950.62146 -12542370.84844  20941531.9064                   20941530.6764
   1054962.53545    849896.34043  23488120.9384                   23488119.8204
 -17006908.90646 -13237311.06245  21117203.9454                   21117201.4734
  -7649819.12546  -5951862.72743  23561110.1954                   23561110.6564
   3976150.52345   3116077.58242  24153571.2894                   24153572.1764
 -16158407.44946 -12531208.98844  21536520.3674                   21536518.2304
  -7570723.12546  -5786664.94943  22126644.6414                   22126644.4064
 -17533387.38347 -13634352.96945  20624291.7344                   20624287.3284
 11  8 15  0 56 30.0000000  0  8G10G17G12G25G09G05G04G02
 -16072599.23846 -12510148.99244  20949401.2584                   20949398.7814
   1137254.79745    914020.15643  23503780.8134                   23503780.0394
 -17027972.65646 -13253724.37545  21113195.4304                   21113192.4574
  -7718740.42246  -6005567.62143  23547994.8524                   23547994.6214
   4082776.23845   3199162.44142  24173861.5234                   24173862.3364
 -16214774.48446 -12575131.30144  21525794.3984                   21525792.1804
  -7466726.11746  -5705628.35943  22146435.3984                   22146434.8404
 -17501872.46947 -13609795.89145  20630288.6414                   20630284.3874
 11  8 15  0 57  0.0000000  0  8G10G17G12G25G09G05G04G02
 -16030600.68746 -12477422.84044  20957393.1094                   20957391.1764
   1219738.97745    978293.47343  23519476.5784                   23519476.7034
 -17048518.32046 -13269733.98445  21109285.8444                   21109282.8444
  -7787383.85546  -6059056.02043  23534931.5704                   23534932.2544
   4189483.73045   3282311.02342  24194166.8284                   24194168.2734
 -16270737.40646 -12618738.74244  21515144.0554                   21515142.5234
  -7362621.95346  -5624508.26643  22166246.4144                   22166244.4844
 -17470078.49647 -13585021.36745  20636339.2344                   20636334.3014
 11  8 15  0 57 30.0000000  0  8G10G17G12G25G09G05G04G02
 -15987955.69946 -12444192.98044  20965508.3524                   20965505.6844
   1302415.07045   1042716.35243  23535209.7274                   23535208.9844
 -17068544.12946 -13285338.50045  21105475.4924                   21105472.5704
  -7855747.01246  -6112326.00043  23521923.1334                   23521923.0084
   4296269.78145   3365520.85942  24214488.3054                   24214488.7584
 -16326293.35546 -12662029.04345  21504572.1804                   21504570.5434
  -7258412.45346  -5543306.09443  22186077.3754                   22186075.5164
 -17438006.79347 -13560030.43045  20642441.6884                   20642437.4064
 11  8 15  0 58  0.0000000  0  8G10G17G12G25G09G05G04G02
 -15944665.40646 -12410460.25844  20973746.1334                   20973744.0004
   1385283.40245   1107289.04343  23550980.0084                   23550978.4614
 -17088048.44146 -13300536.66844  21101763.0394                   21101761.2774
  -7923827.42645  -6165375.63743  23508966.8204                   23508967.8324
   4403130.74245   3448788.99642  24234824.2274                   24234824.4694
 -16381440.04346 -12705000.43744  21494077.4614                   21494076.2774
  -7154099.74646  -5462023.47343  22205926.8754                   22205925.8674
 -17405658.81646 -13534824.21945  20648597.5704                   20648593.0984
 11  8 15  0 58 30.0000000  0  8G10G17G12G25G09G05G04G02
 -15900732.94546 -12376227.17244  20982106.2664                   20982104.3594
   1468341.59445   1172009.69543  23566785.3204                   23566783.4384
 -17107031.72746 -13315328.82844  21098150.5704                   21098148.7114
  -7991624.93745  -6218204.84442  23496066.2194                   23496066.5394
   4510060.82045   3532111.07842  24255171.7114                   24255172.7074
 -16436177.55146 -12747652.98044  21483661.6484                   21483660.2974
  -7049687.73446  -5380663.50043  22225796.0634                   22225794.0984
 -17373038.37146 -13509405.69145  20654804.9454                   20654801.0004
 11  8 15  0 59  0.0000000  0  8G10G17G12G25G09G05G04G02
 -15856159.75846 -12341494.78944  20990588.1724                   20990585.7894
   1551589.14545   1236877.89842  23582628.7274                   23582625.3284
 -17125493.12146 -13329714.32044  21094637.7034                   21094635.3714
  -8059138.01245  -6270812.39542  23483218.9694                   23483219.0394
                                  24275532.008
 -16490504.53146 -12789985.61744  21473324.2814                   21473322.3244
  -6945179.12945  -5299228.22343  22245683.5004                   22245681.5164
 -17340147.54746 -13483776.44544  20661064.2034                   20661059.9144
 11  8 15  0 59 30.0000000  0  8G10G17G12G25G09G05G04G02
 -15810944.39146 -12306262.03543  20999191.6644                   20999190.0864
   1635028.59045   1301895.53942  23598505.4384                   23598503.0354
 -17143429.09046 -13343690.41044  21091224.7584                   21091222.5664
  -8126361.64545  -6323194.40642  23470426.4694                   23470426.9264
                                  24295905.969
 -16544415.60246 -12831994.21544  21463065.0944                   21463063.4144
  -6840573.70345  -5217717.53143  22265589.5394                   22265586.9264
 -17306985.63346 -13457936.01244  20667374.8204                   20667370.1094
 11  8 15  1  0  0.0000000  0  8G10G17G12G25G09G05G04G02
 -15765085.94146 -12270528.21144  21007919.2194                   21007917.3444
   1718661.93845   1367064.35942  23614419.2274                   23614417.9614
 -17160835.85546 -13357254.16044  21087913.1414                   21087910.0594
  -8193291.75845  -6375347.69942  23457689.2584                   23457690.4414
   4831235.85515                  24316289.781
 -16597906.75846 -12873675.61344  21452885.9224                   21452884.0274
  -6735871.41446  -5136131.39543  22285512.1414                   22285511.4844
 -17273552.22746 -13431884.03945  20673736.6804                   20673732.3444
 11  8 15  1  0 30.0000000  0  8G10G17G12G25G09G05G04G02
 -15718585.55146 -12234294.14144  21016767.8594                   21016765.4534
   1802489.65645   1432384.62142  23630370.6884                   23630369.9844
 -17177712.28946 -13370404.63344  21084700.9534                   21084698.5274
  -8259925.76645  -6427270.31242  23445010.5784                   23445010.2584
   4938415.633 5                  24336684.672
 -16650975.71546 -12915028.00844  21442786.8594                   21442785.2344
  -6631073.91846  -5054471.03543  22305455.0634                   22305454.1914
 -17239848.50446 -13405621.41845  20680150.3524                   20680145.7464
 11  8 15  1  1  0.0000000  0  8G10G17G12G25G09G05G04G02
 -15671444.02046 -12197560.48844  21025738.3054                   21025735.9884
   1886511.59845   1497856.23442  23646360.5394                   23646358.1024
 -17194056.27746 -13383140.21945  21081590.5864                   21081588.7424
  -8326261.00445  -6478960.07043  23432386.1334                   23432386.7894
   5045650.94915                  24357091.922
 -16703620.23846 -12956049.68444  21432769.2584                   21432767.1094
  -6526183.26646  -4972738.10543  22325415.8914                   22325414.4104
 -17205875.60246 -13379149.03545  20686615.1804                   20686610.4024
 11  8 15  1  1 30.0000000  0  8G10G17G12G25G09G05G04G02
 -15623671.17646 -12160334.89544  21034828.9774                   21034827.1214
   1970719.53545   1563472.75843  23662384.7814                   23662382.5904
 -17209874.90246 -13395466.43445  21078581.2664                   21078578.2894
  -8392303.76245  -6530421.93043  23419818.9694                   23419819.2234
   5152929.48814                  24377506.063
 -16755845.79346 -12996744.88344  21422831.2664                   21422829.1054
  -6421209.73446  -4890940.59443  22345391.0394                   22345389.6644
 -17171643.72746 -13352474.86345  20693129.3834                   20693124.9734
 11  8 15  1  2  0.0000000  0  8G10G17G12G25G09G05G04G02
 -15575267.15646 -12122617.49244  21044040.0234                   21044038.3364
   2055114.55545   1629235.10542  23678445.0784                   23678442.7664
 -17225165.89546 -13407381.50044  21075671.1414                   21075668.7704
  -8458050.46545  -6581653.07043  23407306.9224                   23407308.4884
   5260249.117 4                  24397927.445
 -16807650.40646 -13037112.07044  21412972.5784                   21412970.9884
  -6316154.27746  -4809079.22343  22365382.5004                   22365380.8284
 -17137153.26246 -13325599.18745  20699692.8754                   20699687.8754
 11  8 15  1  2 30.0000000  0  8G10G17G12G25G09G05G04G02
 -15526232.02046 -12084408.30544  21053371.4144                   21053368.9264
   2139697.57045   1695143.91042  23694540.4774                   23694537.8984
 -17239926.63346 -13418883.38344  21072862.2424                   21072859.5664
  -8523497.86745  -6632651.00843  23394853.0314                   23394853.9304
                                  24418356.758
 -16859030.28946 -13077148.29344  21403195.3914                   21403193.7704
  -6211017.82446  -4727154.75043  22385390.0234                   22385387.8674
 -17102404.81246 -13298522.48845  20706305.2504                   20706300.2074
 11  8 15  1  3  0.0000000  0  8G10G17G12G25G09G05G04G02
 -15476559.80146 -12045702.66844  21062823.5864                   21062821.2034
   2224476.15245   1761205.13742  23710673.0314                   23710671.0394
 -17254148.54346 -13429965.38744  21070155.8834                   21070153.0824
  -8588636.37945  -6683408.25443  23382458.3594                   23382458.9224
                                  24438794.602
 -16909975.63746 -13116845.92244  21393501.0554                   21393499.1484
  -6105795.08246  -4645163.03943  22405412.6174                   22405411.4494
 -17067392.66846 -13271240.28944  20712967.8204                   20712963.4534
 11  8 15  1  3 30.0000000  0  8G10G17G12G25G09G05G04G02
 -15426253.32446 -12006502.84044  21072396.4774                   21072394.3364
   2309448.27045   1827417.12142  23726842.8834                   23726841.2774
 -17267831.81246 -13440627.70744  21067552.3984                   21067549.6214
  -8653465.09445  -6733924.13743  23370122.7584                   23370121.4344
                                  24459240.398
 -16960486.22446 -13156204.79644  21383888.6954                   21383887.4884
  -6000489.39546  -4563106.72743  22425452.7584                   22425450.8244
 -17032119.79346 -13243754.97345  20719679.9454                   20719674.9884
 11  8 15  1  4  0.0000000  0  8G10G17G12G25G09G05G04G02
 -15375321.66846 -11966815.85244  21082088.7424                   21082086.2194
   2394606.44145   1893774.12942  23743046.2974                   23743046.0664
 -17280983.14146 -13450875.50045  21065049.6334                   21065046.8554
  -8717989.78146  -6784203.08243  23357843.2504                   23357843.8674
   5689907.125 4                  24479690.422
 -17010567.85246 -13195229.39144  21374358.3134                   21374357.0394
  -5895110.84446  -4480993.60243  22445504.2274                   22445503.5234
 -16996595.69546 -13216073.87545  20726440.1174                   20726435.6644
 11  8 15  1  4 30.0000000  0  8G10G17G12G25G09G05G04G02
 -15323760.64846 -11926638.44944  21091900.3524                   21091897.9224
   2479956.17245   1960280.41442  23759288.7274                   23759287.6884
 -17293595.57446 -13460703.36744  21062648.8594                   21062646.3014
  -8782202.46145  -6834238.92643  23345623.9924                   23345624.4534
   5797397.75014                  24500145.047
 -17060212.70746 -13233913.65644  21364911.2114                   21364909.3984
  -5789655.64145  -4398820.75843  22465571.6724                   22465571.0274
 -16960816.38746 -13188193.90244  20733248.1724                   20733243.6374
 11  8 15  1  5  0.0000000  0  8G10G17G12G25G09G05G04G02
 -15271566.41846 -11885967.62144  21101832.3594                   21101830.3594
   2565502.26645   2026939.67642  23775568.3594                   23775566.8914
 -17305662.53546 -13470106.20344  21060353.2664                   21060350.3984
  -8846095.44546  -6884025.64543  23333465.2034                   23333465.7034
   5904917.70314                  24520605.000
 -17109413.46146 -13272251.86744  21355549.0314                   21355547.3204
  -5684120.46545  -4316585.59043  22485654.5004                   22485653.3874
 -16924778.00046 -13160112.05945  20740106.8444                   20740101.8134
 11  8 15  1  5 30.0000000  0  8G10G17G12G25G09G05G04G02
 -15218751.63746 -11844813.25844  21111882.3204                   21111880.6414
   2651233.91045   2093743.53942  23791881.3914                   23791880.8094
 -17317194.27746 -13479091.97344  21058158.9844                   21058155.9454
  -8909677.94546  -6933570.43743  23321365.6884                   23321366.7624
   6012452.313 5                  24541069.141
 -17158179.33246 -13310251.21944  21346268.9534                   21346267.3714
  -5578518.44545  -4234298.33243  22505751.0554                   22505749.5864
 -16888493.45346 -13131838.39845  20747011.2584                   20747006.5744
 11  8 15  1  6  0.0000000  0  8G10G17G12G25G09G05G04G02
 -15165305.62946 -11803167.03144  21122054.8754                   21122051.5984
   2737163.30145   2160701.45342  23808234.2814                   23808233.4184
 -17328177.00446 -13487649.95745  21056069.1564                   21056066.1644
  -8972935.10546  -6982861.72743  23309328.9924                   23309328.9734
   6120010.344 4                  24561535.797
 -17206495.83246 -13347900.39144  21337074.5474                   21337072.8554
  -5472839.40246  -4151951.07043  22525860.7424                   22525859.6524
 -16851951.91846 -13103364.48445  20753964.7344                   20753960.6684
 11  8 15  1  6 30.0000000  0  8G10G17G12G25G09G05G04G02
 -15111237.62546 -11761036.12544  21132342.6254                   21132340.1024
                                  23824623.0164                   23824620.5784
 -17338616.84446 -13495784.89144  21054082.2504                   21054079.2584
  -9035872.57045  -7031903.89143  23297352.3674                   23297352.4574
   6227580.375 5                  24582006.914
 -17254368.76646 -13385203.93744  21327964.5234                   21327963.0514
  -5367092.86345  -4069551.20343  22545984.0004                   22545982.0944
 -16815162.73446 -13074697.59445  20760965.0944                   20760960.7344
 11  8 15  1  7  0.0000000  0  8G10G17G12G25G09G05G04G02
 -15056549.54746 -11718421.98443  21142749.0784                   21142747.2234
                                  23841047.1174                   23841045.0664
 -17348514.10946 -13503496.99644  21052198.9844                   21052195.9654
  -9098488.51645  -7080695.47342  23285436.0704                   23285436.7194
                                  24602477.281
 -17301796.47746 -13422160.52044  21318940.6024                   21318937.8754
  -5261280.99245  -3987100.38343  22566118.9224                   22566117.9384
 -16778128.32446 -13045839.57444  20768013.1414                   20768008.8014
 11  8 15  1  7 30.0000000  0  8G10G17G12G25G09G05G04G02
 -15001235.75447 -11675320.43445  21153274.4224                   21153272.7114
   2996095.91055   2362467.11753  23857507.4534                   23857506.5664
 -17357860.23847 -13510779.77345  21050420.0474                   21050417.8444
  -9160773.60246  -7129229.35943  23273583.6564                   23273584.3364
   6442748.28115                  24622951.094
 -17348770.07447 -13458763.35945  21310000.7034                   21309999.0514
  -5155399.12146  -3904595.14843  22586267.3914                   22586266.1024
 -16740842.78547 -13016786.00045  20775108.1094                   20775103.9344
 11  8 15  1  8  0.0000000  0  8G10G17G12G25G09G05G04G02
 -14945295.19947 -11631730.37544  21163920.1644                   21163917.4694
   3082799.37145   2430028.20743  23874006.0704                   23874005.7894
 -17366651.28547 -13517629.91845  21048747.3674                   21048744.6524
  -9222722.91446  -7177501.51243  23261794.9614                   23261796.3364
   6550348.953 5                  24643425.930
 -17395285.30947 -13495008.95345  21301149.1334                   21301147.0664
  -5049446.12946  -3822034.39143  22606429.6094                   22606428.8134
 -16703305.20747 -12987535.92645  20782251.2194                   20782247.0664
 11  8 15  1  8 30.0000000  0  8G10G17G12G25G09G05G04G02
 -14888745.03546 -11587665.32044  21174680.4694                   21174679.2664
   3169686.31345   2497732.31643  23890539.7034                   23890539.6684
 -17374901.37947 -13524058.55945  21047177.0084                   21047174.9344
  -9284349.56646  -7225522.26243  23250068.7114                   23250068.8204
   6657941.504 5                  24663901.172
 -17441355.13346 -13530907.47745  21292381.9694                   21292380.3874
  -4943439.39546  -3739431.78943  22626601.5164                   22626601.4574
 -16665532.32447 -12958102.50445  20789439.2114                   20789434.6254
 11  8 15  1  9  0.0000000  0  8G10G17G12G25G09G05G04G02
 -14831581.98846 -11543122.69144  21185558.6884                   21185556.3324
   3256761.00045   2565582.72343  23907109.6564                   23907109.2194
 -17382604.75446 -13530061.18745  21045711.9064                   21045709.2074
  -9345646.58646  -7273286.13743  23238403.8444                   23238404.7194
   6765527.141 5                  24684374.359
 -17486972.65247 -13566453.55145  21283701.4064                   21283699.9414
  -4837375.96546  -3656784.97743  22646785.2814                   22646784.6294
 -16627521.24647 -12928483.49245  20796672.2424                   20796668.0744
 11  8 15  1  9 30.0000000  0  8G10G17G12G25G09G05G04G02
 -14773810.24646 -11498105.76644  21196552.3674                   21196550.5084
   3344021.10945   2633577.59443  23923715.2114                   23923714.5634
 -17389762.93746 -13535638.97745  21044349.3284                   21044346.6134
  -9406614.15646  -7320793.32443  23226802.9614                   23226802.0394
   6873099.965 5                  24704843.344
 -17532138.97346 -13601648.05945  21275107.2194                   21275104.8134
  -4731260.28546  -3574097.45343  22666978.6414                   22666977.5234
 -16589275.78947 -12898681.83645  20803950.0164                   20803945.5944
 11  8 15  1 10  0.0000000  0  8G10G17G12G25G09G05G04G02
 -14715420.27746 -11452607.03543  21207663.3674                   21207661.1054
   3431477.57045   2701725.48842  23940356.3674                   23940356.7194
 -17396363.48046 -13540782.20744  21043093.5554                   21043090.5514
  -9467238.82045  -7368033.27343  23215265.9144                   23215265.7814
                                  24725313.133
 -17576840.84046 -13636480.59044  21266600.1334                   21266598.6724
  -4625082.85545  -3491361.77743  22687183.4384                   22687182.1294
 -16550786.43746 -12868690.08644  20811273.3834                   20811270.4964
 11  8 15  1 10 30.0000000  0  8G10G17G12G25G09G05G04G02
 -14656411.01646 -11406625.82044  21218893.1484                   21218891.1054
   3519133.08255   2770028.52352  23957039.0474                   23957037.5594
 -17402403.06646 -13545488.39144  21041944.6484                   21041941.1174
  -9527515.73445  -7415002.27043  23203795.4534                   23203796.0084
                                  24745782.359
 -17621073.38346 -13670947.50044  21258183.0634                   21258181.1134
  -4518843.07445  -3408577.56243  22707400.5554                   22707398.6254
 -16512052.21546 -12838507.59044  20818645.7274                   20818641.3204
 11  8 15  1 11  0.0000000  0  7G10G17G12G25G05G04G02
 -14596780.80946 -11360160.74243  21230240.3054                   21230237.9964
   3606991.05945   2838489.25842  23973756.5944                   23973755.8204
 -17407877.41046 -13549754.10244  21040902.2664                   21040899.9414
  -9587439.32045  -7461695.92643  23192392.5164                   23192392.7074
 -17664831.66046 -13705044.80144  21249856.1884                   21249854.1644
  -4412539.39845  -3325743.52343  22727629.1414                   22727628.4494
 -16473071.33246 -12808132.86744  20826062.9384                   20826059.3634
 11  8 15  1 11 30.0000000  0  7G10G17G12G25G05G04G02
 -14536534.95346 -11313215.91443  21241706.2344                   21241702.2774
                                  23990514.4694                   23990511.7974
 -17412788.64846 -13553581.02044  21039967.3834                   21039964.7974
  -9647010.69545  -7508115.15243  23181056.3204                   23181056.8164
 -17708116.84446 -13738773.48844  21241619.3914                   21241617.3914
  -4306177.02045  -3242863.77742  22747869.7664                   22747867.5084
 -16433848.65246 -12777569.70744  20833527.2424                   20833522.7304
 11  8 15  1 12  0.0000000  0  7G10G17G12G25G05G04G02
 -16051092.23046 -12493390.44144  20953493.9774                   20953491.6094
   2207886.02745   1748277.49642  23707516.6954                   23707514.0594
 -18992554.96946 -14784567.78544  20739347.3594                   20739345.3324
 -11281648.68446  -8781859.05143  22869995.4614                   22869995.8014
 -19326347.69146 -14999732.58244  20933680.3914                   20933677.8954
  -5775173.26245  -4387536.21943  22468328.3674                   22468328.0044
 -17969803.45346 -13974417.62545  20541243.8914                   20541240.1094
 11  8 15  1 12 30.0000000  0  7G10G17G12G25G05G04G02
 -15989627.02046 -12445495.49244  20965190.4384                   20965188.6644
   2296332.50445   1817196.81242  23724347.0084                   23724344.8794
 -18996343.93746 -14787520.22744  20738627.4694                   20738624.2664
 -11340515.80146  -8827729.49243  22858791.8204                   22858793.7464
 -19368688.65246 -15032725.50444  20925622.9774                   20925620.6254
  -5668705.74245  -4304574.52743  22488588.3674                   22488587.9884
 -17930108.87546 -13943486.79345  20548798.6724                   20548793.9574
 11  8 15  1 13  0.0000000  0  7G10G17G12G25G05G04G02
 -15927561.73446 -12397132.94144  20977001.3284                   20976998.8954
   2384966.94145   1886262.57042  23741213.1484                   23741212.0124
 -18999577.25846 -14790039.67644  20738011.9614                   20738009.2114
 -11399034.23846  -8873328.25043  22847657.1564                   22847657.7154
 -19410561.41446 -15065353.59045  20917654.8754                   20917652.7304
  -5562194.91445  -4221579.09843  22508857.1094                   22508856.5664
 -17890187.42246 -13912379.15645  20556394.6644                   20556391.0864
 11  8 15  1 13 30.0000000  0  7G10G17G12G25G05G04G02
 -15864888.40246 -12348296.57444  20988927.1414                   20988925.4614
   2473799.00055   1955482.35552  23758118.5314                   23758115.6724
 -19002244.16846 -14792117.77745  20737504.5474                   20737501.8914
 -11457191.79746  -8918645.82043  22836589.7344                   22836590.9734
 -19451954.14146 -15097607.62544  20909778.0164                   20909776.2584
  -5455633.10945  -4138543.93443  22529135.4694                   22529133.7624
 -17850030.78946 -13881088.26244  20564036.7974                   20564032.4414
 11  8 15  1 14  0.0000000  0  7G10G17G12G25G05G04G02
 -15801618.90646 -12298995.69144  21000966.8364                   21000965.3014
   2562818.58244   2024848.28142  23775056.9774                   23775055.2774
 -19004353.89846 -14793761.72344  20737103.0314                   20737100.4384
 -11514996.56646  -8963688.45743  22825589.8674                   22825591.0664
 -19492875.48446 -15129494.34445  20901990.6724                   20901988.8714
  -5349031.89845  -4055478.04743  22549421.2974                   22549419.0984
 -17809650.55546 -13849623.14144  20571720.6334                   20571716.3014
 11  8 15  1 14 30.0000000  0  7G10G17G12G25G05G04G02
 -15737744.23846 -12249223.23444  21013122.4534                   21013119.8984
   2652036.18045   2094368.50842  23792035.8754                   23792032.5354
 -19005894.49246 -14794962.17645  20736810.0164                   20736807.2234
 -11572435.26646  -9008445.88743  22814659.6414                   22814660.8754
 -19533312.64546 -15161003.78944  20894295.6484                   20894293.9104
  -5242382.04745  -3972374.32043  22569715.1644                   22569714.2074
 -17769037.72346 -13817976.76645  20579448.4454                   20579444.7814
 11  8 15  1 15  0.0000000  0  7G10G17G12G25G05G04G02
 -15673275.14846 -12198987.57844  21025390.2274                   21025388.1604
                                  23809050.836
 -19006873.93446 -14795725.36344  20736622.6644                   20736620.9774
 -11629514.39546  -9052923.10943  22803797.7504                   22803798.8134
 -19573272.42246 -15192141.23444  20886692.1804                   20886689.9924
  -5135694.37945  -3889241.08643  22590016.8204                   22590016.0044
 -17728202.18446 -13786156.86344  20587220.0784                   20587215.6724
 11  8 15  1 15 30.0000000  0  7G10G17G12G25G05G04G02
 -15608213.60946 -12148290.30144  21037771.3984                   21037768.8324
   2831038.70714                  23826098.836
 -19007291.32246 -14796050.60045  20736543.4304                   20736541.4064
 -11686232.09446  -9097118.71143  22793005.0474                   22793005.7344
 -19612753.35246 -15222905.55544  20879179.2664                   20879176.8244
  -5028970.69145  -3806079.79343  22610326.6804                   22610325.4844
 -17687145.75846 -13754164.83645  20595032.8444                   20595028.0824
 11  8 15  1 16  0.0000000  0  7G10G17G12G25G05G04G02
 -15542547.24246 -12097121.69944  21050266.5164                   21050264.4414
                                  23843186.102
 -19007132.00846 -14795926.45344  20736573.4774                   20736571.5434
 -11742571.58646  -9141019.62943  22782284.7194                   22782284.7544
 -19651739.40646 -15253284.26244  20871759.6954                   20871758.2274
  -4922198.18045  -3722880.46943  22630643.4614                   22630643.7034
 -17645855.68446 -13721990.74645  20602889.6564                   20602885.6564
 11  8 15  1 16 30.0000000  0  7G10G17G12G25G05G04G02
 -15476293.58646 -12045495.48844  21062874.2194                   21062872.5904
   3010823.426 4                  23860310.875
 -19006410.89546 -14795364.53945  20736711.0474                   20736708.6564
 -11798546.61346  -9184636.48443  22771631.6884                   22771632.6884
 -19690244.66046 -15283288.31645  20864432.3284                   20864431.0164
  -4815394.23045  -3639656.64543  22650968.2114                   22650967.9774
 -17604349.41446 -13689648.18444  20610787.9384                   20610783.6804
 11  8 15  1 17  0.0000000  0  7G10G17G12G25G05G04G02
 -15409455.90646 -11993414.19944  21075593.6884                   21075591.8014
   3100995.28514                  23877470.719
 -19005128.12546 -14794364.98045  20736955.3594                   20736952.7584
 -11854155.87146  -9227968.37943  22761050.0944                   22761051.2274
 -19728268.32046 -15312917.10945  20857196.6884                   20857194.6684
  -4708561.72345  -3556410.56643  22671298.0084                   22671297.2384
 -17562629.28546 -13657138.99645  20618727.1804                   20618723.0044
 11  8 15  1 17 30.0000000  0  7G10G17G12G25G05G04G02
 -15342031.12146 -11940875.39544  21088423.6094                   21088421.8594
   3191357.855 5                  23894664.055
 -19003277.79346 -14792923.16845  20737307.8834                   20737305.0234
 -11909392.04746  -9271009.55943  22750539.4224                   22750539.6914
 -19765803.39546 -15342165.19544  20850054.6024                   20850052.4494
  -4601697.25045  -3473139.53543  22691633.4384                   22691633.0984
 -17520691.69546 -13624460.35545  20626708.1884                   20626703.0084
 11  8 15  1 18  0.0000000  0  7G10G17G12G25G05G04G02
 -15274015.12146 -11887875.91844  21101366.3134                   21101364.9454
   3281917.539 5                  23911898.094
 -19000852.62546 -14791033.41444  20737769.1484                   20737766.3714
 -11964246.69546  -9313753.41843  22740101.1484                   22740101.0864
 -19802842.28546 -15371026.63744  20843005.9224                   20843003.8204
  -4494796.10545  -3389839.96543  22711976.6484                   22711975.4844
 -17478532.04346 -13591608.65644  20634730.3444                   20634725.9804
 11  8 15  1 18 30.0000000  0  7G10G17G12G25G05G04G02
 -15205409.84846 -11834417.26644  21114421.6564                   21114419.7664
   3372673.609 5                  23929168.750
 -18997852.73046 -14788695.83244  20738339.7974                   20738337.1604
 -12018717.93445  -9356198.53943  22729735.4304                   22729735.4694
 -19839383.45746 -15399500.23044  20836052.2894                   20836050.3014
  -4387860.28145  -3306513.36343  22732327.1564                   22732324.8914
 -17436152.09046 -13558585.31244  20642795.0004                   20642790.5664
 11  8 15  1 19  0.0000000  0  7G10G17G12G25G05G04G02
 -15136213.36747 -11780497.98444  21127589.3914                   21127587.6294
   3463630.18015                  23946475.430
 -18994272.85547 -14785906.38345  20739021.0234                   20739018.6564
 -12072799.17646  -9398339.81243  22719443.6174                   22719444.3984
 -19875420.82447 -15427581.30145  20829194.4924                   20829192.5824
  -4280887.06346  -3223157.68043  22752681.4144                   22752680.7384
 -17393548.59847 -13525387.84445  20650902.1804                   20650897.8284
 11  8 15  1 19 30.0000000  0  7G10G17G12G25G05G04G02
 -15066437.16046 -11726126.89544  21140867.3754                   21140865.9494
   3554777.453 5                  23963821.484
 -18990121.67647 -14782671.67245  20739811.4924                   20739808.1844
 -12126498.07446  -9440183.09443  22709225.0004                   22709225.6524
 -19910962.58247 -15455276.11345  20822430.8594                   20822428.2704
  -4173887.80546  -3139781.63343  22773042.8984                   22773042.0554
 -17350733.30946 -13492025.26245  20659049.0394                   20659045.5164
 11  8 15  1 20  0.0000000  0  7G10G17G12G25G05G04G02
 -14996082.16446 -11671304.78943  21154255.9694                   21154253.7894
   3646116.50415                  23981202.320
 -18985397.72746 -14778990.64844  20740710.3444                   20740707.2704
 -12179810.78945  -9481725.38343  22699081.3054                   22699080.3914
 -19946005.52746 -15482582.23844  20815763.1174                   20815760.3954
  -4066862.52755  -3056385.32452  22793409.8134                   22793407.9884
 -17307706.31646 -13458497.69144  20667237.5234                   20667233.3444
 11  8 15  1 20 30.0000000  0  7G10G17G12G25G05G04G02
 -14925142.35246 -11616027.07044  21167754.7424                   21167752.8714
   3737655.45345   2940304.33253  23998621.8834                   23998620.9184
 -18980091.89146 -14774856.27745  20741720.1174                   20741717.1294
 -12232726.89146  -9522958.74243  22689011.2664                   22689011.6094
 -19980539.70746 -15509491.99645  20809191.3444                   20809188.9614
  -3959804.55945  -2972963.56343  22813781.2584                   22813780.7194
 -17264460.19946 -13424799.45345  20675467.0554                   20675462.5744
 11  8 15  1 21  0.0000000  0  7G10G17G12G25G05G04G02
 -14853618.36746 -11560294.08244  21181365.8834                   21181363.9454
   3829395.31645   3011789.94142  24016079.9924                   24016078.4844
 -18974202.25846 -14770266.96145  20742840.5314                   20742837.7974
 -12285243.04346  -9563880.41043  22679017.1174                   22679017.6884
 -20014562.57446 -15536003.28545  20802716.8134                   20802714.5274
  -3852714.34845  -2889516.69943  22834160.2194                   22834159.8834
 -17220995.71146 -13390931.02045  20683738.1644                   20683733.2814
 11  8 15  1 21 30.0000000  0  7G10G17G12G25G05G04G02
 -14781520.72746 -11504114.10944  21195085.0864                   21195083.6604
   3921327.41845   3083425.27742  24033573.7114                   24033572.0084
 -18967736.59046 -14765228.77745  20744070.8834                   20744068.1024
 -12337365.52046  -9604495.30543  22669098.5784                   22669099.0474
 -20048080.89146 -15562121.41845  20796339.0394                   20796336.1724
  -3745602.02045  -2806052.56342  22854543.2894                   22854542.4734
 -17177322.91846 -13356900.27045  20692048.1564                   20692044.1804
 11  8 15  1 22  0.0000000  0  7G10G17G12G25G05G04G02
 -14708851.11346 -11447488.43444  21208914.2344                   21208912.0664
   4013452.45745   3155211.08242  24051104.0084                   24051103.0004
 -18960693.59046 -14759740.74245  20745411.1414                   20745408.6414
 -12389091.29346  -9644801.07043  22659254.9844                   22659256.4494
 -20081092.29746 -15587844.54345  20790056.3204                   20790054.2194
  -3638468.16845  -2722571.63742  22874930.3524                   22874928.7854
 -17133442.11746 -13322707.44945  20700398.5164                   20700394.6724
 11  8 15  1 22 30.0000000  0  7G10G17G12G25G05G04G02
 -14635605.93046 -11390414.25444  21222852.1564                   21222850.3674
   4105775.98045   3227151.45342  24068673.0234                   24068671.9844
 -18953066.88346 -14753797.85945  20746863.0704                   20746859.8094
 -12440412.45346  -9684791.56243  22649489.4614                   22649489.4454
 -20113589.41846 -15613166.94144  20783872.5784                   20783870.3054
  -3531308.34045  -2639070.52342  22895321.5164                   22895320.8014
 -17089349.02346 -13288349.19144  20708789.9224                   20708784.7584
 11  8 15  1 23  0.0000000  0  7G10G17G12G25G05G04G02
 -14561795.92646 -11332899.97344  21236896.6804                   21236895.3204
   4198288.69545   3299239.21542  24086278.0164                   24086276.4924
 -18944865.00846 -14747406.79745  20748423.4534                   20748420.7274
 -12491335.69146  -9724471.99643  22639799.3134                   22639799.2114
 -20145579.64846 -15638094.35544  20777785.4844                   20777783.2734
  -3424133.10545  -2555557.37142  22915717.7114                   22915715.2814
 -17045054.15246 -13253833.70745  20717219.2974                   20717213.9304
 11  8 15  1 23 30.0000000  0  7G10G17G12G25G05G04G02
 -14487415.55546 -11274941.24644  21251052.2974                   21251049.5744
   4290998.47745   3371480.65242  24103921.3754                   24103918.3164
 -18936079.13346 -14740560.67244  20750095.7424                   20750092.9454
 -12541850.87946  -9763834.44943  22630186.8444                   22630186.1684
 -20177053.46946 -15662619.37545  20771795.3204                   20771793.7974
  -3316935.99645  -2472027.18842  22936115.8834                   22936113.9574
 -17000550.82446 -13219155.79344  20725686.8524                   20725682.7464
 11  8 15  1 24  0.0000000  0  7G10G17G12G25G05G04G02
 -14412472.78146 -11216544.26643  21265311.6804                   21265311.0044
                                  24121600.2584                   24121597.1524
 -18926714.16846 -14733263.28544  20751877.3984                   20751874.9414
 -12591961.64546  -9802881.78143  22620651.1334                   22620651.1954
 -20208015.15246 -15686745.31244  20765904.1174                   20765901.5044
  -3209724.27045  -2388485.58642  22956518.0634                   22956516.2384
 -16955846.25046 -13184321.04344  20734193.8054                   20734189.6604
 11  8 15  1 24 30.0000000  0  7G10G17G12G25G05G04G02
 -14336968.58246 -11157709.83644  21279680.6254                   21279678.7704
                                  24139313.0944                   24139312.0984
 -18916769.41446 -14725514.14145  20753769.6094                   20753767.1174
 -12641664.44946  -9841611.22343  22611193.2274                   22611192.6374
 -20238461.88346 -15710469.99645  20760110.4774                   20760107.2384
  -3102498.25045  -2304932.91443  22976922.3914                   22976920.9024
 -16910940.53546 -13149329.59444  20742739.1884                   20742734.7894
 11  8 15  1 25  0.0000000  0  7G10G17G12G25G05G04G02
 -14260903.11745 -11098438.04743  21294155.2734                   21294153.4344
                                  24157066.4924                   24157063.5634
 -18906241.93446 -14717310.89844  20755773.5784                   20755770.3834
 -12690955.25045  -9880019.62143  22601812.6644                   22601812.7194
 -20268390.00846 -15733790.55144  20754415.1884                   20754412.8014
  -2995257.02745  -2221368.34842  22997330.5004                   22997328.2154
 -16865833.03146 -13114180.87144  20751323.3834                   20751318.4924
 11  8 15  1 25 30.0000000  0  7G10G17G12G25G05G04G02
 -14184278.99646 -11038730.98844  21308737.2504                   21308734.8204
   4663760.40655   3661933.90652  24174853.9614                   24174853.9024
 -18895131.32447 -14708653.34445  20757887.6564                   20757884.8594
 -12739831.96946  -9918105.40644  22592511.7424                   22592512.2624
 -20297798.37147 -15756706.19145  20748818.2114                   20748816.2464
  -2888002.37946  -2137793.35543  23017739.8054                   23017738.2194
 -16820525.57847 -13078876.43045  20759944.7344                   20759940.2504
 11  8 15  1 26  0.0000000  0  7G10G17G12G25G05G04G02
 -14107099.27046 -10978590.94944  21323423.8444                   21323421.3634
   4757433.29355   3734921.30952  24192678.6484                   24192679.1954
 -18883437.56247 -14699541.31645  20760113.2424                   20760110.2774
 -12788293.06646  -9955867.28944  22583290.1024                   22583290.6564
 -20326686.41446 -15779216.31245  20743321.4304                   20743319.2894
  -2780736.46545  -2054209.55543  23038150.7734                   23038150.3594
 -16775020.00046 -13043417.53145  20768604.3444                   20768600.0704
 11  8 15  1 26 30.0000000  0  7G10G17G12G25G05G04G02
 -14029371.43446 -10918023.80544  21338214.7424                   21338212.7854
   4851292.95754   3808058.68752  24210539.3754                   24210538.8484
 -18871166.08247 -14689979.12545  20762448.0004                   20762445.5744
 -12836342.05546  -9993308.04344  22574146.4924                   22574146.4304
 -20355058.05146 -15801324.04345  20737922.1024                   20737920.0234
  -2673466.12145  -1970622.33243  23058564.9694                   23058563.0904
 -16729323.34846 -13007809.75445  20777300.3594                   20777295.6684
 11  8 15  1 27  0.0000000  0  7G10G17G12G25G05G04G02
 -13951092.91046 -10857027.55544  21353110.9064                   21353109.3444
   4945344.18745   3881345.40242  24228437.6564                   24228436.2464
 -18858311.80147 -14679962.80945  20764893.6644                   20764891.5664
 -12883971.64546 -10030421.99643  22565083.1884                   22565083.0824
 -20382906.51646 -15823024.11345  20732622.8134                   20732620.1294
  -2566187.50445  -1887028.64143  23078978.7974                   23078977.8834
 -16683432.08246 -12972050.33645  20786032.3524                   20786028.5314
 11  8 15  1 27 30.0000000  0  7G10G17G12G25G05G04G02
 -13872262.88346 -10795601.56644  21368111.8204                   21368109.8204
   5039589.94554   3954783.55152  24246372.3984                   24246370.1724
 -18844870.54347 -14669489.09845  20767452.0944                   20767448.9104
 -12931176.47746 -10067204.99643  22556100.3834                   22556100.2894
 -20410227.46946 -15844313.12945  20727423.2584                   20727421.8554
  -2458899.02745  -1803427.27343  23099395.5944                   23099393.9844
 -16637343.77046 -12936137.36344  20794802.8834                   20794798.8914
 11  8 15  1 28  0.0000000  0  7G10G17G12G25G05G04G02
 -13792882.87946 -10733747.02744  21383217.0004                   21383215.1844
   5134031.07854   4028374.17652  24264344.2504                   24264342.2584
 -18830841.23446 -14658557.15645  20770121.8834                   20770118.7664
 -12977953.54746 -10103654.65643  22547198.7274                   22547198.9414
 -20437018.34846 -15865189.10545  20722325.2114                   20722323.3054
  -2351601.03545  -1719818.48443  23119813.8204                   23119812.1564
 -16591059.38346 -12900071.60945  20803610.9694                   20803606.7034
 11  8 15  1 28 30.0000000  0  7G10G17G12G25G05G04G02
 -13712967.70346 -10671475.45344  21398424.2894                   21398422.3364
   5228654.48814                  24282350.102
 -18816235.73446 -14647176.25045  20772901.3364                   20772898.5984
 -13024313.28546 -10139779.12143  22538376.8444                   22538377.1844
 -20463290.57846 -15885660.93445  20717325.9774                   20717323.8554
  -2244307.54345  -1636213.21943  23140230.2424                   23140230.0984
 -16544592.52046 -12863863.66045  20812453.4144                   20812449.1644
 11  8 15  1 29  0.0000000  0  7G10G17G12G25G05G04G02
 -13632511.67646 -10608782.42643  21413733.7114                   21413732.7974
                                  24300392.422
 -18801046.53546 -14635340.47744  20775791.5634                   20775788.7854
 -13070245.49246 -10175570.40243  22529635.7274                   22529636.4614
 -20489034.80546 -15905721.29744  20712427.4224                   20712425.0704
  -2137011.58645  -1552605.97342  23160649.6254                   23160647.3954
 -16497936.76646 -12827508.48444  20821330.9694                   20821327.3244
 11  8 15  1 29 30.0000000  0  6G10G12G25G05G04G02
 -13551515.87946 -10545668.89144  21429147.4224                   21429145.7274
 -18785271.65647 -14623048.43745  20778792.6724                   20778790.1644
 -13115746.71946 -10211025.96144  22520977.1724                   22520978.2734
 -20514248.43047 -15925368.30945  20707628.9694                   20707627.0904
  -2029713.44946  -1468997.14542  23181066.5704                   23181065.2034
 -16451091.80547 -12791005.99245  20830245.8984                   20830241.5824
 11  8 15  1 30  0.0000000  0  8G10G17G12G25G29G05G04G02
 -13469985.33246 -10482138.60544  21444662.0634                   21444660.4964
  -4640825.32815                  24336585.906
 -18768913.46146 -14610301.80545  20781906.2894                   20781903.4414
 -13160817.68746 -10246146.21544  22512400.5314                   22512401.7114
  -4913027.59815                  24629432.523
 -20538932.81646 -15944602.85945  20702931.6724                   20702930.0944
  -1922416.96945  -1385389.54342  23201483.9224                   23201482.9614
 -16404061.90246 -12754359.31645  20839195.0004                   20839191.0084
 11  8 15  1 30 30.0000000  0  8G10G17G12G25G29G05G04G02
 -13387922.10546 -10418193.22744  21460278.5004                   21460276.3754
  -4545443.727 5                  24354736.422
 -18751971.34046 -14597100.14845  20785129.7344                   20785127.5554
 -13205455.87946 -10280929.22343  22503906.7114                   22503906.8404
  -4968215.76215                  24618930.570
 -20563086.04346 -15963423.51245  20698335.5004                   20698333.1684
  -1815123.13345  -1301783.92242  23221901.4064                   23221900.3634
 -16356848.29346 -12717569.47744  20848179.6954                   20848175.8054
 11  8 15  1 31  0.0000000  0  8G10G17G12G25G29G05G04G02
 -13305337.06246 -10353841.25044  21475993.8834                   21475991.9694
  -4449882.633 5                  24372921.914
 -18734453.67246 -14583450.02745  20788463.4844                   20788460.6604
 -13249667.69146 -10315379.99243  22495492.7974                   22495493.4024
  -5023482.44914                  24608413.484
 -20586715.52346 -15981836.04345  20693838.8054                   20693837.2234
  -1707841.45745  -1218187.83242  23242316.5554                   23242315.0204
 -16309460.52046 -12680643.94544  20857197.3834                   20857193.3244
 11  8 15  1 31 30.0000000  0  7G10G17G12G25G05G04G02
 -13222220.96546 -10289075.46144  21491810.3204                   21491808.4494
  -4354130.03914                  24391143.250
 -18716347.96146 -14569341.68744  20791909.2894                   20791905.8484
 -13293438.80946 -10349487.33643  22487164.6954                   22487163.9184
 -20609807.76646 -15999829.95744  20689444.7664                   20689442.3594
  -1600561.35545  -1134593.00042  23262730.7664                   23262730.1374
 -16261887.48146 -12643574.02244  20866250.5084                   20866246.1644
 11  8 15  1 32  0.0000000  0  7G10G17G12G25G05G04G02
 -13138586.10946 -10223905.44143  21507725.8054                   21507723.7074
  -4258196.09814                  24409397.773
 -18697664.21946 -14554782.94544  20795464.2424                   20795461.5394
 -13336777.23446 -10383257.54343  22478917.2274                   22478917.1094
 -20632371.66446 -16017412.18744  20685150.7664                   20685148.8524
  -1493294.08255  -1051008.11352  23283144.2894                   23283142.2974
 -16214140.78146 -12606368.80144  20875336.2814                   20875331.4574
 11  8 15  1 32 30.0000000  0  7G10G17G12G25G05G04G02
 -13054423.82446 -10158324.44143  21523741.9064                   21523738.9384
                                  24427691.258
 -18678391.12946 -14539764.98044  20799131.9304                   20799128.9344
 -13379669.92246 -10416680.43043  22470755.0234                   22470755.0204
 -20654394.83246 -16034573.05144  20680960.4844                   20680958.1054
                                  23303557.0634                   23303554.0744
 -16166210.85946 -12569020.82444  20884456.9694                   20884452.2814
 11  8 15  1 33  0.0000000  0  7G10G17G12G25G05G04G02
 -12969733.30945 -10092331.82843  21539857.4694                   21539855.1024
                                  24446020.211
 -18658525.57446 -14524285.30944  20802911.6644                   20802909.1024
 -13422111.43045 -10449751.68443  22462677.7814                   22462678.7194
 -20675872.93446 -16051309.17644  20676872.4844                   20676870.6724
                                  23323966.8594                   23323965.1024
 -16118095.25446 -12531528.10544  20893613.4144                   20893608.2704
 11  8 15  1 33 30.0000000  0  7G10G17G12G25G05G04G02
 -12884523.09845 -10025934.25843  21556071.4304                   21556070.1294
                                  24464382.383
 -18638073.25046 -14508348.46544  20806804.6884                   20806801.1484
 -13464105.78145 -10482474.55943  22454686.7424                   22454686.8874
 -20696810.64546 -16067624.25044  20672888.8674                   20672886.0634
                                  23344377.281
 -16069801.55946 -12493896.65644  20902803.1094                   20902798.6294
 11  8 15  1 34  0.0000000  0  6G10G12G25G05G04G02
 -12798789.73045  -9959128.99643  21572388.3054                   21572384.7154
 -18617027.74645 -14491949.33243  20810809.1564                   20810805.9804
 -13505644.86745 -10514842.61743  22446781.4774                   22446782.4614
 -20717200.50045 -16083512.37144  20669009.2894                   20669006.3874
                                  23364787.828
 -16021324.89845 -12456122.59044  20912028.5084                   20912024.0274
 11  8 15  1 34 30.0000000  0  6G10G12G25G05G04G02
 -12712542.14545  -9891923.16443  21588800.4144                   21588797.3954
 -18595395.61346 -14475093.18444  20814925.9534                   20814922.9884
 -13546733.06246 -10546859.43043  22438963.6644                   22438963.3984
 -20737048.24646 -16098978.16844  20665231.2424                   20665229.3674
   -957017.30115                  23385194.570
 -15972672.92646 -12418212.02744  20921285.4614                   20921281.8284
 11  8 15  1 35  0.0000000  0  6G10G12G25G05G04G02
 -12625782.34045  -9824318.12143  21605309.9144                   21605306.6764
 -18573176.46546 -14457779.55144  20819153.7584                   20819151.0274
 -13587367.95345 -10578522.92243  22431231.2814                   22431230.7704
 -20756351.90246 -16114019.90644  20661558.6254                   20661555.9774
   -849787.41814                  23405601.281
 -15923846.37145 -12380165.32844  20930576.9694                   20930573.4184
 11  8 15  1 35 30.0000000  0  6G10G12G25G05G04G02
 -12538515.53145  -9756318.02743  21621915.9064                   21621913.3954
 -18550372.91446 -14440010.59444  20823492.7734                   20823490.8594
 -13627549.92645 -10609833.52343  22423584.5314                   22423584.8094
 -20775113.09046 -16128639.01644  20657987.6804                   20657985.9024
                                  23426002.266
 -15874849.14846 -12341985.70344  20939901.3834                   20939897.1684
 11  8 15  1 36  0.0000000  0  6G10G12G25G05G04G02
 -12450742.99646  -9687923.87943  21638618.1254                   21638615.8054
 -18526983.32446 -14421784.97744  20827943.8054                   20827941.6684
 -13667275.92246 -10640788.84843  22416024.3204                   22416025.0944
 -20793329.46946 -16142833.60244  20654521.2814                   20654519.1884
   -635373.12915                  23446401.648
 -15825681.51246 -12303673.29344  20949257.2504                   20949253.1214
 11  8 15  1 36 30.0000000  0  6G10G12G25G05G04G02
 -12362462.98845  -9619134.24643  21655417.5314                   21655414.9184
 -18503004.06646 -14403099.82044  20832507.0234                   20832504.1334
 -13706539.48445 -10671383.77343  22408552.6644                   22408553.3484
 -20810995.74646 -16156599.48444  20651159.5944                   20651157.8874
   -528185.578 5                  23466798.641
 -15776340.17646 -12265225.48444  20958647.4064                   20958642.3554
 11  8 15  1 37  0.0000000  0  6G10G12G25G05G04G02
 -12273680.96945  -9549953.46943  21672312.1174                   21672309.8874
 -18478437.36746 -14383956.90244  20837182.7424                   20837179.3754
 -13745341.52045 -10701619.05543  22401169.5314                   22401169.6844
 -20828113.62146 -16169938.02744  20647901.9454                   20647900.0474
                                  23487194.398
 -15726828.97346 -12226645.29744  20968068.0944                   20968064.0824
 11  8 15  1 37 30.0000000  0  6G10G12G25G05G04G02
 -12184402.24245  -9480385.61743  21689301.1564                   21689299.2544
 -18453286.23846 -14364358.60544  20841968.2664                   20841965.4694
 -13783682.83645 -10731495.32843  22393873.6564                   22393873.7504
 -20844684.61345 -16182850.44144  20644748.9144                   20644746.4614
                                  23507583.656
 -15677151.96546 -12187935.93044  20977521.7194                   20977517.0514
 11  8 15  1 38  0.0000000  0  6G10G12G25G05G04G02
 -12094626.09446  -9410430.27043  21706383.5004                   21706382.4454
 -18427547.12546 -14344302.24644  20846865.3444                   20846863.4694
 -13821557.94146 -10761008.44943  22386666.5944                   22386666.7384
 -20860704.60946 -16195333.61745  20641700.0084                   20641697.9614
   -206727.32015                  23527970.961
 -15627307.01646 -12149095.78144  20987006.5864                   20987002.6294
 11  8 15  1 38 30.0000000  0  6G10G12G25G05G04G02
 -12004350.71145  -9340085.81243  21723563.3674                   21723561.3984
 -18401216.36746 -14323784.75844  20851876.2114                   20851873.7504
 -13858960.68746 -10790153.39143  22379548.7894                   22379549.0084
 -20876167.78946 -16207382.80544  20638757.9694                   20638755.4734
    -99606.789 5                  23548352.961
 -15577290.94546 -12110122.20744  20996524.9454                   20996520.0984
 11  8 15  1 39  0.0000000  0  5G10G12G25G05G02
 -11913575.57845  -9269351.88742  21740837.8914                   21740834.5984
 -18374291.03945 -14302803.91844  20857001.0634                   20856997.2934
 -13895885.90645 -10818926.19143  22372521.9534                   22372521.8484
 -20891070.58245 -16218995.28544  20635922.4064                   20635919.3554
 -15527101.84845 -12071013.74243  21006075.3754                   21006070.7894
 11  8 15  1 39 30.0000000  0  5G10G12G25G05G02
 -11822302.40245  -9198229.96943  21758207.1644                   21758203.5634
 -18346769.90645 -14281358.89844  20862237.9384                   20862235.3204
 -13932330.57045 -10847324.59443  22365586.8984                   22365587.0314
 -20905410.70346 -16230169.40244  20633192.8524                   20633190.8794
 -15476739.56646 -12031770.44544  21015658.3284                   21015654.6054
 11  8 15  1 40  0.0000000  0  5G10G12G25G05G02
 -11730534.68045  -9126722.63743  21775669.3754                   21775666.9844
 -18318654.03545 -14259450.39843  20867586.5004                   20867585.0234
 -13968293.87545 -10875347.90243  22358743.2814                   22358742.4344
 -20919188.31645 -16240905.12943  20630572.0704                   20630568.8324
 -15426206.63745 -11992394.11743  21025274.4454                   21025270.2814
 11  8 15  1 40 30.0000000  0  5G10G12G25G05G02
 -11638281.86346  -9054837.41843  21793224.5004                   21793222.1134
 -18289950.44946 -14237084.06244  20873049.1254                   20873046.7544
 -14003780.53946 -10902999.93443  22351990.2894                   22351990.3674
 -20932409.27346 -16251207.25445  20628054.9384                   20628053.0084
 -15375510.91846 -11952891.05144  21034922.6484                   21034918.1214
 11  8 15  1 41  0.0000000  0  5G10G12G25G05G02
 -11545544.89855  -8982574.75052  21810872.0554                   21810869.3284
 -18260657.41445 -14214258.22344  20878623.2734                   20878621.8094
 -14038786.98445 -10930277.57443  22345328.7114                   22345328.2034
 -20945070.72745 -16261073.19544  20625646.5394                   20625643.3634
 -15324651.70745 -11913260.39143  21044600.4304                   21044595.8594
 11  8 15  1 41 30.0000000  0  5G10G12G25G05G02
                                  21828609.8284                   21828606.1374
 -18230780.24645 -14190977.31244  20884309.4384                   20884305.9104
 -14073315.79745 -10957183.11743  22338757.6804                   22338757.7974
 -20957176.38345 -16270506.12144  20623342.7274                   20623339.8444
 -15273634.54745 -11873506.77043  21054308.8284                   21054303.7274
 11  8 15  1 42  0.0000000  0  5G10G12G25G05G02
 -11358628.18446  -8836925.50843  21846440.4144                   21846437.6054
 -18200303.84046 -14167229.60244  20890108.6644                   20890106.2934
 -14107350.20346 -10983703.56243  22332282.4064                   22332281.2154
 -20968710.49246 -16279493.84445  20621146.8204                   20621144.9454
 -15222445.82846 -11833619.59044  21064049.9224                   21064044.8244
 11  8 15  1 42 30.0000000  0  6G10G12G25G05G04G02
 -11264453.85946  -8763542.91443  21864360.3674                   21864358.9104
 -18169243.94946 -14143027.05944  20896018.6484                   20896016.6604
 -14140903.39846 -11009848.87943  22325896.3914                   22325896.1024
 -20979687.20746 -16288047.06645  20619058.4774                   20619056.2384
  -4621440.50015                  23711316.930
 -15171101.63746 -11793611.10944  21073820.0704                   21073815.4844
 11  8 15  1 43  0.0000000  0  6G10G12G25G05G04G02
 -11169808.51645  -8689793.30143  21882372.8674                   21882370.1334
 -18137598.62946 -14118368.37544  20902041.3524                   20902038.7464
 -14173971.32046 -11035616.07044  22319603.9534                   22319603.4264
 -20990103.76246 -16296163.83245  20617076.1884                   20617073.8444
                                  23731669.219
 -15119600.80946 -11753480.60244  21083620.5554                   21083615.9844
 11  8 15  1 43 30.0000000  0  6G10G12G25G05G04G02
 -11074703.89146  -8615685.83243  21900469.4844                   21900467.6134
 -18105376.55946 -14093260.27344  20908173.1954                   20908170.2624
 -14206560.98446 -11061010.62544  22313402.4694                   22313402.4654
 -20999968.04746 -16303850.25045  20615199.2734                   20615197.1804
  -4407588.477 5                  23752011.133
 -15067953.60246 -11713236.03544  21093448.5474                   21093443.9304
 11  8 15  1 44  0.0000000  0  6G10G12G25G05G04G02
 -12554557.50045  -9768818.46143  21618862.6484                   21618861.1294
 -19647995.66846 -15295301.10944  20614621.6334                   20614619.5234
 -15814089.69946 -12313630.35243  22007498.6884                   22007499.8874
 -22584697.59846 -17538704.37544  20313635.4064                   20313633.0554
                                  23472557.070
 -16591577.12946 -12900475.12944  20803512.7584                   20803508.1024
 11  8 15  1 44 30.0000000  0  6G10G12G25G05G04G02
 -12458532.99245  -9693994.15242  21637136.1334                   21637133.2894
 -19614612.69145 -15269288.35544  20620974.2344                   20620972.2624
 -15845707.85945 -12338267.84443  22001482.5084                   22001482.3524
 -22593445.44545 -17545520.81644  20311971.2114                   20311967.8914
                                  23492886.758
 -16539630.51245 -12859997.21543  20813397.8204                   20813392.6134
 11  8 15  1 45  0.0000000  0  6G10G12G25G05G04G02
 -12362047.67645  -9618810.83243  21655496.0234                   21655494.0004
 -19580644.77745 -15242819.87544  20627438.4144                   20627436.4574
 -15876832.52745 -12362520.82443  21995559.0864                   21995560.4964
 -22601629.02745 -17551897.60944  20310412.5234                   20310411.2424
                                  23513213.555
 -16487531.06645 -12819400.27044  20823311.2504                   20823307.6294
 11  8 15  1 45 30.0000000  0  6G10G12G25G05G04G02
 -12265095.33645  -9543263.57843  21673945.8444                   21673943.2274
 -19546083.54346 -15215889.07044  20634015.6804                   20634013.0554
 -15907453.31645 -12386381.20743  21989732.4694                   21989734.2074
 -22609238.94546 -17557827.41844  20308964.7894                   20308962.8634
                                  23533535.469
 -16435270.70346 -12778677.94544  20833256.7814                   20833252.3164
 11  8 15  1 46  0.0000000  0  6G10G12G25G05G04G02
 -12167691.52345  -9467364.49643  21692481.8914                   21692479.1374
 -19510942.00046 -15188506.04744  20640703.2034                   20640700.8754
 -15937580.86345 -12409857.20743  21983999.4774                   21983999.9804
 -22616287.17646 -17563319.50444  20307623.6254                   20307621.8674
                                  23553848.773
 -16382863.12145 -12737840.85243  20843229.5394                   20843224.8364
 11  8 15  1 46 30.0000000  0  5G10G12G25G05G02
 -12069836.69946  -9391114.05143  21711102.2584                   21711099.8014
 -19475218.52046 -15160669.62545  20647500.8444                   20647498.2664
 -15967211.21546 -12432945.86344  21978362.1174                   21978361.6374
 -22622770.69946 -17568371.63745  20306390.1724                   20306387.6054
 -16330307.36346 -12696888.38744  20853230.4774                   20853226.3364
 11  8 15  1 47  0.0000000  0  5G10G12G25G05G02
 -11971532.41845  -9314513.23843  21729808.4844                   21729806.7734
 -19438911.98845 -15132378.73443  20654409.7274                   20654407.1684
 -15996341.00445 -12455644.30143  21972817.6484                   21972817.7934
 -22628687.21545 -17572981.77744  20305264.4224                   20305261.8874
 -16277602.79345 -12655819.80943  20863258.7034                   20863255.8754
 11  8 15  1 47 30.0000000  0  5G10G12G25G05G02
 -11872780.38345  -9237563.61342  21748601.4454                   21748597.6524
 -19402022.44945 -15103633.63743  20661429.5084                   20661426.3754
 -16024967.96145 -12477950.99643  21967369.4384                   21967370.4694
 -22634035.50045 -17577149.25444  20304246.3524                   20304243.5084
 -16224749.84845 -12614635.70343  20873317.8364                   20873312.8834
 11  8 15  1 48  0.0000000  0  5G10G12G25G05G02
 -11773583.21146  -9160267.21943  21767477.2894                   21767475.0274
 -19364550.12146 -15074434.52744  20668560.3834                   20668557.7664
 -16053090.11746 -12499864.47344  21962019.2974                   21962019.7664
 -22638814.62946 -17580873.32445  20303336.4454                   20303334.7344
 -16171749.18046 -12573336.59444  20883402.7424                   20883398.6024
 11  8 15  1 48 30.0000000  0  5G10G12G25G05G02
 -11673939.46946  -9082622.77043  21786439.2194                   21786436.9774
 -19326491.25046 -15044778.27344  20675802.3204                   20675800.5164
 -16080701.43446 -12521379.77344  21956764.8284                   21956765.3554
 -22643019.91046 -17584150.14845  20302536.3754                   20302534.5944
 -16118597.95746 -12531920.06644  20893517.1804                   20893513.3054
 11  8 15  1 49  0.0000000  0  7G10G12G25G29G05G04G02
 -11573861.38346  -9004639.87943  21805483.2894                   21805481.4804
 -19287855.45346 -15014672.48845  20683154.3914                   20683152.2274
 -16107809.44546 -12542502.93744  21951606.6094                   21951607.1334
  -6442710.39855  -5660632.03552  23922234.2114                   23922233.7734
 -22646659.96546 -17586986.55145  20301843.9224                   20301841.5474
  -6245568.49615                  23675596.805
 -16065305.88746 -12490393.80945  20903658.0394                   20903654.9654
 11  8 15  1 49 30.0000000  0  7G10G12G25G29G05G04G02
 -11473349.56646  -8926318.99243  21824610.2194                   21824608.2664
 -19248641.52346 -14984116.18445  20690616.6804                   20690614.7194
 -16134410.62546 -12563231.12544  21946544.6024                   21946544.6294
  -6500116.16845  -5705363.72342  23911310.5314                   23911308.6334
 -22649732.35946 -17589380.59445  20301259.6564                   20301257.4104
  -6139064.555 5                  23695863.695
 -16011872.35546 -12448757.28544  20913826.7114                   20913822.5984
 11  8 15  1 50  0.0000000  0  7G10G12G25G29G05G04G02
 -11372408.99246  -8847663.99243  21843818.4924                   21843817.1134
 -19208852.61746 -14953111.84445  20698188.5944                   20698186.2504
 -16160505.32046 -12583564.66444  21941579.4224                   21941579.2934
  -6557571.64845  -5750134.15642  23900376.5864                   23900375.7034
 -22652238.48046 -17591333.39845  20300782.2584                   20300779.9384
  -6032603.242 5                  23716121.828
 -15958300.41046 -12407012.91444  20924021.1804                   20924016.8714
 11  8 15  1 50 30.0000000  0  7G10G12G25G29G05G04G02
 -11271038.51646  -8768674.01243  21863108.4614                   21863106.7704
 -19168485.41846 -14921656.88744  20705870.0084                   20705868.0124
 -16186087.88746 -12603499.11744  21936710.3834                   21936711.0514
  -6615072.37945  -5794939.91042  23889435.1564                   23889433.8014
 -22654174.02746 -17592841.58245  20300414.0084                   20300411.7194
  -5926181.320 5                  23736375.227
 -15904586.91046 -12365158.23044  20934242.9844                   20934238.5944
 11  8 15  1 51  0.0000000  0  7G10G12G25G29G05G04G02
 -11169240.16445  -8689350.53942  21882480.7114                   21882477.5474
 -19127539.58645 -14889750.94544  20713662.5634                   20713659.4804
 -16211155.97745 -12623032.59443  21931940.6724                   21931940.9734
                                  23878484.3914                   23878482.8094
 -22655537.86345 -17593904.17644  20300155.6334                   20300151.9614
                                  23756620.320
 -15850731.94545 -12323193.20343  20944491.4844                   20944486.4924
 11  8 15  1 51 30.0000000  0  5G10G12G25G05G02
 -11067009.32045  -8609690.12942  21901934.8754                   21901931.8874
 -19086008.02745 -14857388.71144  20721565.8594                   20721562.4264
 -16235700.55945 -12642158.24243  21927269.4774                   21927269.3444
 -22656321.97745 -17594515.16044  20300006.8444                   20300002.5864
 -15796729.31245 -12281113.24243  20954767.5944                   20954762.4614
 11  8 15  1 52  0.0000000  0  5G10G12G25G05G02
 -10964349.27355  -8529695.29352  21921470.0394                   21921466.9344
 -19043891.59045 -14824570.70743  20729579.4224                   20729576.3634
 -16259720.26245 -12660874.91043  21922699.0704                   21922698.9454
 -22656526.08645 -17594674.19144  20299965.6804                   20299963.6054
 -15742580.54345 -12238919.38743  20965070.1644                   20965066.2504
 11  8 15  1 52 30.0000000  0  5G10G12G25G05G02
                                  21941087.5164                   21941082.8284
 -19001192.30145 -14791298.55143  20737706.0944                   20737701.5824
 -16283213.81645 -12679181.56243  21918228.4924                   21918228.1644
 -22656150.27745 -17594381.32043  20300037.3284                   20300034.8634
 -15688286.32045 -12196612.16443  20975403.4384                   20975397.6054
 11  8 15  1 53  0.0000000  0  5G10G12G25G05G02
 -10757763.49254  -8368719.41052  21960781.0394                   21960778.1684
 -18957920.27345 -14757580.10543  20745940.0004                   20745936.6604
 -16306189.59445 -12697084.80543  21913857.1414                   21913855.8244
 -22655203.93445 -17593643.89844  20300218.8914                   20300215.3054
 -15633857.08245 -12154199.80943  20985760.2194                   20985755.5784
 11  8 15  1 53 30.0000000  0  5G10G12G25G05G02
                                  21980556.4224                   21980552.5554
 -18914070.12545 -14723411.16843  20754284.8524                   20754280.9454
 -16328639.60245 -12714578.29743  21909583.9224                   21909583.6914
 -22653680.48845 -17592456.76644  20300508.2274                   20300505.2854
 -15579288.12145 -12111678.53143  20996145.0554                   20996139.5474
 11  8 15  1 54  0.0000000  0  5G10G12G25G05G02
                                  22000409.3754                   22000405.2154
 -18869649.86745 -14688797.97343  20762736.5164                   20762732.9264
 -16350569.80545 -12731666.75443  21905410.8134                   21905410.6724
 -22651586.87545 -17590825.35943  20300906.6724                   20300903.1484
 -15524587.73845 -12069054.85243  21006553.4534                   21006548.6374
 11  8 15  1 54 30.0000000  0  6G10G12G25G29G05G02
 -10444789.13345  -8124843.38343  22020338.8204                   22020336.4264
 -18824653.79746 -14653736.21544  20771299.1484                   20771296.2274
 -16371971.84046 -12748343.76644  21901337.8284                   21901338.4614
  -6328282.76215                  23801636.469
 -22648916.15646 -17588744.37145  20301414.3674                   20301411.9144
 -15469749.79746 -12026324.08244  21016989.2734                   21016984.8014
 11  8 15  1 55  0.0000000  0  6G10G12G25G29G05G02
 -10339650.87545  -8042917.48443  22040346.1564                   22040344.1524
 -18779086.41846 -14618229.16444  20779970.7424                   20779967.7934
 -16392847.82046 -12764610.73444  21897365.6024                   21897365.9884
  -6386124.965 5                  23790629.375
 -22645671.59046 -17586216.10945  20302032.5474                   20302029.9774
 -15414778.96146 -11983489.67244  21027450.1174                   21027445.8484
 11  8 15  1 55 30.0000000  0  6G10G12G25G29G05G02
 -10234121.99245  -7960687.14143  22060426.9454                   22060425.5124
 -18732958.83246 -14582285.55144  20788747.5634                   20788745.5704
 -16413206.56246 -12780474.66043  21893491.3444                   21893491.4304
  -6444014.273 4                  23779614.172
 -22641863.10946 -17583248.39844  20302756.3444                   20302754.4454
 -15359686.32046 -11940560.28544  21037933.1094                   21037928.9494
 11  8 15  1 56  0.0000000  0  6G10G12G25G29G05G02
 -10128192.48445  -7878144.68043  22080584.6644                   22080583.5434
 -18686259.43746 -14545896.45744  20797634.7424                   20797632.1844
 -16433034.11746 -12795924.70744  21889718.9454                   21889718.5554
  -6501937.13714                  23768591.563
 -22637478.03146 -17579831.46144  20303590.0634                   20303588.7974
 -15304460.31646 -11897527.07044  21048442.7424                   21048438.7814
 11  8 15  1 56 30.0000000  0  6G10G12G25G29G05G02
 -10021860.32445  -7795288.46543  22100818.9454                   22100817.2504
 -18638984.43746 -14509058.78944  20806630.6804                   20806628.3834
 -16452324.39546 -12810956.08243  21886047.7424                   21886048.0124
  -6559887.65614                  23757564.227
 -22632511.43446 -17575961.33244  20304536.0084                   20304533.7234
 -15249097.17646 -11854386.94944  21058977.4064                   21058973.5234
 11  8 15  1 57  0.0000000  0  6G10G12G25G29G05G02
  -9915130.66045  -7712122.51243  22121129.0634                   22121127.2154
 -18591137.10946 -14471775.16444  20815736.2734                   20815733.4064
 -16471078.00446 -12825569.28144  21882478.5394                   21882479.3874
  -6617867.46915                  23746529.805
 -22626965.25046 -17571639.62544  20305591.3284                   20305589.0864
 -15193599.60946 -11811142.10544  21069538.8594                   21069534.5474
 11  8 15  1 57 30.0000000  0  6G10G12G25G29G05G02
  -9808009.19545  -7628651.28942  22141514.2034                   22141511.3014
 -18542720.98046 -14434048.33644  20824949.2504                   20824947.0514
 -16489296.26646 -12839765.31244  21879011.7974                   21879012.0044
  -6675877.74215                  23735491.109
 -22620841.89546 -17566868.16845  20306757.0164                   20306754.1804
 -15137971.69946 -11767795.69144  21080124.5394                   21080119.8164
 11  8 15  1 58  0.0000000  0  6G10G12G25G29G05G02
  -9700501.27745  -7544878.84842  22161971.4774                   22161969.7424
 -18493739.07446 -14395880.61344  20834270.6254                   20834267.5554
 -16506980.03146 -12853544.86343  21875647.7114                   21875646.9224
  -6733919.828 5                  23724446.094
 -22614143.62146 -17561648.69545  20308031.0944                   20308028.9494
 -15082216.10246 -11724349.77744  21090734.9224                   21090730.1094
 11  8 15  1 58 30.0000000  0  6G10G12G25G29G05G02
  -9592611.46545  -7460808.85943  22182503.4304                   22182500.4494
 -18444194.85546 -14357274.72344  20843698.2424                   20843695.7384
 -16524129.85946 -12866908.34844  21872383.0314                   21872383.4574
  -6791994.80114                  23713395.711
 -22606872.26646 -17555982.67644  20309415.0394                   20309412.5704
 -15026335.70746 -11680806.60944  21101367.8524                   21101363.9884
 11  8 15  1 59  0.0000000  0  6G10G12G25G29G05G02
  -9484341.79745  -7376442.86342  22203106.1484                   22203103.8484
 -18394088.57046 -14318230.84444  20853232.6484                   20853230.2624
 -16540743.63346 -12879854.10943  21869221.7344                   21869222.0514
                                  23702337.469
 -22599026.73446 -17549869.23044  20310908.2504                   20310905.1174
 -14970330.30546 -11637166.01644  21112025.0234                   21112020.9574
 11  8 15  1 59 30.0000000  0  5G10G12G25G05G02
                                  22223781.4844                   22223778.7304
 -18343417.40245 -14278746.77043  20862876.0234                   20862872.0944
 -16556816.57445 -12892378.42243  21866162.2274                   21866163.2114
 -22590603.59445 -17543305.66843  20312510.8364                   20312507.4924
 -14914197.44145 -11593426.10543  21122708.0704                   21122702.5594
 11  8 15  2  0  0.0000000  0  5G10G12G25G05G02
  -9266663.26255  -7206823.27352  22244529.4304                   22244526.7774
 -18292180.73046 -14238822.12544  20872625.6254                   20872622.6914
 -16572345.60946 -12904478.99643  21863208.2664                   21863208.2424
 -22581601.10246 -17536290.76644  20314224.1724                   20314221.1954
 -14857936.29346 -11549586.28143  21133413.3444                   21133408.8484
 11  8 15  2  0 30.0000000  0  5G10G12G25G05G02
  -9157257.26645  -7121571.83642  22265348.5394                   22265345.7974
 -18240379.16845 -14198457.25043  20882482.1564                   20882479.9924
 -16587328.34045 -12916153.80143  21860357.4614                   21860357.6334
 -22572018.19545 -17528823.49644  20316046.8364                   20316044.8204
 -14801546.94545 -11505646.50443  21144144.6724                   21144139.8794
 11  8 15  2  1  0.0000000  0  5G10G12G25G05G02
                                  22286239.3834                   22286236.0944
 -18188012.48445 -14157652.02343  20892448.3134                   20892445.3284
 -16601762.71145 -12927401.33243  21857610.0864                   21857609.6644
 -22561853.77745 -17520903.13344  20317982.0554                   20317979.0784
 -14745028.82845 -11461606.37943  21154899.4224                   21154894.2424
 11  8 15  2  1 30.0000000  0  5G10G12G25G05G02
                                  22307198.2424                   22307195.1374
 -18135090.55145 -14116414.15243  20902519.0944                   20902515.9454
 -16615655.79745 -12938227.09443  21854966.4224                   21854966.4804
 -22551116.26245 -17512536.21943  20320025.1644                   20320022.0084
 -14688391.10545 -11417473.10243  21165676.8444                   21165671.5044
 11  8 15  2  2  0.0000000  0  4G12G25G05G02
 -18081609.52745 -14074740.62143  20912696.9614                   20912692.6644
 -16629001.24245 -12948626.08643  21852426.8754                   21852426.3164
 -22539800.94545 -17503719.05543  20322178.3674                   20322174.6954
 -14631629.49645 -11373243.27343  21176479.8984                   21176473.3594
 11  8 15  2  2 30.0000000  0  5G10G12G25G05G02
                                  22349328.328
 -18027569.38345 -14032631.43443  20922979.5234                   20922976.3244
 -16641796.96145 -12958596.77043  21849991.5474                   21849991.7624
 -22527906.75845 -17494450.83643  20324439.9614                   20324438.2544
 -14574744.07045 -11328916.97743  21187304.2194                   21187299.0354
 11  8 15  2  3  0.0000000  0  6G10G12G25G29G05G02
  -8604716.18456  -6691020.12553  22370493.9064                   22370492.5634
 -17972978.40646 -13990093.11745  20933367.7114                   20933365.0274
 -16654048.66446 -12968143.64144  21847661.3364                   21847661.1214
  -6330122.43455  -6320450.78953  23613719.3914                   23613717.5314
 -22515440.63346 -17484737.07045  20326814.4144                   20326811.4414
 -14517742.16046 -11284500.02044  21198150.3204                   21198146.1294
 11  8 15  2  3 30.0000000  0  6G10G12G25G29G05G02
  -8493131.43745  -6604070.96943  22391727.7734                   22391725.6724
 -17917834.29346 -13947123.68044  20943860.7974                   20943858.9454
 -16665751.63346 -12977262.80544  21845433.5784                   21845433.7274
  -6388431.63345  -6365886.49242  23602623.7034                   23602621.7424
 -22502399.05546 -17474574.75845  20329295.2114                   20329292.4774
 -14460620.98046 -11239989.98044  21209020.8204                   21209015.7074
 11  8 15  2  4  0.0000000  0  6G10G12G25G29G05G02
  -8381195.93045  -6516848.52042  22413027.9304                   22413025.7734
 -17862139.60246 -13903725.18444  20954459.5864                   20954457.1644
 -16676905.99646 -12985954.44144  21843310.7424                   21843311.1914
  -6446761.06645  -6411337.95742  23591524.6644                   23591521.5394
 -22488783.71946 -17463965.34445  20331887.0944                   20331884.0234
 -14403382.64146 -11195388.64844  21219911.8284                   21219907.6994
 11  8 15  2  4 30.0000000  0  6G10G12G25G29G05G02
  -8268907.48845  -6429350.98442  22434395.3834                   22434393.7234
 -17805890.68045 -13859894.83244  20965163.6564                   20965161.6994
 -16687505.34846 -12994213.64843  21841293.2424                   21841294.6884
  -6505104.19144  -6456800.02042  23580421.6334                   23580419.6414
 -22474589.50846 -17452904.86744  20334587.7814                   20334584.6914
 -14346023.02045 -11150692.80943  21230827.6254                   21230823.2034
 11  8 15  2  5  0.0000000  0  6G10G12G25G29G05G02
  -8156270.20345  -6341581.74643  22455829.4614                   22455828.1094
 -17749090.10946 -13815634.70744  20975972.4774                   20975969.7774
 -16697549.98446 -13002040.67644  21839382.8834                   21839382.6604
  -6563461.19545  -6502273.04742  23569316.0084                   23569313.8524
 -22459817.76246 -17441394.45345  20337397.6954                   20337395.6764
 -14288544.16046 -11105904.14144  21241765.6174                   21241761.2934
 11  8 15  2  5 30.0000000  0  6G10G12G25G29G05G02
  -8043295.35245  -6253549.41043  22477328.0944                   22477326.9264
 -17691747.37546 -13770952.07044  20986884.1334                   20986881.8954
 -16707047.07046 -13009441.00044  21837575.0634                   21837575.6884
  -6621839.35945  -6547762.52042  23558207.7114                   23558205.7034
 -22444477.00446 -17429440.59845  20340317.3984                   20340315.0664
 -14230954.48046 -11061029.07044  21252725.0554                   21252720.2234
 11  8 15  2  6  0.0000000  0  7G10G12G25G29G05G04G02
  -7929983.35245  -6165254.34843  22498891.2114                   22498889.3984
 -17633861.08646 -13725845.87544  20997899.3054                   20997896.8164
 -16715993.06646 -13016411.88744  21835872.5004                   21835873.3594
  -6680235.03145  -6593265.61343  23547095.7664                   23547093.2664
 -22428565.00446 -17417041.60945  20343345.6174                   20343343.1454
  -6203765.98815                  24359948.586
 -14173252.21146 -11016066.25844  21263705.3204                   21263700.1764
 11  8 15  2  6 30.0000000  0  7G10G12G25G29G05G04G02
  -7816331.96945  -6076694.85243  22520517.6644                   22520516.4024
 -17575427.44946 -13680313.17244  21009019.3914                   21009016.8714
 -16724381.68746 -13022948.46144  21834276.6174                   21834277.1484
  -6738641.75845  -6638777.32842  23535981.1644                   23535978.5274
 -22412076.73446 -17404193.57845  20346482.8364                   20346480.5004
  -6098895.207 5                  24379904.500
 -14115433.29346 -10971012.55144  21274707.0554                   21274702.5354
 11  8 15  2  7  0.0000000  0  7G10G12G25G29G05G04G02
  -7702345.65245  -5987874.36343  22542209.8984                   22542206.9534
 -17516450.20346 -13634356.87544  21020242.3674                   21020239.7074
 -16732213.59046 -13029051.23444  21832786.1644                   21832786.7304
  -6797059.81645  -6684297.87942  23524862.7114                   23524861.6294
 -22395014.38646 -17390898.22045  20349730.3524                   20349727.3674
  -5994082.418 5                  24399849.086
 -14057499.79346 -10925869.55544  21285731.3834                   21285727.3484
 11  8 15  2  7 30.0000000  0  7G10G12G25G29G05G04G02
  -7588034.50845  -5898800.69943  22563961.5704                   22563959.1844
 -17456937.47346 -13587983.30544  21031565.6024                   21031563.5474
 -16739494.75046 -13034724.83644  21831400.3054                   21831400.8954
  -6855494.82045  -6729831.59442  23513744.3364                   23513741.5354
 -22377384.82846 -17377160.85945  20353084.3754                   20353082.1414
  -5889334.80515                  24419782.133
 -13999459.59846 -10880643.41444  21296776.1414                   21296771.9804
 11  8 15  2  8  0.0000000  0  7G10G12G25G29G05G04G02
  -7473398.92645  -5809474.31242  22585775.5084                   22585774.1414
 -17396888.36346 -13541191.80144  21042994.1254                   21042991.1684
 -16746221.72346 -13039966.60944  21830120.0314                   21830120.7464
  -6913943.57445  -6775376.10242  23502622.5704                   23502619.8284
 -22359186.17646 -17362980.06245  20356547.7504                   20356545.0904
  -5784650.26214                  24439701.242
 -13941310.85546 -10835332.69544  21307841.8834                   21307837.3834
 11  8 15  2  8 30.0000000  0  7G10G12G25G29G05G04G02
  -7358437.59845  -5719894.06642  22607652.3754                   22607650.7774
 -17336299.84846 -13493979.95344  21054523.5944                   21054520.9924
 -16752389.30146 -13044772.50044  21828946.6954                   21828947.1134
  -6972400.43045  -6820926.83642  23491498.0084                   23491495.4884
 -22340414.40246 -17348352.66445  20360119.4844                   20360117.0864
                                  24459611.727
 -13883049.66046 -10789934.34844  21318928.2814                   21318923.8984
 11  8 15  2  9  0.0000000  0  7G10G12G25G29G05G04G02
  -7243155.41445  -5630063.79343  22629591.1804                   22629588.1954
 -17275175.46546 -13446350.57444  21066154.8834                   21066152.4064
 -16757998.44546 -13049143.25444  21827879.5944                   21827879.6254
  -7030865.93745  -6866484.34043  23480372.3984                   23480370.4064
 -22321071.87146 -17333280.54745  20363800.5634                   20363798.2074
                                  24479509.250
 -13824679.03546 -10744450.75844  21330036.0864                   21330031.9064
 11  8 15  2  9 30.0000000  0  6G10G12G25G29G05G02
  -7127556.19145  -5539986.47342  22651588.0314                   22651586.1214
 -17213517.89846 -13398305.71944  21077888.8134                   21077885.7504
 -16763049.18746 -13053078.86344  21826918.3054                   21826918.7664
  -7089339.87145  -6912048.33242  23469244.4844                   23469242.9614
 -22301159.91446 -17317764.70345  20367589.6174                   20367587.4064
 -13766200.36746 -10698882.95344  21341163.9614                   21341159.4884
 11  8 15  2 10  0.0000000  0  6G10G12G25G29G05G02
                                  22673646.8284                   22673643.8404
 -17151321.17645 -13349840.66443  21089723.4924                   21089720.9884
 -16767533.84045 -13056573.31643  21826064.3444                   21826065.0124
                                  23458118.0234                   23458115.4454
 -22280672.14845 -17301800.11344  20371488.2504                   20371485.6684
 -13707607.53145 -10653226.14143  21352314.0234                   21352309.7664
 11  8 15  2 10 30.0000000  0  6G10G12G25G29G05G02
  -6895396.71154  -5359082.95352  22695766.3444                   22695764.0594
 -17088586.29345 -13300956.32043  21101661.5394                   21101658.7624
 -16771450.44545 -13059625.18443  21825319.2814                   21825319.5984
                                  23446991.8754                   23446988.4184
 -22259608.09445 -17285386.52044  20375496.6414                   20375493.7974
 -13648899.86345 -10607479.87943  21363484.9384                   21363480.9344
 11  8 15  2 11  0.0000000  0  6G10G12G25G29G05G02
                                  22717946.6414                   22717943.9454
 -17025315.70745 -13251654.60543  21113701.3984                   21113698.5904
 -16774799.09045 -13062234.51643  21824682.6884                   21824682.1524
                                  23435864.8524                   23435862.2734
 -22237968.85545 -17268524.78544  20379614.6174                   20379611.2034
 -13590079.22345 -10561645.62143  21374678.8284                   21374673.7034
 11  8 15  2 11 30.0000000  0  6G10G12G25G29G05G02
                                  22740187.5864                   22740182.6054
 -16961507.51645 -13201933.90643  21125845.4064                   21125840.7504
 -16777575.20745 -13064397.68043  21824153.8914                   21824153.8094
                                  23424740.4924                   23424736.5084
 -22215751.14845 -17251212.22743  20383841.8984                   20383838.5984
 -13531142.14545 -10515720.59843  21385893.7814                   21385888.6054
 11  8 15  2 12  0.0000000  0  6G10G12G25G29G05G02
                                  22762485.4924                   22762480.4534
 -16897167.32045 -13151798.69543  21138088.3984                   21138084.6564
 -16779781.88745 -13066117.12943  21823734.5084                   21823733.8754
                                  23413616.3054                   23413612.4964
 -22192959.65245 -17233452.60544  20388178.3364                   20388175.8324
 -13472093.51255 -10469708.68753  21397131.5784                   21397125.4024
 11  8 15  2 12 30.0000000  0  5G10G12G25G05G02
                                  22784839.3204                   22784835.3364
 -16832306.09445 -13101257.47743  21150430.7274                   21150427.3674
 -16781428.04745 -13067399.83243  21823420.9774                   21823420.5944
 -22169604.26645 -17215253.55943  20392624.5164                   20392620.4804
 -13412943.25444 -10423617.53943  21408388.3754                   21408381.4614
 11  8 15  2 13  0.0000000  0  4G12G25G05G02
 -16766915.19945 -13050303.56643  21162874.0004                   21162871.3794
 -16782502.64545 -13068237.18443  21823215.5164                   21823216.4884
 -22145675.55545 -17196607.83244  20397177.2194                   20397174.5164
 -13353681.90645 -10377439.90243  21419664.3134                   21419658.8204
 11  8 15  2 13 30.0000000  0  4G12G25G05G02
 -16701001.48445 -12998942.21943  21175416.6884                   21175414.0204
 -16783009.94945 -13068632.47743  21823119.4844                   21823118.5514
 -22121178.97345 -17177519.54344  20401839.3984                   20401836.2274
 -13294314.87545 -10331179.88743  21430961.3984                   21430956.2424
 11  8 15  2 14  0.0000000  0  4G12G25G05G02
 -16634566.10245 -12947174.40243  21188058.8754                   21188056.0274
 -16782949.01645 -13068584.95743  21823130.9614                   21823131.2424
 -22096114.84045 -17157989.03144  20406607.7424                   20406604.8714
 -13234842.58245 -10284837.84043  21442278.0554                   21442273.1214
 11  8 15  2 14 30.0000000  0  4G12G25G05G02
 -16567610.97745 -12895001.56243  21200800.5554                   21200796.9384
 -16782318.67645 -13068093.76243  21823251.3754                   21823250.7664
 -22070483.44945 -17138016.46944  20411486.3284                   20411482.8524
 -13175265.21545 -10238413.89543  21453616.3054                   21453610.0474
 11  8 15  2 15  0.0000000  0  4G12G25G05G02
 -16500135.44945 -12842423.22742  21213640.1334                   21213636.7344
 -16781116.38745 -13067156.87543  21823480.8134                   21823479.7974
 -22044283.39845 -17117600.82843  20416472.4694                   20416468.0204
 -13115581.42644 -10191907.03943  21464972.9064                   21464967.2814
 11  8 15  2 15 30.0000000  0  7G10G12G25G29G05G04G02
  -7843679.91016                  22620361.164
 -18007555.99257 -14017036.80955  20926787.6644                   20926785.3674
 -18354758.17647 -14293371.38745  21524026.3134
  21524026.6844   -7897351.41416  23035980.141
 -23592931.04747 -18324339.39545  20121773.4534                   20121770.7344
  -7841785.98015                  24437371.031
 -14631206.31647 -11372913.60245  21176558.3054                   21176554.7734
 11  8 15  2 16  0.0000000  0  7G10G12G25G29G05G04G02
  -7724160.34045  -5744222.47353  22643104.3984                   22643103.0274
 -17939046.56246 -13963652.82045  20939824.9384                   20939822.4614
 -18352411.39846 -14291542.69144  21524472.8204                   21524473.2194
  -7955748.27345  -8427212.64553  23024867.5864                   23024866.2154
 -23565597.03146 -18303040.12545  20126975.3444                   20126972.6844
  -7738062.449 5                  24457109.156
 -14571312.02046 -11326242.69944  21187956.0864                   21187952.1094
 11  8 15  2 16 30.0000000  0  7G10G12G25G29G05G04G02
  -7604373.52045  -5650882.13742  22665898.9454                   22665898.1174
 -17870036.17246 -13909878.48844  20952955.8284                   20952954.7424
 -18349504.70747 -14289277.71144  21525025.6094                   21525025.9144
  -8014143.37145  -8472715.26243  23013755.1644                   23013754.2114
 -23537710.22746 -18281310.13345  20132282.0394                   20132279.0314
  -7634414.418 5                  24476831.375
 -14511326.79346 -11279500.97344  21199371.2894                   21199366.7034
 11  8 15  2 17  0.0000000  0  8G10G26G12G25G29G05G04G02
  -7484311.22345  -5557327.10943  22688746.7664                   22688744.8914
  -8111738.28915                  24301021.719
 -17800515.60546 -13855706.62945  20966186.0474                   20966183.6644
 -18346026.35546 -14286567.28544  21525687.3754                   21525688.0984
  -8072523.97345  -8518206.58643  23002645.7664                   23002644.4654
 -23509260.29346 -18259141.34045  20137695.7504                   20137693.0474
  -7530830.977 5                  24496544.336
 -14451239.99646 -11232680.09044  21210804.0474                   21210801.1994
 11  8 15  2 17 30.0000000  0  8G10G26G12G25G29G05G04G02
  -7363974.68445  -5463558.36343  22711646.0004                   22711644.0864
  -8182176.05515                  24287616.828
 -17730485.27346 -13801137.53944  20979512.6414                   20979510.3364
 -18341974.29346 -14283409.82044  21526458.4064                   21526459.2114
  -8130887.16445  -8563684.37543  22991539.6804                   22991538.0514
 -23480246.58246 -18236533.23445  20143216.7114                   20143214.2344
  -7427310.914 4                  24516243.789
 -14391050.22746 -11185778.97344  21222258.8754                   21222254.8834
 11  8 15  2 18  0.0000000  0  8G10G26G12G25G29G05G04G02
  -7243367.28545  -5369578.55942  22734595.5704                   22734594.4924
  -8252681.320 5                  24274201.766
 -17659947.16846 -13746172.76244  20992935.0864                   20992933.2974
 -18337348.43046 -14279805.21944  21527338.9534                   21527338.9574
  -8189232.21545  -8609147.94543  22980436.8594                   22980435.5164
 -23450670.10246 -18213486.59045  20148844.2974                   20148842.0274
                                  24535930.508
 -14330758.72746 -11138798.57444  21233731.5944                   21233727.5164
 11  8 15  2 18 30.0000000  0  8G10G26G12G25G29G05G04G02
  -7122486.82845  -5275386.05543  22757600.4614                   22757597.3324
  -8323245.88715                  24260772.383
 -17588898.03946 -13690809.82844  21006455.3524                   21006453.5824
 -18332143.04346 -14275749.06244  21528329.6334                   21528329.7734
  -8247552.19945  -8654592.04343  22969337.8204                   22969336.8134
 -23420526.40446 -18189997.98845  20154581.0864                   20154578.3134
                                  24555606.273
 -14270360.81646 -11091735.31244  21245224.8594                   21245221.3164
 11  8 15  2 19  0.0000000  0  7G10G26G12G25G29G05G02
  -7001342.51645  -5180987.86742  22780652.3524                   22780650.2734
  -8393873.38715                  24247332.820
 -17517346.32046 -13635055.22744  21020071.6884                   21020069.1994
 -18326364.27746 -14271246.07044  21529428.7034                   21529429.9614
  -8305852.31645  -8700020.61743  22958244.6414                   22958242.9344
 -23389823.12146 -18166073.32445  20160423.5784                   20160420.8404
 -14209863.44146 -11044594.45744  21256737.1024                   21256733.0594
 11  8 15  2 19 30.0000000  0  6G10G12G25G29G05G02
                                  22803757.3594                   22803752.7894
 -17445293.83245 -13578910.35543  21033783.3524                   21033779.7074
 -18320011.32846 -14266295.65644  21530637.8284                   21530637.6724
  -8364130.78944  -8745432.26642  22947155.2894                   22947151.9494
 -23358560.94545 -18141713.09444  20166372.6414                   20166370.1804
 -14149266.51645 -10997376.05543  21268269.6174                   21268264.0354
 11  8 15  2 20  0.0000000  0  6G10G12G25G29G05G02
  -6758263.48855  -4991575.60952  22826910.0474                   22826905.7624
 -17372731.97346 -13522368.68444  21047591.2814                   21047587.9104
 -18313073.35246 -14260889.44944  21531958.0164                   21531958.7464
  -8422375.53955  -8790817.74252  22936070.5864                   22936069.0434
 -23326729.74646 -18116909.58245  20172429.4774                   20172426.9964
 -14088560.37946 -10950072.57444  21279820.4924                   21279816.1724
 11  8 15  2 20 30.0000000  0  6G10G12G25G29G05G02
                                  22850114.5704                   22850111.8754
 -17299660.56646 -13465429.94544  21061495.7814                   21061493.7154
 -18305547.85246 -14255025.41444  21533390.0314                   21533390.6174
  -8480583.10555  -8836174.20352  22924994.7274                   22924992.2734
 -23294328.63746 -18091661.96545  20178595.4144                   20178592.7854
 -14027743.21946 -10902682.60944  21291393.0634                   21291388.9264
 11  8 15  2 21  0.0000000  0  6G10G12G25G29G05G02
  -6514118.28945  -4801332.62142  22873369.3134                   22873366.2074
 -17226084.29746 -13408097.76244  21075497.2114                   21075494.4064
 -18297437.42246 -14248705.56244  21534933.8134                   21534934.3794
  -8538754.58245  -8881502.52342  22913924.4614                   22913922.7704
 -23261361.35246 -18065973.12944  20184868.6954                   20184866.6764
 -13966818.69945 -10855208.93443  21302988.6804                   21302983.2424
 11  8 15  2 21 30.0000000  0  5G12G25G29G05G02
 -17152011.26645 -13350378.44943  21089593.1254                   21089589.8554
 -18288747.58245 -14241934.18043  21536586.3984                   21536586.8984
                                  22902860.5084                   22902858.3404
 -23227835.25445 -18039848.81644  20191248.9384                   20191246.0514
 -13905792.69945 -10807656.14543  21314601.0084                   21314595.1644
 11  8 15  2 22  0.0000000  0  6G10G12G25G29G05G02
                                  22920021.430
 -17077444.29345 -13292274.30944  21103782.8054                   21103779.5824
 -18279478.48446 -14234711.50443  21538350.8204                   21538351.3164
  -8655002.30155  -8972084.98053  22891802.5944                   22891802.0864
 -23193750.92245 -18013289.59444  20197734.6484                   20197732.5904
 -13844666.46945 -10760025.30943  21326232.4144                   21326227.7704
 11  8 15  2 22 30.0000000  0  6G10G12G25G29G05G02
                                  22943418.070
 -17002385.00045 -13233786.52043  21118066.1564                   21118062.8054
 -18269629.72745 -14227037.10943  21540224.4064                   21540225.0824
                                  22880754.1484                   22880750.5164
 -23159109.39845 -17986296.17644  20204327.3444                   20204324.0354
 -13783440.09845 -10712316.41443  21337884.1564                   21337878.2504
 11  8 15  2 23  0.0000000  0  5G10G12G25G05G02
                                  22966864.078
 -16926838.23045 -13174918.92643  21132441.3054                   21132438.5084
 -18259203.70345 -14218912.93743  21542208.7664                   21542208.7034
 -23123914.50845 -17958871.55143  20211024.5944                   20211021.0474
 -13722116.88745 -10664532.10943  21349553.5084                   21349548.2274
 11  8 15  2 23 30.0000000  0  6G10G12G25G29G05G02
  -7433866.27714                  22990352.695
 -16850802.49646 -13115670.35543  21146910.4844                   21146907.8284
 -18248196.52346 -14210335.95744  21544303.9384                   21544303.3954
                                  22858671.008
 -23088163.72746 -17931013.84444  20217827.8594                   20217824.8204
 -13660693.62945 -10616669.86343  21361241.0394                   21361236.2734
 11  8 15  2 24  0.0000000  0  6G10G12G25G29G05G02
                                  23013888.063
 -16774279.26245 -13056041.79743  21161471.6414                   21161469.7504
 -18236607.55545 -14201305.51243  21546508.3754                   21546508.6454
                                  22847640.633
 -23051857.52045 -17902723.21544  20224736.9534                   20224733.1724
 -13599169.73445 -10568729.08643  21372948.9694                   21372944.3484
 11  8 15  2 24 30.0000000  0  5G10G12G25G05G02
                                  23037467.250
 -16697278.46545 -12996041.16043  21176125.5084                   21176122.3134
 -18224444.50045 -14191827.77743  21548824.7194                   21548823.3794
 -23015005.00445 -17874006.94944  20231749.4304                   20231745.5434
 -13537553.99645 -10520716.81643  21384674.5864                   21384668.5554
 11  8 15  2 25  0.0000000  0  4G12G25G05G02
 -16619800.52345 -12935668.74243  21190869.5944                   21190865.7074
 -18211705.08645 -14181900.95743  21551248.1174                   21551247.6484
 -22977605.02345 -17844864.09443  20238866.4304                   20238862.2234
 -13475844.85544 -10472631.75843  21396416.5704                   21396410.7704
 11  8 15  2 25 30.0000000  0  4G12G25G05G02
 -16541841.72745 -12874921.61343  21205705.4064                   21205701.3554
 -18198383.50045 -14171520.50043  21553784.8054                   21553782.5904
 -22939653.21545 -17815291.21943  20246089.2034                   20246084.6334
 -13414036.61754 -10424469.45352  21408179.6254                   21408173.2974
 11  8 15  2 26  0.0000000  0  4G12G25G05G02
 -16463409.00445 -12813805.23043  21220630.7814                   21220626.1844
 -18184484.56645 -14160690.12943  21556427.9924                   21556426.9264
 -22901155.64145 -17785293.11343  20253414.8204                   20253409.9024
 -13352134.73444 -10376234.22342  21419959.3754                   21419951.9414
 11  8 15  2 26 30.0000000  0  4G12G25G05G02
 -16384502.60245 -12752319.70743  21235644.2034                   21235641.6374
 -18170005.99245 -14149408.12543  21559183.5474                   21559181.8054
 -22862110.78145 -17754868.52743  20260844.1414                   20260840.2424
 -13290137.27055 -10327924.49253  21431755.1254                   21431749.8984
 11  8 15  2 27  0.0000000  0  7G10G26G12G25G29G05G02
                                  23156006.648
                                  24031288.219
 -16305124.73445 -12690466.85243  21250750.9384                   21250747.2464
 -18154948.09446 -14137674.70343  21562048.3984                   21562048.1604
  -9234020.76255  -9423266.03953  22781620.0164                   22781618.8204
 -22822520.59845 -17724019.05144  20268377.2734                   20268374.7854
 -13228044.98045 -10279540.90243  21443571.2664                   21443567.0234
 11  8 15  2 27 30.0000000  0  4G12G25G05G02
 -16225278.36755 -12628248.86753  21265945.1644                   21265940.5664
 -18139311.42245 -14125490.24643  21565023.6484                   21565023.3054
 -22782386.75045 -17692745.87544  20276015.0864                   20276011.3404
 -13165858.96155 -10231084.22753  21455405.4304                   21455400.1024
 11  8 15  2 28  0.0000000  0  4G12G25G05G02
 -16144968.97355 -12565670.12153  21281227.3444                   21281223.3594
 -18123098.87545 -14112857.07843  21568108.8134                   21568108.7854
 -22741713.13745 -17661052.13744  20283754.8524                   20283751.1484
 -13103582.49245 -10182557.10543  21467256.8594                   21467250.0514
 11  8 15  2 28 30.0000000  0  5G12G25G29G05G02
 -16064194.53546 -12502729.12944  21296597.6094                   21296595.0394
 -18106306.50046 -14099772.21144  21571303.4144                   21571304.5984
  -9406866.76655  -9558007.02753  22748729.9064                   22748728.7464
 -22700497.50046 -17628936.16045  20291597.6094                   20291594.7894
 -13041211.65646 -10133956.58644  21479124.4694                   21479119.7034
 11  8 15  2 29  0.0000000  0  6G10G12G25G29G05G02
                                  23251581.398
 -15982960.36745 -12439429.68443  21312055.6414                   21312053.4964
 -18088937.28946 -14086237.65643  21574610.3134                   21574609.7074
  -9464378.16845  -9602858.46142  22737786.4384                   22737785.5124
 -22658744.17245 -17596400.98444  20299543.7894                   20299540.3634
 -12978750.07445 -10085285.11743  21491010.3524                   21491006.0204
 11  8 15  2 29 30.0000000  0  5G12G25G29G05G02
 -15901271.44145 -12375775.93443  21327602.4224                   21327597.3324
 -18070994.25445 -14072256.02043  21578023.4924                   21578023.4224
                                  22726853.7814                   22726849.2704
 -22616456.78545 -17563449.71543  20307591.0704                   20307586.3244
 -12916200.80145 -10036545.38742  21502915.5704                   21502908.6644
 11  8 15  2 30  0.0000000  0  5G12G25G29G05G02
 -15819120.59045 -12311762.25843  21343233.4384                   21343230.2114
 -18052467.62145 -14057819.64543  21581549.3984                   21581549.0944
  -9579239.96554  -9692450.43752  22715930.3134                   22715927.6954
 -22573626.79745 -17530075.66444  20315740.4844                   20315736.8754
 -12853554.30145  -9987729.91043  21514834.7584                   21514829.5864
 11  8 15  2 30 30.0000000  0  5G12G25G29G05G02
 -15736511.08645 -12247391.26643  21358954.3754                   21358949.8874
 -18033358.93045 -14042929.77343  21585185.9924                   21585185.3554
                                  22705018.9224                   22705015.7584
 -22530257.07045 -17496281.08243  20323993.9304                   20323989.6724
 -12790812.12155  -9938839.89853  21526775.0394                   21526768.8204
 11  8 15  2 31  0.0000000  0  4G12G25G05G02
                                  21374760.7194                   21374756.4414
 -18013671.28545 -14027588.72343  21588932.8444                   21588931.8794
 -22486351.85945 -17462069.19143  20332348.8674                   20332345.0434
 -12727977.57045  -9889877.89142  21538732.2344                   21538725.7894
 11  8 15  2 31 30.0000000  0  7G10G26G12G25G29G05G02
                                  23371923.375                    23909461.453
 -15569933.97747 -12117591.07845
                                  21390652.1564                   21390649.8244
 -17993403.07847 -14011795.48445  21592788.6484                   21592789.2854
                                  22683230.789
 -22441910.81247 -17427439.98445  20340805.0084                   20340802.5704
 -12665049.25847  -9840843.04344  21550705.6724                   21550701.6914
 11  8 15  2 32  0.0000000  0  7G10G26G12G25G29G05G02
  -7737341.19915                  23396103.742
  -7954330.96515                  23895937.344
 -15485976.15646 -12052169.31644  21406628.4454                   21406626.4264
 -17972561.66446 -13995555.31644  21596755.0474                   21596755.3714
  -7941493.37545  -9821386.12153  22672354.6094                   22672352.7194
 -22396942.36746 -17392399.52345  20349361.9384                   20349359.1724
 -12602034.47746  -9791740.52044  21562697.1024                   21562692.5704
 11  8 15  2 32 30.0000000  0  7G10G26G12G25G29G05G02
  -7610093.14114                  23420319.523
                                  23882417.250
 -15401577.86745 -11986404.33243  21422689.2034                   21422686.3674
 -17951147.59045 -13978868.93044  21600830.8444                   21600830.3444
  -7998588.03545  -9865875.31243  22661490.0704                   22661487.6094
 -22351448.55945 -17356949.71544  20358018.7274                   20358016.1484
 -12538934.06645  -9742571.27743  21574704.9454                   21574700.2814
 11  8 15  2 33  0.0000000  0  5G12G25G29G05G02
 -15316743.31245 -11920299.50843  21438832.6094                   21438829.9064
 -17929162.27045 -13961737.46943  21605014.6094                   21605013.0554
                                  22650637.4454                   22650632.8164
 -22305431.73045 -17321092.40243  20366776.4844                   20366772.3834
 -12475749.34445  -9693336.44143  21586729.0394                   21586723.3954
 11  8 15  2 33 30.0000000  0  5G12G25G29G05G02
 -15231463.92246 -11853848.06643  21455060.0704                   21455058.0234
 -17906595.68746 -13944153.16444  21609307.1564                   21609307.8134
  -8112582.92655  -9954702.34852  22639796.0164                   22639794.1484
 -22258882.89846 -17284820.63744  20375633.8754                   20375631.4454
 -12412470.05145  -9644027.94143  21598769.3984                   21598765.8554
 11  8 15  2 34  0.0000000  0  5G12G25G29G05G02
 -15145744.03545 -11787053.29343  21471373.7664                   21471369.6914
 -17883449.72745 -13926117.27343  21613712.3054                   21613712.2774
                                  22628972.7734                   22628968.9694
 -22211805.38345 -17248136.79344  20384593.8054                   20384589.3874
 -12349098.32845  -9594647.32443  21610828.9774                   21610824.9414
 11  8 15  2 34 30.0000000  0  5G12G25G29G05G02
 -15059588.30945 -11719918.96943  21487768.8134                   21487764.3134
 -17859727.13345 -13907632.11743  21618226.7734                   21618226.6454
  -8226286.97354 -10043302.66852  22618159.8834                   22618156.1914
 -22164202.75445 -17211043.82043  20393650.4694                   20393647.4224
 -12285636.44145  -9545196.48043  21622906.0084                   21622900.4844
 11  8 15  2 35  0.0000000  0  5G12G25G29G05G02
 -14973001.76245 -11652448.92243  21504244.1564                   21504241.4024
 -17835430.75045 -13888699.84843  21622849.3674                   21622849.3674
                                  22607363.0704                   22607357.6214
 -22116079.12545 -17173544.86343  20402808.5554                   20402805.1174
 -12222087.31645  -9495677.69943  21634999.3984                   21634993.0354
 11  8 15  2 35 30.0000000  0  5G12G25G29G05G02
 -14885978.44155 -11584638.52753  21520805.1024                   21520801.3594
 -17810552.46145 -13869314.10543  21627584.5864                   21627583.8444
                                  22596580.7664                   22596575.7274
 -22067427.35545 -17135634.39143  20412067.4224                   20412063.1454
 -12158442.79345  -9446084.53542  21647110.0394                   21647104.5314
 11  8 15  2 36  0.0000000  0  5G12G25G29G05G02
 -14798528.99645 -11516496.10943  21537447.1884                   21537442.3954
 -17785100.84845 -13849481.68443  21632428.3204                   21632427.1094
                                  22585810.1484                   22585807.6884
 -22018257.51645 -17097320.20744  20421422.6174                   20421419.9144
 -12094711.28945  -9396423.63743  21659238.9614                   21659232.2274
 11  8 15  2 36 30.0000000  0  5G12G25G29G05G02
 -14710658.04356 -11448025.32054  21554166.2114                   21554164.1024
 -17759078.69546 -13829204.74244  21637379.1804                   21637379.4384
  -8452789.69555 -10219798.05953  22575056.7194                   22575054.4104
 -21968572.97346 -17058605.04745  20430878.5394                   20430875.0314
 -12030895.10246  -9346696.81244  21671382.5474                   21671376.4534
 11  8 15  2 37  0.0000000  0  5G12G25G29G05G02
 -14622363.09044 -11379223.98843  21570968.3674                   21570965.7894
 -17732481.52345 -13808479.57043  21642441.1414                   21642440.4414
  -8509218.53554 -10263768.47352  22564320.7034                   22564316.1334
 -21918370.78145 -17019486.35943  20440432.1174                   20440427.9384
 -11966989.70355  -9296900.30553  21683542.5944                   21683537.1454
 11  8 15  2 37 30.0000000  0  5G12G25G29G05G02
 -14533649.41845 -11310096.43743  21587851.9774                   21587846.8244
 -17705312.00445 -13787308.48443  21647611.0784                   21647610.4224
                                  22553598.5234                   22553593.1334
 -21867654.40645 -16979967.10543  20450082.4384                   20450078.8364
 -11902997.15245  -9247036.00442  21695720.0084                   21695714.6334
 11  8 15  2 38  0.0000000  0  5G12G25G29G05G02
 -14444519.82855 -11240644.80552  21604810.8674                   21604807.4344
 -17677570.82845 -13765691.94543  21652889.7194                   21652889.0984
  -8621829.62954 -10351517.25052  22542891.3134                   22542886.0394
 -21816425.72345 -16940048.62143  20459830.9064                   20459827.4804
 -11838918.18455  -9197104.31653  21707915.1414                   21707908.5084
 11  8 15  2 38 30.0000000  0  5G12G25G29G05G02
 -14354979.62156 -11170873.35253  21621849.9534                   21621847.2584
 -17649261.68446 -13743633.00844  21658276.5944                   21658276.2344
                                  22532197.6884                   22532194.7034
 -21764689.57446 -16899734.88345  20469676.2274                   20469672.9144
 -11774756.00046  -9147107.95343  21720123.6024                   21720117.5944
 11  8 15  2 39  0.0000000  0  5G12G25G29G05G02
 -14265027.73855 -11100780.84053  21638968.0234                   21638964.1994
 -17620381.83245 -13721129.08243  21663772.0944                   21663771.7344
                                  22521523.8834                   22521520.8364
 -21712444.28945 -16859024.14144  20479617.7814                   20479613.8164
 -11710507.25845  -9097043.88343  21732350.6334                   21732343.9414
 11  8 15  2 39 30.0000000  0  5G12G25G29G05G02
 -14174666.18045 -11030369.25043  21656161.9304                   21656159.4144
 -17590930.92645 -13698180.32843  21669378.5784                   21669376.3054
  -8790110.80155 -10482645.23053  22510867.0944                   22510864.4304
 -21659690.55545 -16817917.32044  20489656.3524                   20489653.2774
 -11646171.42645  -9046912.06643  21744591.8914                   21744587.7584
 11  8 15  2 40  0.0000000  0  5G12G25G29G05G02
 -14083898.10545 -10959640.91043  21673435.2504                   21673432.6804
 -17560910.21946 -13674787.57043  21675089.6024                   21675089.8874
  -8846023.80545 -10526213.77343  22500228.1644                   22500224.7734
 -21606430.61346 -16776416.08644  20499791.4614                   20499788.6254
 -11581749.37945  -8996713.09443  21756850.8754                   21756846.6684
 11  8 15  2 40 30.0000000  0  5G12G25G29G05G02
 -13992727.83646 -10888599.17243  21690784.6644                   21690781.4694
 -17530322.14146 -13650952.74044  21680910.9064                   21680910.3324
  -8901845.36345 -10569711.07443  22489605.0394                   22489602.4144
 -21552667.95346 -16734523.14144  20510021.7974                   20510019.2894
 -11517242.86746  -8946448.33643  21769125.3204                   21769121.7234
 11  8 15  2 41  0.0000000  0  5G12G25G29G05G02
 -13901163.83246 -10817250.59844  21708208.5234                   21708205.6604
 -17499172.78546 -13626680.50844  21686838.4844                   21686838.3554
  -8957579.02045 -10613139.83643  22478998.6884                   22478996.1994
 -21498409.70346 -16692243.98044  20520346.9064                   20520344.4494
 -11452657.55946  -8896122.09843  21781416.3444                   21781412.0554
 11  8 15  2 41 30.0000000  0  5G12G25G29G05G02
 -13809201.94146 -10745591.96543  21725707.4924                   21725705.4734
 -17467456.43046 -13601966.47744  21692872.8364                   21692873.4344
  -9013216.31645 -10656493.52343  22468411.2194                   22468409.2154
 -21443651.00046 -16649574.85544  20530767.7974                   20530764.9344
 -11387986.92246  -8845729.38343  21793723.1094                   21793718.7154
 11  8 15  2 42  0.0000000  0  5G12G25G29G05G02
 -13716842.75846 -10673623.78544  21743283.4384                   21743280.6954
 -17435171.78146 -13576809.61744  21699016.7584                   21699016.4064
  -9068753.31245 -10699769.03143  22457843.2584                   22457840.8524
 -21388391.84046 -16606515.76644  20541282.4844                   20541280.0474
 -11323229.35546  -8795268.94543  21806046.1484                   21806041.2114
 11  8 15  2 42 30.0000000  0  5G12G25G29G05G02
 -13624087.87146 -10601347.25844  21760934.2664                   21760931.5274
 -17402318.46146 -13551209.64144  21705268.6484                   21705268.9964
  -9124187.00445 -10742964.06243  22447293.1884                   22447292.1684
 -21332632.49246 -16563066.93445  20551892.3204                   20551890.8484
 -11258383.52346  -8744739.73043  21818384.6724                   21818381.0394
 11  8 15  2 43  0.0000000  0  6G26G12G25G29G05G02
  -8080547.98415                  23600776.891
 -13530938.91046 -10528763.63743  21778660.7584                   21778657.1804
 -17368896.03946 -13525166.18444  21711628.7194                   21711628.5824
  -9179514.09845 -10786076.00043  22436765.8204                   22436763.5394
 -21276373.85246 -16519229.00044  20562599.4304                   20562596.4184
 -11193448.57045  -8694141.03543  21830741.9614                   21830737.9304
 11  8 15  2 43 30.0000000  0  5G12G25G29G05G02
 -13437404.97745 -10455880.01643  21796458.4144                   21796455.7774
 -17334911.99645 -13498685.05143  21718095.1484                   21718095.3754
  -9234739.43444 -10829108.62942  22426257.2114                   22426254.3404
 -21219624.19945 -16475008.44543  20573398.9534                   20573394.6054
 -11128431.60945  -8643478.40643  21843115.4304                   21843109.2734
 11  8 15  2 44  0.0000000  0  5G12G25G29G05G02
 -13343477.34045 -10382689.63343  21814334.4924                   21814329.3364
 -17300355.73845 -13471758.09042  21724671.5314                   21724670.5864
                                  22415771.1564                   22415766.6454
 -21162374.02345 -16430397.91843  20584292.3524                   20584288.5634
                                  21855505.8524                   21855499.6254
 11  8 15  2 44 30.0000000  0  5G12G25G29G05G02
 -13249158.92245 -10309194.77043  21832281.2664                   21832277.9264
 -17265228.18445 -13444385.99643  21731356.7504                   21731355.4694
                                  22405304.5314                   22405301.4844
 -21104624.98445 -16385398.67243  20595282.3444                   20595278.7734
                                  21867913.1414                   21867907.5594
 11  8 15  2 45  0.0000000  0  5G12G25G29G05G02
 -13154457.82845 -10235401.71543  21850303.7034                   21850298.4304
 -17229535.45745 -13416573.50043  21738148.2894                   21738147.1054
  -9399721.51254 -10957665.84452  22394862.0784                   22394857.5084
 -21046384.35945 -16340016.35243  20606365.8054                   20606361.5004
                                  21880338.0864                   21880331.8714
 11  8 15  2 45 30.0000000  0  5G12G25G29G05G02
 -13059379.65655 -10161314.89153  21868393.3674                   21868391.9384
 -17193281.46546 -13388323.69544  21745047.3834                   21745047.2234
  -9454487.86755 -11000340.94953  22384440.7814                   22384437.4144
 -20987656.94956 -16294254.80954  20617539.8204                   20617537.3524
 -10867446.53955  -8440113.40653  21892778.1094                   21892774.1174
 11  8 15  2 46  0.0000000  0  5G12G25G29G05G02
 -12963926.25446 -10086935.64543  21886559.7504                   21886556.3204
 -17156466.61346 -13359636.80144  21752052.3594                   21752052.5824
  -9509138.94545 -11042926.14843  22374040.2814                   22374037.8634
 -20928444.26646 -16248115.05944  20628808.0004                   20628805.2234
 -10801983.46545  -8389103.24243  21905234.4304                   21905230.9574
 11  8 15  2 46 30.0000000  0  5G12G25G29G05G02
 -12868104.89545 -10012269.58643  21904792.7034                   21904790.0004
 -17119095.90245 -13330516.71943  21759163.8674                   21759164.4574
  -9563676.51645 -11085422.82843  22363662.0864                   22363659.7384
 -20868752.02345 -16201601.56644  20640166.2584                   20640163.8014
 -10736439.02345  -8338029.55143  21917707.7344                   21917703.2544
 11  8 15  2 47  0.0000000  0  5G12G25G29G05G02
 -12771917.72746  -9937318.64844  21923096.8984                   21923093.9414
 -17081169.78946 -13300963.98444  21766381.5084                   21766381.2974
  -9618098.22746 -11127829.40644  22353305.0634                   22353303.0944
 -20808581.34846 -16154715.41445  20651616.5784                   20651614.0984
 -10670812.47746  -8286892.08644  21930196.4224                   21930192.0124
 11  8 15  2 47 30.0000000  0  5G12G25G29G05G02
 -14250779.74645 -11089678.53943  21641678.7974                   21641675.6844
 -18618103.75845 -14498574.76243  21473912.4694                   21473911.6174
 -11247819.68445 -12397742.03542  22043180.7034                   22043176.6024
 -22323348.28945 -17335053.18043  20363367.9924                   20363363.2734
 -12180517.83645  -9463285.75443  21642908.6484                   21642904.2234
 11  8 15  2 48  0.0000000  0  5G12G25G29G05G02
 -14153859.03955 -11014155.91053  21660121.9384                   21660118.2894
 -18579059.93045 -14468150.98843  21481342.2974                   21481341.7814
 -11301993.78155 -12439955.57453  22032872.5164                   22032867.2504
 -22262217.32045 -17287418.65643  20374998.7194                   20374995.7774
 -12114717.77745  -9412012.95343  21655430.9534                   21655425.5274
 11  8 15  2 48 30.0000000  0  5G12G25G29G05G02
 -14056570.62545 -10938346.77743  21678636.8754                   21678632.4304
 -18539453.55945 -14437288.83643  21488880.0314                   21488878.5514
 -11356035.70354 -12482066.09453  22022587.0084                   22022583.7854
 -22200603.62145 -17239407.95743  20386724.0004                   20386720.6024
 -12048826.00445  -9360668.69543  21667970.5554                   21667964.3364
 11  8 15  2 49  0.0000000  0  5G12G25G29G05G02
 -13958923.29745 -10862257.96143  21697217.0634                   21697213.9924
 -18499291.83646 -14405993.99243  21496521.6724                   21496521.1804
 -11409949.35255 -12524076.68453  22012327.4614                   22012324.5824
 -22138515.02045 -17191027.25044  20398539.9534                   20398535.3914
                                  21680524.0634                   21680518.8524
 11  8 15  2 49 30.0000000  0  5G12G25G29G05G02
 -13860912.82045 -10785886.16443  21715867.4224                   21715864.5354
 -18458568.72345 -14374261.68443  21504271.2664                   21504270.6454
 -11463725.87955 -12565980.40253  22002094.1174                   22002090.8754
 -22075946.84845 -17142272.82044  20410444.6254                   20410441.9804
 -11916777.64545  -9257773.85943  21693096.9454                   21693091.9264
 11  8 15  2 50  0.0000000  0  5G12G25G29G05G02
 -13762552.65245 -10709241.85543  21734585.5004                   21734581.9884
 -18417296.22345 -14342101.29743  21512123.7034                   21512124.4264
 -11517373.73055 -12607783.87553  21991886.4454                   21991881.8444
 -22012911.88345 -17093154.65643  20422441.2734                   20422437.4224
 -11850624.75845  -9206226.11743  21705685.1094                   21705680.5084
 11  8 15  2 50 30.0000000  0  5G12G25G29G05G02
 -13663845.05145 -10632326.85243  21753368.9384                   21753365.7934
 -18375475.10245 -14309513.37143  21520082.9144                   21520083.0354
 -11570890.59845 -12649485.25043  21981700.8444                   21981698.2734
 -21949411.54345 -17043673.85944  20434524.1484                   20434520.9104
 -11784389.42245  -9154614.14843  21718290.2504                   21718284.8404
 11  8 15  2 51  0.0000000  0  5G12G25G29G05G02
 -13564790.36345 -10555141.40243  21772217.3834                   21772214.9614
 -18333103.40645 -14276496.44543  21528146.0234                   21528145.7234
                                  21971543.5234                   21971539.8554
 -21885444.61745 -16993829.50844  20446696.8444                   20446693.3634
 -11718068.59445  -9102935.58643  21730910.8364                   21730904.4104
 11  8 15  2 51 30.0000000  0  5G12G25G29G05G02
 -13465389.43045 -10477686.13743  21791134.1174                   21791131.0704
 -18290180.54346 -14243050.07443  21536313.7894                   21536313.9384
 -11677512.15645 -12732566.90243  21961411.5634                   21961408.5744
 -21821011.21145 -16943621.66444  20458959.0164                   20458955.3554
 -11651660.46545  -9051188.99643  21743547.1334                   21743542.1724
 11  8 15  2 52  0.0000000  0  5G12G25G29G05G02
 -13365650.89145 -10399967.75443  21810113.6174                   21810109.8524
 -18246713.77345 -14209179.78143  21544585.8524                   21544584.9184
 -11730616.65645 -12773946.97343  21951307.1644                   21951303.2584
 -21756119.63345 -16893056.75443  20471306.1564                   20471303.0124
 -11585171.05555  -8999378.99252  21756200.1094                   21756194.8634
 11  8 15  2 52 30.0000000  0  5G12G25G29G05G02
 -13265571.14845 -10321983.54343  21829158.5164                   21829154.2894
 -18202697.61345 -14174881.46143  21552962.7734                   21552960.5944
 -11783576.17245 -12815214.01643  21941230.1804                   21941225.9144
 -21690765.11745 -16842131.14843  20483743.8444                   20483740.1094
 -11518593.48845  -8947500.34043  21768869.5004                   21768863.5044
 11  8 15  2 53  0.0000000  0  5G12G25G29G05G02
 -13165154.50045 -10243736.78943  21848267.6954                   21848263.9384
 -18158135.15245 -14140157.46143  21561441.3754                   21561441.1884
 -11836390.29744 -12856367.86343  21931179.3524                   21931175.6644
 -21624951.81245 -16790848.03943  20496266.1954                   20496263.7624
 -11451929.42645  -8895554.29343  21781554.7504                   21781550.3444
 11  8 15  2 53 30.0000000  0  5G12G25G29G05G02
 -13064399.57055 -10165226.49252  21867439.3444                   21867436.0044
 -18113023.00845 -14105005.13343  21570025.4844                   21570024.8794
 -11889052.42645 -12897403.22343  21921156.9224                   21921153.4064
 -21558676.82845 -16739205.16843  20508878.3594                   20508875.1254
 -11385174.35954  -8843537.37552  21794259.1954                   21794252.8674
 11  8 15  2 54  0.0000000  0  5G12G25G29G05G02
 -12963314.46554 -10086458.84452  21886675.5784                   21886671.7704
 -18067368.11745 -14069429.88743  21578713.3524                   21578713.1214
                                  21911165.2734                   21911160.4694
 -21491947.43445 -16687208.22343  20521578.0634                   20521573.6684
 -11318333.80554  -8791453.77752  21806977.8984                   21806971.4534
 11  8 15  2 54 30.0000000  0  5G12G25G29G05G02
 -12861898.10255 -10007433.08653  21905974.5474                   21905971.9184
 -18021167.72745 -14033429.57443  21587505.0164                   21587505.4884
 -11993924.30945 -12979121.45343  21901200.1094                   21901197.6334
 -21424762.31245 -16634856.16844  20534361.0704                   20534358.8094
 -11251403.64555  -8739300.41453  21819713.5944                   21819708.3244
 11  8 15  2 55  0.0000000  0  5G12G25G29G05G02
 -12760154.86745  -9928152.67643  21925335.2734                   21925331.9494
 -17974424.78545 -13997006.51243  21596401.1254                   21596399.9694
 -12046127.49245 -13019799.20743  21891268.4774                   21891262.2814
 -21357124.78945 -16582151.59844  20547231.5394                   20547229.1724
 -11184385.65255  -8687078.57452  21832466.9064                   21832460.6024
 11  8 15  2 55 30.0000000  0  5G12G25G29G05G02
 -12658084.24644  -9848617.09443  21944759.8444                   21944755.4494
 -17927137.18445 -13960159.01243  21605399.1334                   21605398.1604
                                  21881362.8754                   21881359.3594
 -21289033.28145 -16529093.25843  20560189.9384                   20560186.5004
 -11117276.06644  -8634785.38342  21845238.3284                   21845231.3714
 11  8 15  2 56  0.0000000  0  5G12G25G29G05G02
 -12555696.02054  -9768834.08252  21964244.2974                   21964239.3164
 -17879313.20745 -13922893.57443  21614500.0394                   21614498.4104
                                  21871489.6254                   21871485.8164
 -21220496.97345 -16475688.32843  20573232.8984                   20573228.7114
                                  21858024.4844                   21858017.3914
 11  8 15  2 56 30.0000000  0  5G12G25G29G05G02
 -12452989.35945  -9688802.92642  21983786.8754                   21983783.3754
 -17830950.45745 -13885208.32843  21623703.1954                   21623702.0044
 -12201778.78554 -13141085.74652  21861647.8134                   21861643.2974
 -21151514.31645 -16421935.57843  20586359.2274                   20586355.4024
                                  21870827.6724                   21870821.3444
 11  8 15  2 57  0.0000000  0  4G12G25G05G02
                                  22003392.0004                   22003387.4304
 -17782053.74245 -13847106.96943  21633008.0704                   21633006.6024
 -21082090.62145 -16367839.17643  20599570.7504                   20599566.0864
                                  21883646.9304                   21883640.7774
 11  8 15  2 59  0.0000000  0  5G12G25G29G05G02
 -11934834.05555  -9285045.54353  22082388.6804                   22082385.7664
 -17581159.68056 -13690566.17653  21671236.0634                   21671236.1024
 -12457948.43855 -13340698.68753  21812900.3674                   21812899.0084
 -20800030.89545 -16148052.37544  20653244.3444                   20653241.3094
 -10645101.86755  -8266857.30953  21935089.2734                   21935083.1914
 11  8 15  2 59 30.0000000  0  5G12G25G29G05G02
 -11830312.74246  -9203600.47343  22102278.6174                   22102275.3284
 -17529630.58246 -13650413.72344  21681042.1094                   21681041.8444
 -12508686.69146 -13380235.03543  21803245.1094                   21803243.0514
 -20728449.14546 -16092274.46544  20666865.3834                   20666862.4104
 -10577319.30146  -8214039.77743  21947987.6094                   21947981.7114
 11  8 15  3  0  0.0000000  0  6G12G25G29G05G26G02
 -11725501.77046  -9121929.60244  22122222.8914                   22122220.3524
 -17477581.50846 -13609856.00844  21690945.7664                   21690946.4184
 -12559255.33646 -13419639.12144  21793622.5394                   21793620.4064
 -20656444.43047 -16036166.90645  20680568.4924                   20680564.8324
  -9601872.75055  -7402220.23853  22865985.9304                   22865984.0944
 -10509455.54746  -8161158.92244  21960900.9694                   21960896.5514
 11  8 15  3  0 30.0000000  0  7G15G12G25G29G05G26G02
  -9696943.70755  -7463438.07053  23750657.1414                   23750654.0314
 -11620408.20746  -9040038.53144  22142221.7034                   22142219.1254
 -17425018.33647 -13568897.70345  21700948.7194                   21700948.8874
 -12609656.49247 -13458912.72345  21784031.5704                   21784029.2934
 -20584023.00847 -15979734.63745  20694348.6414                   20694346.0394
  -9665883.15246  -7452098.48043  22853804.9844                   22853803.3524
 -10441514.46946  -8108217.80544  21973829.7194                   21973825.1764
 11  8 15  3  1  0.0000000  0  8G15G10G12G25G29G05G26G02
  -9769271.95745  -7519797.68843  23736892.6484                   23736891.2304
  -9277061.08215                  24543155.867
 -11515032.75846  -8957927.78544  22162273.4614                   22162271.3404
 -17371940.60547 -13527538.41845  21711048.6334                   21711049.0784
 -12659885.53146 -13498052.16444  21774473.2114                   21774471.1914
 -20511184.48047 -15922977.33645  20708209.4454                   20708206.5904
  -9729671.68446  -7501803.80943  22841666.2734                   22841664.8554
 -10373494.09446  -8055214.86744  21986773.9774                   21986768.9104
 11  8 15  3  1 30.0000000  0  7G15G12G25G29G05G26G02
                                  23723127.9064                   23723125.6094
 -11409374.90646  -8875597.03544  22182380.8444                   22182377.9494
 -17318346.51246 -13485776.80144  21721247.8834                   21721248.2234
 -12709937.36346 -13537053.57444  21764949.5784                   21764946.9064
 -20437928.00046 -15865894.39545  20722150.1414                   20722146.9734
  -9793231.32445  -7551330.80942  22829571.2734                   22829569.4024
 -10305390.71946  -8002147.32444  21999733.5784                   21999729.0354
 11  8 15  3  2  0.0000000  0  7G15G12G25G29G05G26G02
                                  23709363.4384                   23709359.3364
 -11303433.28546  -8793045.08243  22202540.5474                   22202537.4104
 -17264233.14146 -13443610.50044  21731545.1884                   21731545.4024
 -12759804.81646 -13575911.26244  21755459.6884                   21755457.3444
 -20364251.44546 -15808484.05145  20736169.9224                   20736167.1454
  -9856553.78945  -7600672.96942  22817521.6644                   22817517.8714
 -10237199.71546  -7949011.39543  22012710.5394                   22012705.4964
 11  8 15  3  2 30.0000000  0  7G15G12G25G29G05G26G02
                                  23695600.0234                   23695597.1684
 -11197200.90245  -8710266.48843  22222755.3524                   22222752.8014
 -17209592.49245 -13401033.24643  21741942.0234                   21741942.9574
 -12809475.80945 -13614615.75443  21746007.2114                   21746004.8164
 -20290147.06645 -15750740.25843  20750271.7424                   20750268.4414
                                  22805520.1804                   22805515.7814
 -10168911.00045  -7895799.27043  22025704.9224                   22025700.1564
 11  8 15  3  3  0.0000000  0  6G12G25G29G05G26G02
 -11090685.30145  -8627267.32443  22243023.8984                   22243021.3954
 -17154430.39545 -13358049.78143  21752440.2034                   21752439.8244
 -12858952.23045 -13653168.75043  21736591.4144                   21736589.2934
 -20215621.46945 -15692668.36344  20764454.6644                   20764450.5434
  -9982447.31654  -7698771.58652  22793565.6414                   22793561.3054
 -10100528.76245  -7842514.37143  22038717.5704                   22038711.9654
 11  8 15  3  3 30.0000000  0  6G12G25G29G05G26G02
 -10983886.98045  -8544047.89543  22263347.8674                   22263344.5664
 -17098746.46546 -13314659.76644  21763035.6644                   21763036.7344
 -12908229.65645 -13691566.76244  21727215.0234                   21727212.2504
 -20140674.26646 -15634268.01244  20778715.1254                   20778712.6844
 -10045012.94955  -7747524.11752  22781658.9304                   22781656.1214
 -10032050.45745  -7789154.64843  22051747.6334                   22051743.5004
 11  8 15  3  4  0.0000000  0  7G15G12G25G29G05G26G02
 -10203167.89155  -7857913.89152  23654327.2504                   23654324.3794
 -10876810.46145  -8460611.66443  22283723.8054                   22283720.6214
 -17042544.04746 -13270865.64544  21773730.0164                   21773730.9804
 -12957307.77045 -13729809.39543  21717875.8984                   21717873.4264
 -20065309.55946 -15575542.25844  20793056.8594                   20793053.8984
 -10107320.37145  -7796075.25042  22769802.7584                   22769799.4024
  -9963477.53945  -7735721.15643  22064796.9844                   22064792.5594
 11  8 15  3  4 30.0000000  0  7G15G12G25G29G05G26G02
 -10275430.16845  -7914222.17243  23640576.5634                   23640573.0824
 -10769461.89146  -8376963.49644  22304151.0164                   22304149.4184
 -16985827.98447 -13226671.37545  21784523.6724                   21784524.3554
 -13006186.96147 -13767897.08645  21708574.0864                   21708571.8524
 -19989532.63747 -15516495.38745  20807476.3364                   20807473.7074
 -10169368.87946  -7844424.77343  22757995.0164                   22757993.1804
  -9894813.23046  -7682216.53944  22077863.7274                   22077859.2034
 11  8 15  3  5  0.0000000  0  7G15G12G25G29G05G26G02
 -10347679.07445  -7970519.92243  23626827.4064                   23626824.5434
 -10661851.29746  -8293111.09444  22324629.3204                   22324626.9344
 -16928607.17247 -13182083.71545  21795412.2974                   21795412.8284
 -13054872.22747 -13805833.60244  21699309.1804                   21699307.6954
 -19913352.97747 -15457134.61345  20821972.7664                   20821970.1134
 -10231161.81646  -7892575.04343  22746235.8444                   22746233.4884
  -9826064.15246  -7628645.77344  22090945.7344                   22090941.4064
 11  8 15  3  5 30.0000000  0  7G15G12G25G29G05G26G02
 -10419917.25445  -8026809.37942  23613081.1254                   23613077.3324
 -10553987.41446  -8209061.30944  22345154.8984                   22345152.7114
 -16870888.95747 -13137108.48045  21806395.7274                   21806395.8364
 -13103366.78146 -13843621.52344  21690081.7424                   21690079.0354
 -19836778.27746 -15397466.01245  20836545.0944                   20836542.3634
 -10292701.07046  -7940527.62943  22734525.8054                   22734523.2624
  -9757235.70346  -7575013.15644  22104043.5004                   22104039.1884
 11  8 15  3  6  0.0000000  0  8G15G12G25G29G05G21G26G02
 -10492139.72345  -8083086.54743  23599338.0084                   23599334.4734
 -10445870.42246  -8124814.30944  22365729.0084                   22365726.4064
 -16812673.15647 -13091745.52045  21817473.5004                   21817474.1724
 -13151666.07047 -13881257.30945  21680890.1884                   21680887.8984
 -19759808.76647 -15337489.78145  20851192.0944                   20851188.9924
  -9555224.30915                  25014755.578
 -10353981.03946  -7988278.15243  22722864.4384                   22722862.2194
  -9688325.59846  -7521316.94944  22117156.7344                   22117151.6374
 11  8 15  3  6 30.0000000  0  8G15G12G25G29G05G21G26G02
 -10564335.52345  -8139342.93842  23585599.5474                   23585596.3094
 -10337496.05546  -8040366.75844  22386351.9304                   22386349.4224
 -16753953.29747 -13045989.76645  21828648.3914                   21828648.4184
 -13199759.50847 -13918732.66045  21671738.4614                   21671736.3794
 -19682438.59447 -15277201.32845  20865914.4694                   20865911.9534
  -9587859.000 5                  25008545.172
 -10414989.58246  -8035817.22743  22711254.5554                   22711253.0514
  -9619325.48446  -7467550.60244  22130286.5474                   22130282.2664
 11  8 15  3  7  0.0000000  0  8G15G12G25G29G05G21G26G02
 -10636503.94145  -8195578.06343  23571864.9534                   23571863.5234
 -10228869.71946  -7955722.87944  22407022.4694                   22407020.4844
 -16694733.95747 -12999844.80945  21839916.9454                   21839917.5004
 -13247647.72347 -13956048.12145  21662625.5944                   21662623.5084
 -19604672.78947 -15216604.59845  20880712.8914                   20880710.4344
  -9620494.996 5                  25002334.336
 -10475725.70346  -8083144.01643  22699696.8054                   22699694.5554
  -9550237.62546  -7413715.87944  22143433.7424                   22143429.5004
 11  8 15  3  7 30.0000000  0  8G15G12G25G29G05G21G26G02
 -10708640.48845  -8251788.25843  23558138.7504                   23558136.0204
 -10119992.27746  -7870883.30944  22427741.3204                   22427739.0204
 -16635015.33647 -12953310.80945  21851280.9144                   21851281.3874
 -13295326.70347 -13993200.52745  21653552.7584                   21653549.9264
 -19526511.44947 -15155699.65645  20895586.6724                   20895583.6524
  -9653131.297 5                  24996123.477
 -10536183.90246  -8130254.22343  22688191.5164                   22688189.9844
  -9481060.26246  -7359811.41844  22156597.2974                   22156593.7274
 11  8 15  3  8  0.0000000  0  8G15G12G25G29G05G21G26G02
 -10780746.27346  -8307974.59443  23544417.2424                   23544415.0824
 -10010870.96546  -7785853.72344  22448506.8594                   22448504.0314
 -16574803.17247 -12906392.23845  21862738.2114                   21862739.1604
 -13342797.80147 -14030190.95345  21644518.6564                   21644516.8324
 -19447961.13347 -15094491.60945  20910534.4304                   20910531.3674
  -9685772.160 5                  24989912.570
 -10596364.34846  -8177148.01643  22676739.9224                   22676737.6804
  -9411796.71546  -7305839.81644  22169778.0784                   22169773.7624
 11  8 15  3  8 30.0000000  0  8G15G12G25G29G05G21G26G02
 -10852814.62546  -8364131.65243  23530703.0864                   23530701.0234
  -9901505.91846  -7700634.22344  22469317.8284                   22469315.5044
 -16514096.54347 -12859088.35545  21874291.2274                   21874291.7774
 -13390056.13747 -14067015.58645  21635525.9774                   21635523.6374
 -19369021.29747 -15032980.04745  20925556.7504                   20925553.3674
  -9718415.301 5                  24983699.898
 -10656260.53946  -8223820.32843  22665343.2734                   22665340.3164
  -9342444.30946  -7251798.96144  22182975.4064                   22182971.3674
 11  8 15  3  9  0.0000000  0  8G15G12G25G29G05G21G26G02
 -10924840.52745  -8420255.69943  23516996.2814                   23516993.9694
  -9791897.45746  -7615225.03944  22490176.6484                   22490172.9924
 -16452894.94147 -12811398.78945  21885937.1484                   21885937.3444
 -13437096.53146 -14103670.41045  21626574.4144                   21626571.9024
 -19289691.46947 -14971164.57845  20940652.0944                   20940649.0314
  -9751058.734 5                  24977487.258
 -10715866.15646  -8270266.25443  22653998.5784                   22653997.1054
  -9272999.95746  -7197686.46144  22196189.4304                   22196186.3094
 11  8 15  3  9 30.0000000  0  8G15G12G25G29G05G21G26G02
 -10996820.28145  -8476343.73843  23503299.1024                   23503296.8094
  -9682047.83246  -7529627.92243  22511079.2734                   22511077.3714
 -16391199.47746 -12763324.38744  21897678.3834                   21897677.7734
 -13483915.85546 -14140152.93444  21617664.4614                   21617663.0864
 -19209973.29347 -14909046.50445  20955821.9454                   20955818.7194
  -9783701.766 5                  24971276.133
 -10775176.77346  -8316482.30143  22642712.3444                   22642710.7814
  -9203462.78946  -7143501.63344  22209422.7974                   22209418.4104
 11  8 15  3 10  0.0000000  0  8G15G12G25G29G05G21G26G02
 -11068756.59045  -8532397.93743  23489610.6094                   23489607.3674
  -9571966.07046  -7443849.93444  22532027.2734                   22532025.2704
 -16329018.20347 -12714871.44544  21909510.2034                   21909510.6454
 -13530517.92246 -14176466.18744  21608797.3364                   21608794.6254
 -19129875.35246 -14846632.50045  20971063.5004                   20971060.7854
  -9816351.492 5                  24965062.500
 -10834194.59046  -8362470.19543  22631482.8364                   22631480.1454
  -9133838.51246  -7089248.94143  22222671.3054                   22222667.7624
 11  8 15  3 10 30.0000000  0  8G15G12G25G29G05G21G26G02
 -11140641.60245  -8588412.16443  23475931.7274                   23475929.0204
  -9461650.33246  -7357889.60943  22553019.8984                   22553017.5164
 -16266348.25046 -12666037.69144  21921436.1334                   21921436.1054
 -13576895.48446 -14212604.50444  21599971.8914                   21599969.3954
 -19049394.54346 -14783920.16845  20986379.3444                   20986376.4184
  -9849003.230 5                  24958850.289
 -10892910.89845  -8408223.17643  22620309.1094                   22620306.9884
  -9064122.00846  -7034924.35943  22235938.2034                   22235934.1174
 11  8 15  3 11  0.0000000  0  8G15G12G25G29G05G21G26G02
 -11212466.77745  -8644379.78543  23462263.9614                   23462261.1094
  -9351098.03946  -7271744.98443  22574057.3594                   22574054.5234
 -16203186.11746 -12616820.43444  21933455.2114                   21933455.5904
 -13623040.77046 -14248561.81244  21591190.6484                   21591187.7934
 -18968528.10946 -14720907.34845  21001767.2664                   21001764.6724
  -9881652.254 5                  24952638.992
 -10951316.73045  -8453734.21143  22609194.8674                   22609192.7734
  -8994307.68446  -6980523.57443  22249223.4774                   22249218.6024
 11  8 15  3 11 30.0000000  0  8G15G12G25G29G05G21G26G02
 -11284238.27745  -8700305.56243  23448606.8674                   23448603.3634
  -9240321.09446  -7185425.30944  22595137.7814                   22595135.5664
 -16139542.92646 -12567228.33644  21945566.5784                   21945566.6294
 -13668960.30046 -14284343.22344  21582451.5314                   21582449.9574
 -18887287.29346 -14657602.80944  21017226.5004                   21017223.9264
                                  24946423.070
 -11009417.54746  -8499007.61743  22598138.6644                   22598136.1024
  -8924403.95746  -6926053.12943  22262525.7034                   22262521.0234
 11  8 15  3 12  0.0000000  0  8G15G12G25G29G05G21G26G02
 -11355947.72345  -8756183.00043  23434959.4614                   23434956.9734
  -9129317.85546  -7098929.26243  22616260.5784                   22616258.4104
 -16075415.55146 -12517258.93444  21957769.3524                   21957769.6024
 -13714646.69546 -14319942.94944  21573758.6024                   21573756.3244
 -18805669.40246 -14594004.43444  21032758.6484                   21032755.7624
  -9946965.03915                  24940210.313
 -11067204.02345  -8544036.05943  22587141.9924                   22587140.7774
  -8854405.52346  -6871508.86343  22275846.5314                   22275841.1914
 11  8 15  3 12 30.0000000  0  8G15G12G25G29G05G21G26G02
 -11427599.87945  -8812015.83242  23421325.5314                   23421321.5864
  -9018099.00445  -7012265.22343  22637425.3134                   22637423.3754
 -16010813.93046 -12466919.98444  21970063.2814                   21970062.9534
 -13760105.24246 -14355365.11744  21565108.3984                   21565105.4224
 -18723684.20346 -14530119.83644  21048359.5084                   21048356.9224
                                  24933993.469
 -11124680.51645  -8588822.96143  22576205.0554                   22576202.3244
  -8784319.96945  -6816896.70343  22289182.6884                   22289177.9064
 11  8 15  3 13  0.0000000  0  8G15G12G25G29G05G21G26G02
 -11499187.32845  -8867798.21543  23407701.0634                   23407699.6564
  -8906662.71546  -6925431.78944  22658630.2344                   22658628.3874
 -15945735.35246 -12416209.44144  21982446.5004                   21982447.0234
 -13805328.68046 -14390604.13344  21556502.1094                   21556499.9224
 -18641329.80946 -14465947.58644  21064030.7194                   21064028.2194
                                  24927775.656
 -11181838.52046  -8633361.70743  22565327.7974                   22565325.9494
  -8714142.29746  -6762212.80543  22302536.7344                   22302532.2854
 11  8 15  3 13 30.0000000  0  8G15G12G25G29G05G21G26G02
 -11570701.60545  -8923523.58242  23394092.9304                   23394091.2034
  -8795007.27346  -6838427.56343  22679877.9774                   22679875.5944
 -15880177.23446 -12365125.18044  21994921.5314                   21994921.9804
 -13850310.27346 -14425654.67644  21547942.4534                   21547939.7464
 -18558603.64546 -14401485.62944  21079773.1414                   21079770.4614
 -10044980.79714                  24921557.914
 -11238669.63745  -8677645.71943  22554513.3444                   22554511.3164
  -8643867.26646  -6707453.02043  22315910.7894                   22315905.5274
 11  8 15  3 14  0.0000000  0  8G15G12G25G29G05G21G26G02
 -11642139.65245  -8979189.58643  23380499.2974                   23380496.5474
  -8683134.76246  -6751254.20743  22701166.0314                   22701164.1884
 -15814141.05546 -12313668.42644  22007488.2274                   22007488.8404
 -13895046.82846 -14460514.29344  21539429.0554                   21539426.7274
 -18475507.33246 -14336735.26245  21095586.1094                   21095583.3754
                                  24915337.695
 -11295169.52746  -8721671.64843  22543761.3984                   22543760.1994
  -8573494.00846  -6652616.72743  22329302.2504                   22329297.1994
 11  8 15  3 14 30.0000000  0  8G15G12G25G29G05G21G26G02
 -11713505.40645  -9034799.19942  23366918.5234                   23366915.2664
  -8571056.00445  -6663920.06643  22722493.6094                   22722491.7664
 -15747636.51646 -12261846.66044  22020143.5864                   22020143.6644
 -13939543.75446 -14495187.13344  21530960.8204                   21530959.1994
 -18392050.70346 -14271704.07444  21111466.9614                   21111464.6954
                                  24909118.531
 -11351341.88345  -8765442.28943  22533071.5554                   22533070.1564
  -8503029.95345  -6597709.59043  22342711.3134                   22342705.7034
 11  8 15  3 15  0.0000000  0  8G15G12G25G29G05G21G26G02
                                  23353354.2194                   23353350.2344
  -8458771.41845  -6576425.59443  22743862.1024                   22743858.8914
 -15680663.18446 -12209659.64144  22032888.0944                   22032888.1684
 -13983795.71546 -14529669.12543  21522540.0784                   21522537.7584
 -18308233.57446 -14206392.00844  21127417.2974                   21127413.9454
                                  24902896.578
 -11407180.57045  -8808952.97342  22522447.4454                   22522444.5824
  -8432472.15245  -6542729.47743  22356137.3284                   22356132.9734
 11  8 15  3 15 30.0000000  0  7G15G12G25G29G05G26G02
 -11856008.08256  -9145840.21553  23339801.2664                   23339797.9304
  -8346292.12146  -6488779.51244  22765264.7664                   22765262.8954
 -15613231.27747 -12157115.41045  22045720.1954                   22045720.7424
 -14027808.32447 -14563964.71945  21514165.6954                   21514163.0204
 -18224066.43747 -14140807.32445  21143433.4694                   21143431.0704
 -11462689.65246  -8852206.88343  22511884.2734                   22511881.3794
  -8361828.44946  -6487682.52344  22369580.2974                   22369575.0554
 11  8 15  3 16  0.0000000  0  7G15G12G25G29G05G26G02
 -11927138.27045  -9201266.26643  23326265.1564                   23326262.5474
  -8233612.40246  -6400977.12543  22786707.5004                   22786705.3914
 -15545334.32846 -12104208.66044  22058640.6884                   22058640.5274
 -14071570.91446 -14598065.35944  21505837.6334                   21505835.2664
 -18139543.12946 -14074944.96545  21159517.9064                   21159515.0664
 -11517857.05146  -8895194.43443  22501385.2034                   22501383.2774
  -8291089.43846  -6432561.17243  22383041.4694                   22383036.1954
 11  8 15  3 16 30.0000000  0  7G15G12G25G29G05G26G02
 -11998189.23845  -9256630.62143  23312746.5234                   23312742.2464
  -8120743.64146  -6313027.42243  22808186.1724                   22808183.7074
 -15476983.07046 -12050947.92244  22071647.3914                   22071647.8204
 -14115089.25846 -14631975.68044  21497556.2114                   21497553.6094
 -18054674.12146 -14008813.23844  21175668.4064                   21175665.2034
 -11572687.64546  -8937919.52043  22490952.5944                   22490950.1254
  -8220263.37946  -6377372.03943  22396520.0784                   22396514.3204
 11  8 15  3 17  0.0000000  0  7G15G12G25G29G05G26G02
 -12069151.69945  -9311925.98843  23299240.7034                   23299238.8754
  -8007682.64845  -6224927.97343  22829700.0314                   22829698.7384
 -15408173.38746 -11997329.98844  22084741.4064                   22084741.8134
 -14158354.64846 -14665688.91444  21489323.0704                   21489320.6564
 -17969455.64546 -13942409.22744  21191884.4384                   21191881.6214
 -11627171.08646  -8980374.10943  22480584.6254                   22480582.6214
  -8149343.71945  -6322109.93843  22410015.5394                   22410010.6724
 11  8 15  3 17 30.0000000  0  7G15G12G25G29G05G26G02
 -12140023.60945  -9367150.80943  23285755.8364                   23285752.3524
  -7894433.73445  -6136682.07843  22851251.4694                   22851249.3014
 -15338908.88346 -11943357.64544  22097922.0004                   22097922.3714
 -14201366.17246 -14699204.35544  21481138.5864                   21481135.7274
 -17883891.53946 -13875735.87944  21208166.8444                   21208163.6994
 -11681305.32045  -9022556.59443  22470282.4304                   22470280.7854
  -8078331.58246  -6266775.77043  22423527.8984                   22423523.0864
 11  8 15  3 18  0.0000000  0  8G15G12G25G29G05G21G26G02
 -12210803.76645  -9422304.07043  23272285.9614                   23272282.4304
  -7781002.00845  -6048293.73043  22872837.2344                   22872834.3594
 -15269193.82446 -11889034.22744  22111187.7274                   22111188.1174
 -14244123.41846 -14732521.63344  21473001.2114                   21472999.3444
 -17797986.00046 -13808796.48844  21224514.2114                   21224510.9844
                                  24865517.227
 -11735088.65245  -9064465.62543  22460047.9454                   22460045.4064
  -8007228.30546  -6211370.60543  22437059.5314                   22437053.3134
 11  8 15  3 18 30.0000000  0  8G15G12G25G29G05G21G26G02
 -12281483.89145  -9477379.48043  23258835.4064                   23258832.8164
  -7667384.84445  -5959760.92643  22894457.1334                   22894454.4964
 -15199025.08246 -11834357.28944  22124540.6724                   22124540.8874
 -14286618.41846 -14765634.59444  21464916.1484                   21464912.8444
 -17711735.89146 -13741588.62144  21240927.0634                   21240924.0044
  -9647297.02714                  24859278.391
 -11788511.85945  -9106094.07843  22449882.0704                   22449879.4654
  -7936028.39545  -6155890.18043  22450607.8054                   22450602.6414
 11  8 15  3 19  0.0000000  0  8G15G12G25G29G05G21G26G02
 -12352063.71145  -9532376.69943  23245404.8984                   23245402.0864
  -7553588.46146  -5871088.39143  22916111.8914                   22916109.6524
 -15128407.77746 -11779330.82844  22137979.1644                   22137979.3674
 -14328851.64146 -14798543.56244  21456878.7194                   21456876.2344
 -17625146.65646 -13674116.48044  21257404.5084                   21257401.0354
  -9680091.926 5                  24853037.914
 -11841574.30145  -9147441.35243  22439784.9774                   22439782.2584
  -7864734.38346  -6100336.39543  22464175.0634                   22464169.8404
 11  8 15  3 19 30.0000000  0  8G15G12G25G29G05G21G26G02
 -12422539.90645  -9587293.14842  23231994.2114                   23231991.3364
  -7439615.56645  -5782278.37543  22937800.3594                   22937797.4804
 -15057344.26646 -11723956.64544  22151502.1174                   22151501.7934
 -14370820.76246 -14831246.73044  21448892.5004                   21448889.4614
 -17538220.80146 -13606382.03144  21273947.5554                   21273942.6804
  -9712900.52315                  24846796.336
 -11894272.28145  -9188504.67243  22429756.8674                   22429754.0904
  -7793345.80945  -6044708.91843  22477759.2734                   22477754.1484
 11  8 15  3 20  0.0000000  0  8G15G12G25G29G05G21G26G02
 -14068332.11745 -10869728.64543  22918810.2814                   22918807.4384
  -8900885.73846  -6920930.47743  22659730.6954                   22659727.0274
 -16561254.80946 -12895835.04344  21865317.5234                   21865317.7814
 -15987945.08246 -16091343.62145  21141162.8444                   21141161.0434
 -19026377.68046 -14765984.82045  20990759.0084                   20990755.8674
 -11321144.82815                  24540755.688
 -13522024.19146 -10456882.74643  22120005.8204                   22120003.4494
  -9297280.26246  -7216605.89843  22191569.3134                   22191564.6414
 11  8 15  3 20 30.0000000  0  8G15G12G25G29G05G21G26G02
 -14138592.82045 -10924477.17243  22905439.6724                   22905436.8164
  -8786570.24246  -6831853.47343  22681482.6644                   22681481.2664
 -16489306.94546 -12839771.77044  21879009.0474                   21879009.0044
 -16029379.82446 -16123630.39544  21133278.3914                   21133275.9264
 -18938786.25046 -14697731.74244  21007427.5554                   21007423.5594
 -11353983.191 5                  24534506.656
 -13573983.29346 -10497370.29343  22110117.5084                   22110116.0634
  -9225702.34846  -7160830.88743  22205190.4224                   22205185.9064
 11  8 15  3 21  0.0000000  0  8G15G12G25G29G05G21G26G02
 -14208744.78145 -10979140.92242  22892089.6724                   22892087.1334
  -8672091.73445  -6742649.41043  22703267.7814                   22703265.0984
 -16416924.13746 -12783369.55544  21892782.3054                   21892782.6724
 -16070547.25446 -16155708.84444  21125444.7034                   21125442.3444
 -18850869.33246 -14629225.00044  21024157.1954                   21024154.3484
                                  24528255.055
 -13625571.19545 -10537568.56643  22100302.6564                   22100298.6724
  -9154033.09845  -7104984.66043  22218828.4144                   22218823.5824
 11  8 15  3 21 30.0000000  0  8G15G12G25G29G05G21G26G02
 -14278781.94145 -11033715.27742  22878761.8834                   22878759.0514
  -8557450.27745  -6653318.43443  22725084.4774                   22725080.6954
 -16344105.89146 -12726628.05944  21906639.3204                   21906639.5594
 -16111442.25846 -16187575.06344  21117662.9304                   21117660.0944
 -18762626.69546 -14560464.50044  21040949.0164                   21040945.9884
                                  24521999.695
 -13676781.34045 -10577472.53943  22090555.9384                   22090553.3714
  -9082269.02045  -7049064.59843  22232485.3364                   22232480.4774
 11  8 15  3 22  0.0000000  0  8G15G12G25G29G05G21G26G02
 -14348699.85945 -11088196.68442  22865457.7274                   22865454.7304
  -8442647.40245  -6563861.67243  22746930.6254                   22746927.2894
 -16270853.32446 -12669548.14543  21920579.0474                   21920578.9694
 -16152061.10246 -16219226.04744  21109933.6094                   21109930.2344
 -18674058.98446 -14491450.68044  21057803.5944                   21057800.1994
 -11452604.80114                  24515739.641
 -13727608.97345 -10617078.39843  22080884.7034                   22080881.2934
  -9010408.78945  -6993069.60543  22246159.6414                   22246154.2464
 11  8 15  3 22 30.0000000  0  8G15G12G25G29G05G21G26G02
 -14418488.93045 -11142577.78143  22852177.3134                   22852174.0124
  -8327679.84845  -6474276.57843  22768806.9844                   22768804.6764
 -16197162.34046 -12612126.64144  21934601.6724                   21934602.7304
 -16192394.87146 -16250654.96144  21102258.2194                   21102255.2504
 -18585162.40646 -14422180.63744  21074719.4224                   21074716.8134
 -11485504.32414                  24509478.867
 -13778043.79345 -10656378.23443  22071286.3984                   22071284.1134
  -8938445.42245  -6936994.28143  22259853.5004                   22259848.4264
 11  8 15  3 23  0.0000000  0  8G15G12G25G29G05G21G26G02
 -14488153.45745 -11196861.68442  22838921.3284                   22838916.7894
  -8212557.87945  -6384571.11742  22790715.0784                   22790711.6564
 -16123042.71145 -12554371.04743  21948706.3834                   21948706.3094
 -16232448.60245 -16281865.57044  21094634.7814                   21094633.3094
 -18495946.62946 -14352661.78944  21091696.3914                   21091693.5234
                                  24503216.047
 -13828089.78945 -10695375.05943  22061762.5004                   22061760.3484
  -8866385.66845  -6880843.72343  22273566.7584                   22273561.7854
 11  8 15  3 23 30.0000000  0  8G15G12G25G29G05G21G26G02
 -14557697.54755 -11251051.86753  22825686.3204                   22825683.4304
  -8097291.68045  -6294753.37543  22812648.8204                   22812647.1844
 -16048504.32046 -12496289.23444  21962890.5554                   21962891.4384
 -16272227.09446 -16312861.83244  21087066.6334                   21087063.6684
 -18406421.50846 -14282902.00044  21108732.6484                   21108729.3714
 -11551364.64515                  24496946.805
 -13877750.74646 -10734071.85943  22052313.1484                   22052310.0004
  -8794236.57845  -6824623.68843  22287294.8674                   22287291.3364
 11  8 15  3 24  0.0000000  0  8G15G12G25G29G05G21G26G02
 -14627115.73045 -11305143.90243  22812476.3134                   22812472.9774
  -7981882.33245  -6204824.00442  22834611.2814                   22834607.8954
 -15973547.40646 -12437881.22343  21977153.4924                   21977154.3634
 -16311725.77346 -16343639.93444  21079549.7274                   21079546.9024
 -18316587.40246 -14212901.35544  21125827.4144                   21125824.3054
 -11584331.03914                  24490673.492
 -13927020.70345 -10772463.95743  22042936.2344                   22042934.6524
  -8721995.80545  -6768332.12543  22301042.9844                   22301037.5434
 11  8 15  3 24 30.0000000  0  8G15G12G25G29G05G21G26G02
 -14696401.93045 -11359133.07042  22799292.9694                   22799288.1454
  -7866329.70345  -6114782.99642  22856600.7894                   22856596.2814
 -15898171.09046 -12379146.43043  21991498.7584                   21991497.9574
 -16350938.71546 -16374195.43844  21072087.3284                   21072085.2814
 -18226443.09045 -14142659.00844  21142981.7974                   21142978.3954
                                  24484396.859
 -13975892.79745 -10810546.02043  22033635.4064                   22033634.3054
  -8649659.38345  -6711966.07042  22314807.6174                   22314802.8794
 11  8 15  3 25  0.0000000  0  7G15G12G25G29G05G26G02
 -14765552.94945 -11413016.93842  22786132.2114                   22786128.4734
  -7750637.02345  -6024632.84043  22878616.0784                   22878612.8364
 -15822378.25846 -12320087.11343  22005920.5634                   22005920.8324
 -16389864.21146 -16404526.96944  21064681.3284                   21064678.0004
 -18135991.39146 -14072177.17644  21160192.3524                   21160191.0084
 -14024364.05545 -10848315.80143  22024413.0314                   22024410.2664
  -8577227.36745  -6655525.57043  22328592.1254                   22328586.3914
 11  8 15  3 25 30.0000000  0  7G15G12G25G29G05G26G02
 -14834558.43445 -11466787.41843  22773001.3284                   22772997.9734
  -7634799.55945  -5934369.93443  22900658.3754                   22900655.4064
 -15746163.82046 -12260699.25843  22020423.5394                   22020423.9064
 -16428492.27346 -16434626.75044  21057330.2584                   21057327.3014
 -18045227.08246 -14001451.77044  21177466.2504                   21177463.0514
 -14072422.96145 -10885764.27743  22015267.3444                   22015264.9184
  -8504691.93845  -6599004.48043  22342393.9694                   22342389.4774
 11  8 15  3 26  0.0000000  0  7G15G12G25G29G05G26G02
 -14903417.71145 -11520443.94142  22759898.2664                   22759894.5984
  -7518823.45745  -5843998.96543  22922728.0394                   22922725.6094
 -15669533.27746 -12200987.15243  22035006.2344                   22035006.9804
 -16466823.03146 -16464494.81344  21050035.1334                   21050033.3324
 -17954155.66446 -13930487.00844  21194795.9774                   21194793.2974
 -14120069.14145 -10922891.13743  22006200.6254                   22006197.6254
  -8432055.46145  -6542404.62942  22356216.6094                   22356211.8634
 11  8 15  3 26 30.0000000  0  7G15G12G25G29G05G26G02
 -14972129.96545 -11573985.85243  22746821.8054                   22746819.0824
  -7402713.96945  -5753524.00842  22944824.0164                   22944819.9614
 -15592491.38345 -12140954.47743  22049666.7584                   22049667.3204
 -16504856.69946 -16494131.36344  21042798.8134                   21042795.5944
 -17862781.79346 -13859286.58644  21212182.8594                   21212180.6484
 -14167301.41845 -10959695.39842  21997212.2664                   21997209.7154
  -8359319.89545  -6485727.52742  22370058.5234                   22370052.7274
 11  8 15  3 27  0.0000000  0  7G15G12G25G29G05G26G02
 -15040691.06345 -11627410.09443  22733774.8984                   22733772.8324
  -7286472.73845  -5662946.50043  22966942.8674                   22966940.3484
 -15515039.58646 -12080602.49644  22064405.7344                   22064406.1294
 -16542589.45746 -16523533.53144  21035618.1724                   21035615.0124
 -17771106.82846 -13787851.57844  21229628.7664                   21229626.1054
 -14214114.92655 -10996173.46553  21988303.9694                   21988301.5434
  -8286483.64545  -6428972.08242  22383918.2274                   22383912.4224
 11  8 15  3 27 30.0000000  0  7G15G12G25G29G05G26G02
                                  22720759.1884                   22720755.2034
  -7170099.77745  -5572266.19542  22989088.1484                   22989085.0744
 -15437177.09045 -12019930.37143  22079222.4534                   22079222.3364
 -16580015.66445 -16552696.69944  21028495.6094                   21028493.0824
 -17679129.83245 -13716181.12544  21247131.7194                   21247128.6724
 -14260503.13745 -11032320.02042  21979476.1414                   21979474.1844
  -8213542.98845  -6372135.14542  22397798.4844                   22397793.0634
 11  8 15  3 28  0.0000000  0  7G15G12G25G29G05G26G02
                                  22707770.2344                   22707767.4224
  -7053606.89854  -5481492.57052  23011257.1414                   23011252.7464
 -15358915.46545 -11958947.28143  22094114.5084                   22094114.9344
 -16617142.06345 -16581626.31343  21021431.2114                   21021427.4574
 -17586861.71545 -13644283.88343  21264689.3054                   21264686.3754
                                  21970730.2424                   21970726.0904
                                  22411698.1484                   22411690.8244
 11  8 15  3 28 30.0000000  0  7G15G12G25G29G05G26G02
 -15245436.10554 -11786951.43452  22694813.5634                   22694809.5784
                                  23033448.9774                   23033443.1174
 -15280251.51645 -11897650.65243  22109085.0944                   22109084.3554
 -16653960.34845 -16610315.84043  21014424.1954                   21014421.0434
 -17494299.50845 -13572157.49243  21282303.9534                   21282300.0824
 -14352009.91845 -11103623.85242  21962064.8984                   21962060.3914
  -8067367.91455  -6258232.46952  22425615.2504                   22425608.6294
 11  8 15  3 29  0.0000000  0  7G15G12G25G29G05G26G02
                                  22681889.1884                   22681883.4064
  -6820253.30955  -5299658.67252  23055660.5234                   23055658.2624
 -15201184.91446 -11836040.41843  22124129.7034                   22124129.8484
 -16690465.30146 -16638761.28144  21007478.3594                   21007474.5514
 -17401442.73046 -13499801.61744  21299973.3754                   21299970.1454
 -14397113.03545 -11138769.12142  21953480.3054                   21953477.3014
  -7994123.79355  -6201159.20752  22439552.7894                   22439546.5274
 11  8 15  3 29 30.0000000  0  7G15G12G25G29G05G26G02
 -15381117.75455 -11892677.33253  22668993.7424                   22668990.0164
  -6703400.19555  -5208604.29752  23077898.7114                   23077895.3404
 -15121723.01246 -11774122.06343  22139251.0164                   22139251.6294
 -16726659.08646 -16666964.17244  21000590.8054                   21000587.7544
 -17308298.50046 -13427221.69144  21317698.6564                   21317695.5704
 -14441781.57845 -11173575.74243  21944980.3284                   21944977.6994
  -7920778.60545  -6144007.14143  22453510.1024                   22453504.2544
 11  8 15  3 30  0.0000000  0  7G15G12G25G29G05G26G02
 -15448708.37945 -11945345.28142  22656133.6094                   22656128.2774
  -6586436.01245  -5117463.34842  23100156.9844                   23100152.5944
 -15041869.35546 -11711898.42243  22154446.7814                   22154447.3204
 -16762539.68846 -16694923.04344  20993762.2814                   20993759.8404
 -17214869.99246 -13354420.26644  21335477.3754                   21335474.4694
 -14486013.16045 -11208041.85943  21936564.3444                   21936561.1644
  -7847332.93445  -6086776.75043  22467487.6884                   22467481.0314
 11  8 15  3 30 30.0000000  0  7G15G12G25G29G05G26G02
 -15516126.38745 -11997878.74242  22643303.2974                   22643299.1374
  -6469362.19554  -5026236.97352  23122433.7344                   23122431.4494
 -14961624.90245 -11649370.23043  22169717.3914                   22169716.4454
 -16798104.10245 -16722635.50443  20986995.8594                   20986991.9414
 -17121158.10945 -13281397.98443  21353310.2424                   21353307.1174
 -14529802.62545 -11242163.41843  21928230.6644                   21928228.1214
  -7773784.62945  -6029466.37942  22481480.7114                   22481475.9654
 11  8 15  3 31  0.0000000  0  7G15G12G25G29G05G26G02
                                  22630507.7584                   22630502.6604
  -6352185.56654  -4934930.55552  23144732.8204                   23144728.6024
 -14880996.00445 -11586542.52343  22185059.8594                   22185059.4064
 -16833353.03145 -16750102.17243  20980286.9304                   20980283.9184
 -17027168.76645 -13208159.53143  21371194.9614                   21371192.1524
 -14573150.09845 -11275940.60542  21919981.7424                   21919978.6484
  -7700136.68845  -5972078.38342  22495497.1954                   22495490.8094
 11  8 15  3 31 30.0000000  0  7G15G12G25G29G05G26G02
 -15650433.84045 -12102533.98842  22617745.8054                   22617741.6914
  -6234899.32454  -4843538.66452  23167052.4844                   23167047.6374
 -14799975.93445 -11523409.97743  22200477.9224                   22200477.4224
 -16868274.79745 -16777313.88343  20973641.5084                   20973638.5204
 -16932895.02045 -13134699.44943  21389135.6254                   21389132.2384
 -14616042.95745 -11309363.54742  21911819.0474                   21911816.8284
  -7626379.66455  -5914605.40652  22509532.6174                   22509525.4494
 11  8 15  3 32  0.0000000  0  7G15G12G25G29G05G26G02
 -15717312.92245 -12154647.66442  22605019.3674                   22605014.2114
  -6117512.05954  -4752068.07852  23189389.2734                   23189385.1724
 -14718572.64845 -11459978.87543  22215967.9614                   22215968.0204
 -16902872.13745 -16804272.82843  20967057.8984                   20967054.5164
 -16838344.59445 -13061023.84043  21407127.5634                   21407124.5004
 -14658482.86745 -11342433.53942  21903743.3984                   21903740.0044
  -7552517.96945  -5857050.88342  22523587.7344                   22523581.1134
 11  8 15  3 32 30.0000000  0  7G15G12G25G29G05G26G02
 -15784009.17245 -12206618.85942  22592327.6884                   22592323.2344
  -6000029.52754  -4660523.25852  23211747.1644                   23211741.6564
 -14636791.75045 -11396253.53543  22231530.7504                   22231530.0084
 -16937145.70345 -16830979.46143  20960535.4224                   20960532.1994
 -16743522.87945 -12987136.78143  21425172.4924                   21425168.5634
 -14700469.50845 -11375150.38342  21895753.6954                   21895750.0204
  -7478554.47345  -5799417.02042  22537663.6954                   22537656.5434
 11  8 15  3 33  0.0000000  0  8G15G12G25G29G05G21G26G02
 -15850520.38746 -12258446.02044  22579669.9534                   22579667.0554
  -5882455.53546  -4568907.32843  23234117.8754                   23234116.0434
 -14554636.70746 -11332236.74244  22247164.0704                   22247164.5664
 -16971093.79746 -16857432.62145  20954075.4384                   20954073.0664
 -16648432.89546 -12913040.79744  21443267.0394                   21443263.5234
 -11056863.09415                  24377091.375
 -14742000.54346 -11407512.29343  21887850.8284                   21887847.8524
  -7404489.55556  -5741704.24653  22551755.1414                   22551751.3444
 11  8 15  3 33 30.0000000  0  8G15G12G25G29G05G21G26G02
 -15916840.96545 -12310124.47743  22567049.8984                   22567046.8914
  -5764790.91445  -4477220.64843  23256509.7974                   23256507.1994
 -14472108.09446 -11267928.70344  22262868.6724                   22262868.9064
 -17004711.64546 -16883628.30545  20947678.5474                   20947675.6134
 -16553075.11346 -12838736.02744  21461412.0944                   21461410.1094
 -11090245.047 5                  24370737.516
 -14783070.12946 -11439514.45743  21880035.3914                   21880031.8284
  -7330320.40645  -5683910.12943  22565869.5474                   22565865.4304
 11  8 15  3 34  0.0000000  0  8G15G12G25G29G05G21G26G02
 -15982977.47345 -12361659.42243  22554465.1174                   22554461.5204
  -5647048.26245  -4385473.10242  23278915.2194                   23278912.7664
 -14389218.19545 -11203339.13343  22278642.2584                   22278641.9844
 -17038006.52046 -16909572.28544  20941343.1254                   20941339.3674
 -16457461.29346 -12764231.70344  21479606.6094                   21479604.1844
                                  24364379.969
 -14823684.60545 -11471161.97343  21872306.6484                   21872303.9144
  -7256056.23845  -5626041.94143  22580001.0474                   22579997.1804
 11  8 15  3 34 30.0000000  0  8G15G12G25G29G05G21G26G02
 -16048917.64545 -12413041.41843  22541915.5474                   22541913.3794
  -5529221.24655  -4293659.82452  23301337.8364                   23301333.7934
 -14305960.86345 -11138463.28943  22294485.2584                   22294485.5704
 -17070967.65646 -16935256.22744  20935071.2034                   20935067.8244
 -16361584.93045 -12689522.82044  21497853.0474                   21497849.1564
                                  24358014.141
 -14863831.46545 -11502445.12943  21864666.8134                   21864664.0514
  -7181687.68845  -5568092.41843  22594152.8524                   22594148.9184
 11  8 15  3 35  0.0000000  0  8G15G12G25G29G05G21G26G02
 -16114655.77345 -12464265.90643  22529407.1334                   22529404.2544
  -5411310.39544  -4201781.23042  23323775.5084                   23323771.8754
 -14222336.17245 -11073301.16443  22310399.3444                   22310398.6724
 -17103589.61745 -16960675.88744  20928863.0084                   20928859.5554
 -16265445.68045 -12614609.07843  21516146.9384                   21516143.8054
                                  24351645.039
 -14903505.08645 -11533359.52043  21857117.1724                   21857114.4884
  -7107211.38745  -5510058.94942  22608326.3914                   22608321.2344
 11  8 15  3 35 30.0000000  0  8G15G12G25G29G05G21G26G02
 -16180181.88745 -12515325.12942  22516938.5394                   22516933.9694
                                  23346230.2114                   23346225.8754
 -14138340.29745 -11007849.84843  22326382.9384                   22326382.0434
 -17135863.47745 -16985824.32043  20922720.8754                   20922717.6374
 -16169039.52045 -12539487.41043  21534492.7734                   21534489.3164
                                  24345272.156
 -14942695.25445 -11563897.22343  21849659.9224                   21849656.1294
  -7032620.59445  -5451936.30142  22622521.3134                   22622514.6914
 11  8 15  3 36  0.0000000  0  8G15G12G25G29G05G21G26G02
 -16245506.74645 -12566227.59043  22504506.9384                   22504503.8524
  -5175243.68045  -4017833.27043  23368697.4304                   23368693.5204
 -14053989.83246 -10942122.33243  22342434.6804                   22342434.4804
 -17167800.60946 -17010710.48044  20916644.5634                   20916640.8054
 -16072382.70146 -12464170.48544  21552885.2974                   21552882.6214
 -11257593.74615                  24338892.141
 -14981412.59046 -11594066.58243  21842290.5704                   21842289.1254
  -6957928.78545  -5393735.00443  22636734.4144                   22636729.0864
 11  8 15  3 36 30.0000000  0  8G15G12G25G29G05G21G26G02
 -16310621.96545 -12616966.57443  22492115.5554                   22492113.0084
  -5057102.06645  -3925774.88743  23391179.0474                   23391176.0664
 -13969282.33245 -10876116.45343  22358555.1094                   22358553.9804
 -17199393.66046 -17035328.39844  20910631.4144                   20910628.6294
 -15975472.53546 -12388656.03944  21571326.1884                   21571324.3014
 -11291145.297 5                  24332509.688
 -15019648.72345 -11623860.87943  21835014.4614                   21835012.0594
  -6883130.14145  -5335450.36343  22650967.3364                   22650962.6254
 11  8 15  3 37  0.0000000  0  8G15G12G25G29G05G21G26G02
 -16375532.41445 -12667546.00843  22479763.9694                   22479760.1094
                                  23413672.6564                   23413668.7894
 -13884228.37545 -10809840.61343  22374738.7424                   22374739.0274
 -17230647.84845 -17059682.24643  20904684.1334                   20904680.7154
 -15878318.84445 -12312951.80543  21589815.2584                   21589812.2424
                                  24326116.844
 -15057408.18045 -11653283.66843  21827829.0084                   21827827.1374
  -6808232.16045  -5277088.28542  22665221.5634                   22665215.4264
 11  8 15  3 37 30.0000000  0  8G15G12G25G29G05G21G26G02
 -16440225.17255 -12717955.93053  22467452.4694                   22467449.9844
  -4820625.77755  -3741507.68452  23436179.5234                   23436175.3204
 -13798820.93046 -10743289.42643  22390991.0084                   22390991.3014
 -17261550.69946 -17083762.43744  20898802.9844                   20898800.3984
 -15780914.16846 -12237052.12544  21608349.6094                   21608347.0474
                                  24319720.031
 -15094677.66845 -11682324.80943  21820738.0634                   21820735.2974
  -6733224.04745  -5218640.49243  22679494.9454                   22679489.5664
 11  8 15  3 38  0.0000000  0  8G15G12G25G29G05G21G26G02
 -16504694.23045 -12768191.52043  22455184.6884                   22455182.3714
  -4702284.40645  -3649293.67242  23458698.5554                   23458695.9494
 -13713060.09846 -10676462.84443  22407310.8444                   22407310.9384
 -17292097.63746 -17107565.24644  20892990.9064                   20892988.0044
 -15683258.33646 -12160956.68044  21626933.6174                   21626930.3594
 -11391988.57815                  24313317.914
 -15131451.48445 -11710979.65243  21813738.9304                   21813736.9694
  -6658103.19545  -5160104.77343  22693789.1644                   22693784.7034
 11  8 15  3 38 30.0000000  0  8G15G12G25G29G05G21G26G02
 -16568941.24645 -12818254.02343  22442960.1884                   22442956.1724
  -4583882.28155  -3557032.24652  23481231.3674                   23481226.9734
 -13626953.78145 -10609366.94143  22423696.4384                   22423696.7504
 -17322291.28146 -17131092.66844  20887245.2114                   20887242.1954
 -15585358.83646 -12084671.28543  21645563.0784                   21645560.0784
                                  24306910.875
 -15167731.35245 -11739249.54343  21806835.3834                   21806833.5554
  -6582874.09855  -5101484.66852  22708105.1954                   22708099.8794
 11  8 15  3 39  0.0000000  0  6G15G25G29G05G26G02
 -16632957.19545 -12868136.55542  22430778.5314                   22430773.8204
 -13540499.07045 -10541999.67243  22440148.7034                   22440148.5904
 -17352123.33246 -17154338.40244  20881567.7504                   20881565.1294
 -15487212.24645 -12008193.40643  21664240.0474                   21664236.5904
 -15203508.30145 -11767127.58243  21800027.5864                   21800025.2114
  -6507530.28955  -5042775.21952  22722443.7274                   22722437.3984
 11  8 15  3 39 30.0000000  0  8G15G12G25G29G05G21G26G02
 -16696741.70355 -12917838.85953  22418639.1484                   22418635.8714
  -4346896.64515                  23526328.313
 -13453701.18846 -10474365.02343  22456665.2894                   22456665.3754
 -17381593.95746 -17177302.59044  20875960.1334                   20875957.1214
 -15388823.39546 -11931526.84044  21682961.9304                   21682958.8594
 -11043456.27315                  24294082.453
 -15238781.65646 -11794613.32443  21793315.2894                   21793312.8834
  -6432073.94545  -4983978.19543  22736800.4924                   22736796.2424
 11  8 15  3 40  0.0000000  0  7G15G12G25G29G05G26G02
 -16760291.39845 -12967358.01243  22406545.8054                   22406543.3594
                                  23548893.320
 -13366562.78145 -10406464.91043  22473247.2974                   22473247.8874
 -17410700.76245 -17199983.09444  20870420.8834                   20870418.2234
 -15290194.46545 -11854673.04743  21701729.9844                   21701727.5984
 -15273548.07445 -11821703.91843  21786700.2974                   21786696.3874
                                  22751181.2504                   22751176.2704
 11  8 15  3 40 30.0000000  0  7G15G12G25G29G05G26G02
 -16823608.30145 -13016695.77742  22394497.9144                   22394493.7304
                                  23571467.359
 -13279092.21545 -10338306.03943  22489892.4224                   22489892.9384
 -17439446.63745 -17222382.45743  20864951.0944                   20864948.1174
 -15191333.09845 -11777638.19943  21720544.6484                   21720540.1094
 -15307809.95345 -11848401.37142  21780180.6884                   21780176.5044
  -6280826.40654  -4866122.96552  22765583.4774                   22765576.6174
 11  8 15  3 41  0.0000000  0  7G15G12G25G29G05G26G02
 -16886689.73445 -13065850.09043  22382494.0784                   22382490.0274
  -3991020.58654  -3095063.97753  23594047.1644                   23594045.5984
 -13191292.65645 -10269890.78943  22506600.5084                   22506600.1644
 -17467829.44545 -17244498.92244  20859550.0004                   20859546.5314
 -15092242.07845 -11700424.43844  21739400.4924                   21739396.9064
 -15341564.17645 -11874703.32043  21773755.9774                   21773753.3914
  -6205040.03955  -4807068.66053  22780005.1414                   22779998.9454
 11  8 15  3 41 30.0000000  0  7G15G12G25G29G05G26G02
                                  22370534.7734                   22370530.9774
                                  23616640.1174                   23616635.1954
 -13103165.70345 -10201220.46143  22523369.5784                   22523369.9494
 -17495846.13345 -17266330.08244  20854218.0234                   20854215.0394
 -14992922.55545 -11623032.59843  21758299.5474                   21758296.4774
 -15374806.62145 -11900606.44142  21767430.5394                   21767427.5554
  -6129143.64545  -4747928.60942  22794447.7504                   22794441.2464
 11  8 15  3 42  0.0000000  0  7G15G12G25G29G05G26G02
 -17012128.33645 -13163594.30943  22358623.0314                   22358619.9224
                                  23639236.5474                   23639233.2664
 -13014713.19545 -10132296.45343  22540201.3204                   22540202.6414
 -17523493.10946 -17287873.16444  20848957.6174                   20848954.9064
 -14893375.87945 -11545463.77343  21777241.9614                   21777240.0984
 -15407533.02045 -11926107.50843  21761203.6644                   21761200.2504
  -6053135.38355  -4688701.47352  22808911.0864                   22808905.6484
 11  8 15  3 42 30.0000000  0  7G15G12G25G29G05G26G02
 -17074474.55545 -13212175.65643  22346758.1094                   22346755.3954
                                  23661842.5784                   23661838.8874
 -12925934.22745 -10063118.01643  22557096.7034                   22557096.5904
 -17550764.13345 -17309123.27044  20843767.8284                   20843765.2664
 -14793600.57445 -11467716.77743  21796230.2274                   21796226.9574
 -15439736.73845 -11951201.22743  21755075.5634                   21755072.2304
  -5977011.49645  -4629384.20342  22823397.8914                   22823391.9964
 11  8 15  3 43  0.0000000  0  7G15G12G25G29G05G26G02
 -17136574.81245 -13260565.40242  22334941.8914                   22334937.6134
                                  23684456.0004                   23684450.3754
 -12836839.88745  -9993693.87543  22574050.3134                   22574049.6994
 -17577664.86745 -17330084.85243  20838648.4924                   20838645.5554
 -14693606.99645 -11389799.71143  21815258.0634                   21815254.5394
 -15471422.59445 -11975891.43442  21749044.9614                   21749041.4574
                                  22837903.2344                   22837897.6684
 11  8 15  3 43 30.0000000  0  6G15G25G29G05G26G02
 -17198423.41855 -13308759.03552  22323173.8134                   22323167.7194
 -12747430.77345  -9924024.46942  22591066.7194                   22591062.9964
 -17604191.21945 -17350754.71943  20833601.6024                   20833597.6414
 -14593395.28945 -11311712.67643  21834328.1174                   21834324.1954
 -15502585.47355 -12000174.16052  21743115.5944                   21743110.8484
  -5824436.45354  -4510494.56352  22852431.7894                   22852425.2274
 11  8 15  3 44  0.0000000  0  8G15G12G25G29G05G21G26G02
 -17260012.23855 -13356750.42253  22311451.5234                   22311449.0474
 -11001743.95715                  23729694.641
 -12657704.28556  -9854107.80953  22608137.7344                   22608138.5704
 -17630335.13746 -17371126.68045  20828625.8204                   20828623.5004
 -14492962.46546 -11233453.46544  21853439.5164                   21853436.1454
                                  24236058.797
 -15533216.60246 -12024042.62944  21737286.9384                   21737282.6994
  -5747976.25055  -4450915.34853  22866981.8134                   22866975.6604
 11  8 15  3 44 30.0000000  0  8G15G12G25G29G05G21G26G02
 -17321341.41445 -13404539.31343  22299781.1484                   22299778.1134
                                  23752320.8834                   23752319.3014
 -12567667.11345  -9783948.89143  22625271.9844                   22625272.1214
 -17656097.85245 -17391201.41044  20823724.0634                   20823720.3914
 -14392314.64545 -11155026.51643  21872591.2344                   21872588.8054
                                  24229581.414
 -15563316.80545 -12047497.21943  21731559.0704                   21731554.7274
  -5671402.19544  -4391247.24642  22881553.0554                   22881547.0204
 11  8 15  3 45  0.0000000  0  8G15G12G25G29G05G21G26G02
 -17382410.72745 -13452125.82043  22288159.4694                   22288157.7154
 -10763900.73455  -2445065.02052  23774952.8134                   23774951.3484
 -12477325.02045  -9713552.52743  22642463.6094                   22642463.9964
 -17681480.19946 -17410979.90644  20818892.8914                   20818890.4224
 -14291456.57446 -11076435.89844  21891784.4384                   21891781.3364
                                  24223097.031
 -15592886.32846 -12070538.43443  21725931.2424                   21725928.2544
  -5594717.05945  -4331492.64843  22896144.9304                   22896140.5004
 11  8 15  3 45 30.0000000  0  8G15G12G25G29G05G21G26G02
 -17443214.32845 -13499505.22343  22276589.6484                   22276585.9144
 -10644949.63755  -2352376.00052  23797591.1884                   23797586.0314
 -12386678.40645  -9642918.79343  22659712.8984                   22659713.4184
 -17706477.39546 -17430458.22344  20814137.3594                   20814134.0664
 -14190388.36346 -10997681.45344  21911016.8524                   21911014.1524
 -11136296.641 5                  24216605.391
 -15621919.20346 -12093161.41043  21720406.8204                   21720403.2584
  -5517917.56345  -4271648.94142  22910758.9614                   22910754.5984
 11  8 15  3 46  0.0000000  0  8G15G12G25G29G05G21G26G02
 -17503750.41045 -13546676.19543  22265071.0004                   22265067.3444
 -10525983.04755  -2259674.77052  23820229.4844                   23820224.8554
 -12295731.21145  -9572050.86343  22677019.9064                   22677019.8164
 -17731088.12146 -17449635.39544  20809452.9924                   20809450.6414
 -14089112.84046 -10918765.47343  21930289.3444                   21930286.6484
 -11170444.844 5                  24210106.977
 -15650413.67646 -12115364.85543  21714984.4924                   21714980.8404
  -5441004.35945  -4211716.62543  22925396.1094                   22925390.3094
 11  8 15  3 46 30.0000000  0  8G15G12G25G29G05G21G26G02
 -17564017.01645 -13593637.16043  22253602.3364                   22253598.3054
 -10407004.62154  -2166964.36752  23842870.2584                   23842866.0984
 -12204487.43445  -9500951.80143  22694383.2664                   22694383.6214
 -17755311.06246 -17468510.37544  20804843.5394                   20804840.9964
 -13987634.03145 -10839691.07443  21949599.7734                   21949597.0354
                                  24203601.117
 -15678367.84045 -12137147.25843  21709664.9844                   21709661.9884
  -5363977.91845  -4151696.01642  22940053.4924                   22940048.5084
 11  8 15  3 47  0.0000000  0  8G15G12G25G29G05G21G26G02
 -17624009.92245 -13640384.88343  22242185.2034                   22242182.4574
                                  23865514.3054                   23865508.5634
 -12112949.21145  -9429623.31643  22711802.2344                   22711802.3984
 -17779143.06245 -17487080.72744  20800308.8134                   20800306.1844
 -13885953.23845 -10760459.27743  21968948.5704                   21968946.5234
                                  24197090.000
 -15705777.90645 -12158505.67243  21704448.1644                   21704445.5044
  -5286837.08245  -4091586.26242  22954733.6644                   22954727.5704
 11  8 15  3 47 30.0000000  0  8G15G12G25G29G05G21G26G02
 -17683721.77045 -13686913.66043  22230822.3364                   22230819.2034
 -10169017.94955  -1981520.27052  23888156.9224                   23888154.1844
 -12021115.39845  -9358064.53543  22729277.9694                   22729277.3914
 -17802578.21546 -17505341.93444  20795849.8204                   20795846.1254
 -13784068.51646 -10681068.64543  21988337.6644                   21988334.4734
                                  24190570.945
 -15732637.17646 -12179435.00843  21699337.0554                   21699334.9844
  -5209576.95345  -4031383.65243  22969434.6644                   22969429.0824
 11  8 15  3 48  0.0000000  0  8G15G12G25G29G05G21G26G02
 -17743154.72745 -13733225.00043  22219512.9064                   22219509.6884
                                  23910804.2814                   23910799.2424
 -11928993.99245  -9286281.55143  22746806.8204                   22746807.7464
 -17825619.00046 -17523295.71944  20791464.6484                   20791461.7974
 -13681987.24245 -10601524.75843  22007762.7894                   22007759.9184
 -11307394.55514                  24184047.086
 -15758947.31645 -12199936.30543  21694330.5554                   21694327.6884
  -5132202.43445  -3971091.82042  22984159.0394                   22984153.4344
 11  8 15  3 48 30.0000000  0  8G15G12G25G29G05G21G26G02
 -17802304.63345 -13779315.82043  22208258.1254                   22208254.2034
                                  23933448.6254                   23933443.8794
 -11836587.04745  -9214276.14543  22764392.1254                   22764392.0124
 -17848262.19945 -17540939.75444  20787155.2424                   20787152.9964
 -13579710.86345 -10521828.88343  22027225.1254                   22027221.8524
                                  24177515.461
 -15784705.03145 -12220007.20743  21689428.4224                   21689426.3244
  -5054711.71155  -3910709.41852  22998905.5394                   22998899.6804
 11  8 15  3 49  0.0000000  0  8G15G12G25G29G05G21G26G02
 -17861168.07845 -13825183.46143  22197056.2734                   22197052.2304
                                  23956094.5784                   23956089.9494
 -11743897.22745  -9142050.30543  22782030.0234                   22782030.3554
 -17870505.21145 -17558271.96144  20782923.8524                   20782919.7114
 -13477241.22345 -10441982.39543  22046724.4224                   22046721.0984
                                  24170973.242
 -15809906.90245 -12239644.99243  21684634.1564                   21684629.8444
                                  23013674.1954                   23013668.1604
 11  8 15  3 49 30.0000000  0  7G15G25G29G05G21G26G02
 -17919740.29345 -13870824.11343  22185909.8054                   22185906.1414
 -11650925.77745  -9069605.05142  22799722.0234                   22799722.1564
 -17892344.37545 -17575289.50044  20778767.4454                   20778763.1334
 -13374578.92245 -10361985.81643  22066260.5084                   22066256.8634
                                  24164428.211
 -15834548.57045 -12258846.26243  21679944.5864                   21679941.2384
                                  23028463.8834                   23028458.4344
 11  8 15  3 50  0.0000000  0  7G15G25G29G05G21G26G02
 -17978013.50445 -13916231.84442  22174820.6564                   22174816.4884
 -11557671.08245  -8996939.07442  22817469.5394                   22817468.0864
 -17913772.84845 -17591987.00044  20774689.8444                   20774685.7544
 -13271721.73045 -10281837.34843  22085833.9454                   22085830.3134
 -11444914.41014                  24157875.430
 -15858622.40645 -12277605.07443  21675363.3284                   21675359.1484
  -4821527.29754  -3729007.34852  23043279.5634                   23043272.5274
 11  8 15  3 50 30.0000000  0  6G15G25G29G05G26G02
 -18035987.89156 -13961406.83654  22163788.4384                   22163785.1454
 -11464139.28546  -8924057.31343  22835267.5084                   22835267.0204
 -17934791.41046 -17608365.25045  20770689.4614                   20770686.5944
 -13168675.09046 -10201541.42644  22105443.2344                   22105439.9304
 -15882129.13346 -12295922.14143  21670889.7194                   21670886.6094
                                  23058116.0084                   23058110.0864
 11  8 15  3 51  0.0000000  0  8G15G12G25G29G05G21G26G02
 -18093660.04345 -14006346.01643  22152814.1954                   22152810.9344
                                  24046669.656
 -11370333.40245  -8850961.68842  22853118.6334                   22853117.4614
 -17955397.71545 -17624421.94144  20766768.3594                   20766765.2074
 -13065441.15645 -10121099.23843  22125087.5164                   22125084.4694
                                  24144752.969
 -15905065.80545 -12313794.70343  21666526.4924                   21666522.0354
                                  23072976.4614                   23072971.3054
 11  8 15  3 51 30.0000000  0  7G15G25G29G05G21G26G02
 -18151032.69945 -14051052.02043  22141897.0634                   22141893.4344
 -11276261.81655  -8777659.16453  22871018.0084                   22871018.5944
 -17975595.26245 -17640160.29744  20762924.8134                   20762921.7344
 -12962027.60245 -10040517.23843  22144765.7114                   22144763.0664
                                  24138180.742
 -15927435.33645 -12331225.46543  21662268.0234                   21662264.4144
                                  23087859.6094                   23087853.9264
 11  8 15  3 52  0.0000000  0  7G15G25G29G05G21G26G02
 -19783526.48445 -15323125.10543  21831242.9924                   21831239.3054
                                  22589178.6724                   22589177.5234
 -19570804.49245 -18883180.47744  20459366.9844                   20459363.5944
 -14433855.34045 -11187396.00043  21864688.2424                   21864683.6524
                                  23831809.445
 -17524657.67645 -13575814.25843  21358326.0784                   21358323.5084
                                  22802974.4924                   22802966.9304
 11  8 15  3 52 30.0000000  0  7G15G25G29G05G21G26G02
 -19840286.92245 -15367354.05943  21820442.6484                   21820438.1414
 -12662748.77045  -9858038.66442  22607178.2344                   22607179.1524
 -19590174.00845 -18898273.58644  20455681.6024                   20455677.1524
 -14330085.39545 -11106536.29743  21884433.7814                   21884430.4304
                                  23825223.258
 -17545880.78145 -13592351.73043  21354287.6884                   21354284.7854
  -6005893.01654  -4651889.64852  22817903.4064                   22817895.3164
 11  8 15  3 53  0.0000000  0  7G15G25G29G05G21G26G02
 -19896734.79745 -15411339.44943  21809700.6724                   21809696.6804
 -12567890.67645  -9784123.29742  22625229.1254                   22625229.3594
 -19609124.52345 -18913040.21144  20452074.9924                   20452071.2974
 -14226138.99245 -11025539.09043  21904213.8984                   21904210.3714
                                  23818627.383
 -17566524.98445 -13608438.05142  21350360.5394                   21350356.0784
                                  22832852.766
 11  8 15  3 53 30.0000000  0  6G15G25G29G05G26G02
                                  21799017.7504                   21799014.7774
 -12472779.00055  -9710010.27052  22643329.4774                   22643328.9494
 -19627657.46545 -18927481.45344  20448547.6804                   20448544.1954
 -14122021.80545 -10944408.80143  21924026.3984                   21924022.7774
 -17586591.32045 -13624074.14143  21346541.8444                   21346538.0664
                                  22847828.313
 11  8 15  3 54  0.0000000  0  6G15G25G29G05G26G02
 -20008692.32445 -15498579.08243  21788396.5634                   21788392.0314
                                  22661475.2194                   22661475.3954
 -19645772.03945 -18941596.71144  20445101.3284                   20445097.2624
 -14017737.68745 -10863148.47343  21943871.3524                   21943867.9654
 -17606078.44945 -13639258.93443  21342833.5004                   21342828.5944
  -5769821.07814                  22862825.289
 11  8 15  3 54 30.0000000  0  6G15G25G29G05G26G02
 -20064197.38745 -15541829.75843  21777832.7974                   21777830.3634
 -12281810.66445  -9561203.91843  22679669.4534                   22679668.9344
 -19663466.14545 -18955384.35244  20441733.8284                   20441730.5234
 -13913288.61345 -10781759.62143  21963747.3914                   21963744.4774
 -17624983.88745 -13653990.45743  21339235.5164                   21339231.8404
  -5690893.31614                  22877843.523
 11  8 15  3 55  0.0000000  0  6G15G25G29G05G26G02
 -20119376.07045 -15584825.97742  21767333.5234                   21767329.2734
 -12185953.40245  -9486509.90642  22697910.4064                   22697909.7034
 -19680731.03145 -18968837.46543  20438448.0634                   20438444.9414
 -13808670.15645 -10700238.68043  21983656.4224                   21983651.9804
 -17643298.44145 -13668261.44943  21335751.0084                   21335746.1844
                                  22892887.586
 11  8 15  3 55 30.0000000  0  6G15G25G29G05G26G02
 -20174228.23845 -15627567.84043  21756896.0164                   21756891.6884
 -12089852.39855  -9411626.03152  22716198.2894                   22716197.2344
 -19697567.29745 -18981956.60543  20435244.3524                   20435241.1524
 -13703887.82845 -10618590.12943  22003596.2584                   22003591.5124
 -17661022.61745 -13682072.50042  21332377.0634                   21332373.6884
                                  22907956.219
 11  8 15  3 56  0.0000000  0  6G15G25G29G05G26G02
 -20228751.40645 -15670053.37543  21746518.7114                   21746516.2894
 -11993511.35954  -9336555.10252  22734530.9694                   22734530.6174
 -19713973.85245 -18994740.93043  20432123.0394                   20432118.8914
 -13598944.10955 -10536815.77753  22023564.8984                   22023561.5044
 -17678154.59045 -13695422.09442  21329117.2814                   21329113.3524
                                  22923045.195
 11  8 15  3 56 30.0000000  0  6G15G25G29G05G26G02
 -20282941.60945 -15712279.45743  21736207.1644                   21736203.6804
 -11896931.85545  -9261298.35942  22752909.0474                   22752909.0474
 -19729947.45345 -19007187.87544  20429083.3054                   20429079.5704
 -13493839.98445 -10454916.46543  22043566.1564                   22043561.9384
 -17694690.62945 -13708307.28143  21325969.9844                   21325966.8324
                                  22938159.398
 11  8 15  3 57  0.0000000  0  6G15G25G29G05G26G02
 -20336794.61747 -15754242.93444  21725959.2344                   21725955.9574
 -11800115.96146  -9185857.52743  22771332.4144                   22771332.5944
 -19745484.84047 -19019295.03545  20426126.1724                   20426123.4534
 -13388576.69957 -10372893.22753  22063596.7194                   22063593.3554
 -17710626.96547 -13720725.32443  21322937.4614                   21322934.5314
  -5294389.62516                  22953295.555
 11  8 15  3 57 30.0000000  0  8G15G12G25G29G05G21G26G02
 -20390308.38746 -15795941.88344  21715774.9384                   21715772.7974
 -12480845.67214                  24040744.797
 -11703067.66445  -9110235.46543  22789800.8134                   22789800.5084
 -19760584.94946 -19031061.31244  20423252.2424                   20423249.6484
 -13283157.68745 -10290748.50443  22083656.5634                   22083654.5274
 -12639526.80915                  23758944.516
 -17725962.43746 -13732674.98443  21320019.3364                   21320015.9774
  -5214713.48055  -4035383.99253  22968457.8984                   22968452.0314
 11  8 15  3 58  0.0000000  0  8G15G12G25G29G05G21G26G02
 -20443484.76646 -15837378.03943  21705656.7344                   21705654.0704
 -12362339.37115                  24063298.758
 -11605794.98046  -9034438.60943  22808310.4844                   22808310.7704
 -19775250.40646 -19042488.94945  20420461.2424                   20420458.9534
 -13177589.56246 -10208487.64143  22103745.7504                   22103742.9024
 -12674570.19145 -11706572.55552  23752276.0314                   23752269.8634
 -17740699.64846 -13744158.53143  21317214.1954                   21317211.8984
                                  22983642.4064                   22983638.1374
 11  8 15  3 58 30.0000000  0  9G15G18G12G25G29G05G21G26G02
 -20496319.88746 -15878548.27744  21695602.8524                   21695599.8284
 -12701130.41815                  23456779.180
 -12243890.04715                  24085836.531
 -11508299.92246  -8958468.49643  22826862.8984                   22826864.3404
 -19789478.23447 -19053575.59845  20417753.9224                   20417751.2734
 -13071873.37146 -10126111.41844  22123863.0234                   22123860.5744
 -12709655.81246 -11733911.94142  23745600.0314                   23745595.3954
 -17754834.90646 -13755173.06244  21314524.6804                   21314522.5984
  -5054995.30956  -3910928.32052  22998851.1024                   22998845.5784
 11  8 15  3 59  0.0000000  0  9G15G18G12G25G29G05G21G26G02
 -20548808.30945 -15919448.21143  21685615.3834                   21685611.8594
                                  23447045.180
 -12125497.77714                  24108366.789
 -11410583.14845  -8882325.46142  22845457.2734                   22845458.4304
 -19803263.98446 -19064317.62544  20415131.7734                   20415128.3204
 -12966009.23445 -10043619.78943  22144008.9534                   22144005.8914
 -12744781.21555 -11761282.24252  23738915.6024                   23738911.3284
 -17768363.77345 -13765714.93743  21311950.4694                   21311947.6054
  -4974948.87144  -3848554.35242  23014083.1414                   23014078.5704
 11  8 15  3 59 30.0000000  0  9G15G18G12G25G29G05G21G26G02
 -20600951.17646 -15960079.04344  21675691.0784                   21675689.3554
 -12803227.66415                  23437351.945
 -12007169.66814                  24130884.492
 -11312651.90645  -8806015.51243  22864093.7974                   22864094.2974
 -19816610.01246 -19074717.18045  20412591.2504                   20412588.8204
 -12860003.37146  -9961017.87543  22164180.7424                   22164178.1764
 -12779950.71555 -11788687.02752  23732222.8524                   23732218.0234
 -17781288.00046 -13775785.80143  21309491.5704                   21309488.3164
  -4894780.36355  -3786085.46552  23029337.4844                   23029333.6214
 11  8 15  4  0  0.0000000  0  9G15G18G12G25G29G05G21G26G02
 -20652741.69946 -16000435.23444  21665836.8134                   21665834.1524
 -12853930.645 5                  23427703.742
 -11888904.67614                  24153387.523
 -11214505.61745  -8729537.91443  22882770.8054                   22882771.2504
 -19829510.44146 -19084769.46545  20410136.5394                   20410133.6294
 -12753854.30546  -9878304.30543  22184380.2344                   22184377.4804
 -12815160.53945 -11816123.14142  23725522.1884                   23725517.8404
 -17793601.73846 -13785380.93743  21307148.1804                   21307145.3554
  -4814485.84445  -3723518.29342  23044617.5554                   23044613.6174
 11  8 15  4  0 30.0000000  0  9G15G18G12G25G29G05G21G26G02
 -20704174.69145 -16040512.76643  21656050.0944                   21656046.3364
                                  23418098.500
                                  24175880.578
 -11116144.92245  -8652893.14143  22901487.9144                   22901489.0594
 -19841960.76246 -19094470.94944  20407767.7584                   20407764.4804
 -12647561.72345  -9795478.87143  22204608.4144                   22204604.5124
 -12850408.71145 -11843589.10542  23718815.5944                   23718809.8954
 -17805300.00045 -13794496.40643  21304921.7504                   21304919.3014
  -4734062.18444  -3660850.44542  23059921.7274                   23059917.0474
 11  8 15  4  1  0.0000000  0  8G15G18G25G29G05G21G26G02
 -20755249.25045 -16080310.98843  21646329.9844                   21646326.9224
                                  23408539.539
 -11017574.85545  -8576085.29742  22920245.7974                   22920245.8284
 -19853961.46546 -19103822.12544  20405483.7194                   20405480.7464
 -12541129.73845  -9712544.84043  22224860.2424                   22224857.9384
 -12885697.21545 -11871086.56242  23712100.2424                   23712094.1484
 -17816382.86345 -13803132.37943  21302812.5394                   21302810.5474
                                  23075250.2734                   23075245.8204
 11  8 15  4  1 30.0000000  0  8G15G18G25G29G05G21G26G02
 -20805963.21945 -16119828.27743  21636679.2664                   21636676.0314
                                  23399025.648
 -10918799.31245  -8499117.39542  22939041.2974                   22939041.9924
 -19865510.60545 -19112821.45344  20403286.5704                   20403282.8834
 -12434561.22745  -9629504.42243  22245139.9144                   22245136.6334
 -12921026.81654 -11898616.05952  23705377.8364                   23705371.8594
 -17826848.98045 -13811287.84043  21300822.0554                   21300818.5944
  -4572832.62554  -3535217.00452  23090604.1564                   23090598.4734
 11  8 15  4  2  0.0000000  0  8G15G18G25G29G05G21G26G02
 -20856309.00845 -16159058.64543  21627098.9454                   21627095.3284
                                  23389555.805
 -10819816.72745  -8421988.14542  22957877.8364                   22957878.3244
 -19876602.44145 -19121464.43044  20401174.8054                   20401172.6374
 -12327853.67645  -9546355.68043  22265444.7584                   22265442.2624
 -12956392.85954 -11926173.94552  23698650.7504                   23698641.4884
 -17836691.21145 -13818957.10243  21298948.1414                   21298945.8244
                                  23105980.9384                   23105976.2504
 11  8 15  4  2 30.0000000  0  8G15G18G25G29G05G21G26G02
 -20906287.59845 -16198002.90243  21617587.6564                   21617584.8094
                                  23380131.617
 -10720633.73045  -8344702.71542  22976751.8054                   22976751.8634
 -19887238.32045 -19129752.10944  20399151.0084                   20399148.4804
 -12221013.00845  -9463103.18743  22285777.6334                   22285773.1954
                                  23691910.4454                   23691904.4694
 -17845911.39145 -13826141.64543  21297194.3674                   21297191.2584
                                  23121384.2814                   23121378.1294
 11  8 15  4  3  0.0000000  0  9G15G18G12G25G29G05G21G26G02
 -20955895.62145 -16236658.49243  21608148.0394                   21608145.0394
 -13153211.00015                  23370750.805
 -12386482.27014                  24288144.219
 -10621253.35945  -8267263.49643  22995662.9144                   22995663.2934
 -19897415.98446 -19137682.80144  20397213.8834                   20397211.8164
 -12114040.89845  -9379748.34443  22306132.4304                   22306129.5274
 -13027245.28955 -11981383.53952  23685164.4224                   23685159.5664
 -17854507.08646 -13832839.64543  21295558.2114                   21295555.9144
  -4330011.87155  -3346006.03552  23136811.2194                   23136805.3834
 11  8 15  4  3 30.0000000  0  9G15G18G12G25G29G05G21G26G02
 -21005132.49245 -16275024.77343  21598777.7114                   21598775.3714
 -13202264.57815                  23361415.922
 -12268727.07814                  24310551.492
 -10521680.71545  -8189674.36742  23014611.3984                   23014611.3674
 -19907135.78546 -19145256.61744  20395364.0084                   20395362.3404
 -12006942.00445  -9296294.62543  22326513.0864                   22326510.2194
 -13062733.56654 -12009036.55152  23678412.0394                   23678405.8364
 -17862478.28145 -13839050.94143  21294041.5084                   21294038.8484
  -4248813.79754  -3282734.73452  23152262.8754                   23152256.7814
 11  8 15  4  4  0.0000000  0  9G15G18G12G25G29G05G21G26G02
 -21053990.07546 -16313095.70244  21589480.9454                   21589478.4614
 -13251077.14116                  23352127.516
 -12151052.42615                  24332945.398
 -10421913.75446  -8111934.03543  23033595.0474                   23033595.8674
 -19916390.62147 -19152468.28145  20393603.2894                   20393601.0904
 -11899712.96546  -9212739.63344  22346917.9144                   22346915.2384
 -13098258.48046 -12036718.36343  23671650.6024                   23671645.6604
 -17869817.70746 -13844770.10944  21292644.5554                   21292642.8054
  -4167481.77046  -3219359.27043  23167739.3444                   23167733.9184
 11  8 15  4  4 30.0000000  0  9G15G18G12G25G29G05G21G26G02
 -21102472.67646 -16350874.27744  21580254.8524                   21580252.0744
 -13299655.594 5                  23342882.695
                                  24355320.578
 -10321963.02345  -8034050.32443  23052616.1094                   23052616.8914
 -19925186.07846 -19159321.85945  20391930.4844                   20391926.8404
 -11792363.28946  -9129090.49243  22367346.4534                   22367343.2034
 -13133827.78155 -12064434.59452  23664882.2194                   23664877.0354
 -17876531.00846 -13850001.23843  21291366.8134                   21291364.8524
  -4086022.99245  -3155884.84042  23183240.4064                   23183234.1914
 11  8 15  4  5  0.0000000  0  9G15G18G12G25G29G05G21G26G02
 -21150580.88746 -16388361.13744  21571100.3444                   21571097.1604
 -13348002.539 5                  23333683.805
 -11915980.71515                  24377677.242
 -10221834.91045  -7956028.42243  23071669.2034                   23071670.6294
 -19933523.59046 -19165818.59845  20390343.5784                   20390340.9304
 -11684898.26246  -9045351.48843  22387795.6564                   22387793.0944
 -13169444.50445 -12092187.78942  23658103.0634                   23658099.0164
 -17882619.53946 -13854745.54343  21290208.6804                   21290205.8554
  -4004440.32045  -3092313.87542  23198765.1954                   23198759.1564
 11  8 15  4  5 30.0000000  0  9G15G18G12G25G29G05G21G26G02
 -21198301.77345 -16425546.13343  21562019.3284                   21562016.2304
 -13396107.055 4                  23324529.867
                                  24400017.367
 -10121522.25845  -7877862.68443  23090758.4774                   23090759.4104
 -19941391.16046 -19171949.11744  20388846.9304                   20388843.4574
 -11577310.00445  -8961516.43443  22408269.5394                   22408266.0004
 -13205098.92244 -12119970.31242  23651320.5004                   23651313.9964
 -17888070.98446 -13858993.38743  21289171.9844                   21289168.6374
  -3922722.96545  -3028637.93742  23214315.2584                   23214309.3444
 11  8 15  4  6  0.0000000  0  8G15G18G25G29G05G21G26G02
 -21245639.12945 -16462432.31243  21553010.7974                   21553008.1294
 -13443975.01615                  23315419.539
 -10021034.72745  -7799560.75842  23109880.7974                   23109881.2344
 -19948793.32046 -19177717.00844  20387437.5084                   20387435.1804
 -11469606.90645  -8877591.92243  22428764.9844                   22428761.1914
                                  23644525.4064                   23644520.3094
 -17892889.66845 -13862748.19943  21288255.2274                   21288251.6254
                                  23229890.4844                   23229883.9804
 11  8 15  4  6 30.0000000  0  8G15G18G25G29G05G21G26G02
 -21292581.19946 -16499010.55544  21544079.2504                   21544075.5554
 -13491596.949 5                  23306357.977
  -9920366.60945  -7721118.07443  23129037.4534                   23129037.8634
 -19955719.44546 -19183114.03945  20386120.4064                   20386116.4574
 -11361782.20346  -8793572.70743  22449283.7504                   22449280.2344
 -13276531.43455 -12175631.88352  23637725.7664                   23637720.7854
 -17897065.34446 -13866002.04743  21287460.1564                   21287457.1374
  -3758893.42245  -2900978.57042  23245489.4924                   23245485.7424
 11  8 15  4  7  0.0000000  0  8G15G18G25G29G05G21G26G02
 -21339127.94946 -16535280.73045  21535220.9144                   21535217.8834
 -13538975.145 5                  23297340.781
  -9819523.56646  -7642539.13343  23148226.9534                   23148227.9494
 -19962170.36347 -19188140.77745  20384891.9774                   20384888.9844
 -11253840.90246  -8709462.64544  22469823.3364                   22469820.9614
 -13312303.05545 -12203505.84442  23630918.6414                   23630914.3364
 -17900598.66846 -13868755.35244  21286787.4774                   21286784.7814
  -3676774.18445  -2836989.61743  23261117.2974                   23261112.3634
 11  8 15  4  7 30.0000000  0  8G15G18G25G29G05G21G26G02
 -21385280.42646 -16571243.60544  21526437.6884                   21526435.5314
 -13586113.00415                  23288371.602
  -9718512.73045  -7563829.34843  23167449.1484                   23167449.4774
 -19968148.35246 -19192798.89845  20383754.7734                   20383751.4144
 -11145788.58246  -8625265.96543  22490384.8984                   22490381.9304
 -13348116.41045 -12231412.20343  23624103.7734                   23624099.9884
 -17903491.60246 -13871009.55944  21286237.0314                   21286234.0554
  -3594522.73445  -2772897.54342  23276769.5704                   23276764.5634
 11  8 15  4  8  0.0000000  0  8G15G18G25G29G05G21G26G02
 -21431036.45346 -16606897.60544  21517731.2344                   21517727.9024
 -13633010.422 5                  23279445.945
  -9617337.85245  -7484991.80143  23186701.7034                   23186701.8754
 -19973652.35546 -19197087.71545  20382707.4774                   20382704.4344
 -11037628.23846  -8540985.14543  22510966.8914                   22510964.1994
 -13383971.93045 -12259351.48042  23617280.0314                   23617276.6254
 -17905743.10546 -13872763.98043  21285808.1174                   21285805.7704
  -3512139.44145  -2708702.77042  23292446.8914                   23292441.9614
 11  8 15  4  8 30.0000000  0  8G15G18G25G29G05G21G26G02
 -21476390.89846 -16642238.71944  21509099.6884                   21509097.2934
 -13679664.391 5                  23270569.055
  -9515999.45746  -7406026.84443  23205985.2114                   23205986.0744
 -19978678.01646 -19201003.83245  20381750.9304                   20381747.8524
 -10929359.16046  -8456619.66843  22531570.6884                   22531567.2584
 -13419867.39145 -12287321.93442  23610449.9614                   23610445.4844
 -17907348.98846 -13874015.34444  21285503.4614                   21285500.2034
  -3429621.56645  -2644403.16442  23308148.5234                   23308144.1884
 11  8 15  4  9  0.0000000  0  9G15G18G12G25G29G05G21G26G02
 -21521338.09046 -16677262.41443  21500547.0944                   21500543.9574
 -13726071.762 5                  23261737.930
                                  24555873.055
  -9414498.04345  -7326934.71542  23225301.3204                   23225301.3284
 -19983220.80946 -19204543.58245  20380886.5164                   20380883.8134
 -10820980.78945  -8372168.89143  22552194.1024                   22552190.6564
 -13455799.78545 -12315321.04742  23603610.6174                   23603607.1804
 -17908304.56245 -13874759.89143  21285321.2974                   21285318.6644
  -3346965.53945  -2579995.86742  23323878.3204                   23323872.9224
 11  8 15  4  9 30.0000000  0  9G15G18G12G25G29G05G21G26G02
 -21565884.75845 -16711974.06643  21492070.0554                   21492067.1724
 -13772241.28915                  23252953.266
                                  24578055.680
  -9312845.92255  -7247725.29352  23244645.9064                   23244645.0274
 -19987288.51246 -19207713.19144  20380112.8594                   20380109.6484
 -10712504.64845  -8287642.02743  22572836.0944                   22572832.9344
 -13491778.23845 -12343356.07442  23596765.4924                   23596760.7464
 -17908617.59045 -13875003.79743  21285259.5474                   21285258.6134
                                  23339631.9144                   23339625.4694
 11  8 15  4 10  0.0000000  0  9G15G18G12G25G29G05G21G26G02
 -21610017.56246 -16746363.28144  21483672.1884                   21483669.0784
 -13818161.88715                  23244214.539
                                  24600216.484
  -9211035.41455  -7168392.44152  23264018.9144                   23264018.5514
 -19990868.48046 -19210502.80145  20379430.6414                   20379428.0704
 -10603921.75445  -8203031.99243  22593498.5164                   22593495.7974
 -13527792.34845 -12371418.98843  23589912.4144                   23589907.5474
 -17908275.70745 -13874737.40643  21285328.0084                   21285323.6914
                                  23355411.0234                   23355406.6764
 11  8 15  4 10 30.0000000  0  9G15G18G12G25G29G05G21G26G02
 -21653736.71145 -16780430.12943  21475352.2194                   21475349.6994
 -13863836.098 5                  23235523.664
                                  24622356.039
  -9109072.78945  -7088941.03942  23283421.0004                   23283422.3984
 -19993962.19146 -19212913.44544  20378842.6414                   20378839.3834
 -10495237.39145  -8118342.86343  22614181.2734                   22614177.3874
 -13563844.71145 -12399511.62142  23583053.6954                   23583047.0164
 -17907280.28145 -13873961.72743  21285516.5634                   21285513.3914
  -3098192.34454  -2386146.65652  23371220.2584                   23371212.5204
 11  8 15  4 11  0.0000000  0  9G15G18G12G25G29G05G21G26G02
 -21697044.61745 -16814176.49643  21467111.8524                   21467108.4494
                                  23226875.977
                                  24644472.672
  -9006966.31655  -7009377.51652  23302852.5394                   23302851.8364
 -19996573.32046 -19214948.06644  20378346.4384                   20378342.4344
 -10386458.68445  -8033580.21143  22634880.2584                   22634877.5354
 -13599941.06255 -12427638.55152  23576184.0394                   23576177.8954
 -17905634.80945 -13872679.53143  21285828.8054                   21285826.3714
                                  23387050.7504                   23387044.6564
 11  8 15  4 11 30.0000000  0  9G15G18G12G25G29G05G21G26G02
 -21739934.75846 -16847597.43744  21458949.9534                   21458947.0314
 -13954454.81215                  23218278.648
 -11869958.37114                  24666564.336
  -8904715.25845  -6929701.41842  23322310.5864                   23322309.6374
 -19998696.17646 -19216602.30145  20377941.0554                   20377938.0594
 -10277583.59445  -7948742.55143  22655598.3134                   22655595.4304
 -13636077.04345 -12455796.45343  23569306.3674                   23569301.4494
 -17903334.08646 -13870886.82444  21286267.8134                   21286264.3054
  -2931664.14155  -2256384.50852  23402908.0314                   23402901.8204
 11  8 15  4 12  0.0000000  0  9G15G18G12G25G29G05G21G26G02
 -21782410.93445 -16880695.69943  21450866.4774                   21450863.3054
 -13999401.23415                  23209725.047
                                  24688632.781
  -8802329.21545  -6849920.01642  23341793.0234                   23341792.6564
 -20000335.60246 -19217879.71144  20377628.7974                   20377626.7774
 -10168620.69545  -7863836.30943  22676332.9614                   22676330.5594
 -13672258.98845 -12483990.03542  23562421.9924                   23562416.3134
 -17900382.87545 -13868587.11743  21286828.2344                   21286825.9064
  -2848200.43754  -2191347.82052  23418789.8054                   23418785.7624
 11  8 15  4 12 30.0000000  0  8G15G18G25G29G05G21G26G02
 -21824464.09445 -16913464.35243  21442864.9924                   21442860.6604
 -14044100.64815                  23201220.328
  -8699804.94545  -6770030.93042  23361303.0554                   23361302.5274
 -20001483.57445 -19218774.23844  20377410.9384                   20377408.1724
 -10059565.59455  -7778858.32852  22697085.7034                   22697083.3834
                                  23555528.4924                   23555523.6684
 -17896773.20745 -13865774.35943  21287516.8834                   21287512.8484
  -2764598.89154  -2126203.84052  23434699.7274                   23434693.7504
 11  8 15  4 13  0.0000000  0  8G15G18G25G29G05G21G26G02
 -21866082.91845 -16945894.63343  21434943.8284                   21434941.6994
 -14088543.90215                  23192762.703
  -8597136.55155  -6690029.56252  23380838.7894                   23380839.9414
 -20002129.47746 -19219277.53944  20377286.8134                   20377285.5474
  -9950411.37545  -7693803.11343  22717857.8054                   22717854.7704
 -13744732.80945 -12540463.03942  23548629.3594                   23548625.3794
 -17892494.89845 -13862440.63343  21288329.9304                   21288326.9574
  -2680850.63345  -2060945.44142  23450636.9144                   23450630.1764
 11  8 15  4 13 30.0000000  0  8G15G18G25G29G05G21G26G02
 -21907280.03545 -16977996.25443  21427105.3444                   21427101.9774
 -14132745.871 5                  23184350.211
  -8494342.64845  -6609930.35942  23400400.7894                   23400400.7464
 -20002287.51246 -19219400.65644  20377258.0164                   20377255.1484
  -9841175.27345  -7608684.04343  22738645.6724                   22738641.8094
 -13781030.99655 -12568747.23452  23541722.8914                   23541717.2194
 -17887561.89145 -13858596.68043  21289267.3754                   21289265.7034
  -2596970.26254  -1995584.23852  23466597.2344                   23466591.7854
 11  8 15  4 14  0.0000000  0  8G15G18G25G29G05G21G26G02
 -21948045.09446 -17009761.28144  21419347.5704                   21419344.6414
 -14176698.12915                  23175986.219
  -8391418.32445  -6529729.63742  23419986.2194                   23419987.1134
 -20001947.93746 -19219136.09445  20377322.5554                   20377319.3094
  -9731851.32445  -7523496.59843  22759448.5234                   22759445.7854
 -13817366.78145 -12597060.87142  23534807.2974                   23534802.9454
 -17881964.71146 -13854235.28543  21290333.7344                   21290331.1024
  -2512949.56245  -1930113.55142  23482587.0394                   23482580.4304
 11  8 15  4 14 30.0000000  0  8G15G18G25G29G05G21G26G02
 -21988375.45746 -17041187.49243  21411672.7034                   21411669.9654
 -14220400.79315                  23167669.367
  -8288366.73845  -6449429.63342  23439597.2194                   23439596.7274
 -20001109.08246 -19218482.41044  20377482.4454                   20377479.4614
  -9622441.72745  -7438242.35242  22780267.9774                   22780265.2544
 -13853740.55545 -12625403.94942  23527886.1174                   23527880.4454
 -17875702.13346 -13849355.31643  21291525.8524                   21291522.4064
  -2428788.38354  -1864533.41052  23498603.3134                   23498595.6914
 11  8 15  4 15  0.0000000  0  8G15G18G25G29G05G21G26G02
 -22028267.80146 -17072272.42244  21404080.6954                   21404078.7894
 -14263852.949 5                  23159401.594
  -8185190.75445  -6369032.77043  23459228.9844                   23459230.6174
 -19999769.10946 -19217438.31245  20377737.3754                   20377734.1054
  -9512948.09445  -7352922.65643  22801104.6414                   22801101.3914
 -13890151.91045 -12653776.37542  23520956.9844                   23520952.1254
 -17868772.51246 -13843955.64143  21292843.7114                   21292840.6024
  -2344485.71545  -1798843.10542  23514645.4924                   23514638.8324
